<?xml version="1.0" encoding="UTF-8" standalone="no" ?>
<gpx xmlns="http://www.topografix.com/GPX/1/1" xmlns:xsi="http://www.w3.org/2001/XMLSchema-instance" xsi:schemaLocation="http://www.topografix.com/GPX/1/1 http://www.topografix.com/GPX/1/1/gpx.xsd" version="1.1" creator="VisuGPX - https://www.visugpx.com">
  <metadata>
    <name>Col de la pierre du Coucou - Les meulières</name>
    <desc><![CDATA[Les meulières]]></desc>
  </metadata>
  <trk>
    <name><![CDATA[Col de la pierre du Coucou]]></name>
    <extensions>
      <line xmlns="http://www.topografix.com/GPX/gpx_style/0/2">
        <color>ff0000</color>
        <opacity>1</opacity>
        <width>5</width>
      </line>
    </extensions>
    <trkseg>
      <trkpt lat="43.52869" lon="6.65494">
        <ele>209.6</ele>
        <time>2024-01-24T09:58:21+01:00</time>
        <extensions>
          <visugpx:TrkExtension xmlns:visugpx="https://www.visugpx.com/editgpx/">
            <visugpx:node>3</visugpx:node>
            </visugpx:TrkExtension>
        </extensions>
      </trkpt>
      <trkpt lat="43.52871" lon="6.65485">
        <ele>209.9</ele>
        <time>2024-01-24T08:58:29.900Z</time>
      </trkpt>
      <trkpt lat="43.52866" lon="6.65484">
        <ele>209.5</ele>
        <time>2024-01-24T08:58:36.489Z</time>
      </trkpt>
      <trkpt lat="43.52861" lon="6.65482">
        <ele>209</ele>
        <time>2024-01-24T08:58:43.278Z</time>
      </trkpt>
      <trkpt lat="43.52857" lon="6.6548">
        <ele>208.8</ele>
        <time>2024-01-24T08:58:48.826Z</time>
      </trkpt>
      <trkpt lat="43.52853" lon="6.65478">
        <ele>208.6</ele>
        <time>2024-01-24T08:58:54.374Z</time>
      </trkpt>
      <trkpt lat="43.52848" lon="6.65476">
        <ele>208.5</ele>
        <time>2024-01-24T08:59:01.163Z</time>
      </trkpt>
      <trkpt lat="43.52844" lon="6.65474">
        <ele>208.4</ele>
        <time>2024-01-24T08:59:06.711Z</time>
      </trkpt>
      <trkpt lat="43.5284" lon="6.65471">
        <ele>208.3</ele>
        <time>2024-01-24T08:59:12.649Z</time>
      </trkpt>
      <trkpt lat="43.52836" lon="6.65469">
        <ele>208.3</ele>
        <time>2024-01-24T08:59:18.197Z</time>
      </trkpt>
      <trkpt lat="43.52831" lon="6.65467">
        <ele>208.3</ele>
        <time>2024-01-24T08:59:24.986Z</time>
      </trkpt>
      <trkpt lat="43.52827" lon="6.65465">
        <ele>208.2</ele>
        <time>2024-01-24T08:59:30.534Z</time>
      </trkpt>
      <trkpt lat="43.52821" lon="6.65462">
        <ele>208</ele>
        <time>2024-01-24T08:59:38.857Z</time>
      </trkpt>
      <trkpt lat="43.52814" lon="6.65458">
        <ele>207.6</ele>
        <time>2024-01-24T08:59:48.738Z</time>
      </trkpt>
      <trkpt lat="43.52807" lon="6.65458">
        <ele>207.1</ele>
        <time>2024-01-24T08:59:57.867Z</time>
      </trkpt>
      <trkpt lat="43.52803" lon="6.65462">
        <ele>206.8</ele>
        <time>2024-01-24T09:00:04.310Z</time>
      </trkpt>
      <trkpt lat="43.52798" lon="6.65465">
        <ele>206.5</ele>
        <time>2024-01-24T09:00:11.421Z</time>
      </trkpt>
      <trkpt lat="43.52793" lon="6.65469">
        <ele>206.1</ele>
        <time>2024-01-24T09:00:18.959Z</time>
      </trkpt>
      <trkpt lat="43.52788" lon="6.65473">
        <ele>205.7</ele>
        <time>2024-01-24T09:00:26.497Z</time>
      </trkpt>
      <trkpt lat="43.52783" lon="6.65476">
        <ele>205.5</ele>
        <time>2024-01-24T09:00:33.608Z</time>
      </trkpt>
      <trkpt lat="43.52779" lon="6.6548">
        <ele>205.3</ele>
        <time>2024-01-24T09:00:40.051Z</time>
      </trkpt>
      <trkpt lat="43.52775" lon="6.65484">
        <ele>205.6</ele>
        <time>2024-01-24T09:00:46.494Z</time>
      </trkpt>
      <trkpt lat="43.5277" lon="6.65488">
        <ele>206</ele>
        <time>2024-01-24T09:00:54.032Z</time>
      </trkpt>
      <trkpt lat="43.52764" lon="6.65492">
        <ele>206.6</ele>
        <time>2024-01-24T09:01:02.723Z</time>
      </trkpt>
      <trkpt lat="43.52758" lon="6.65494">
        <ele>207.1</ele>
        <time>2024-01-24T09:01:10.773Z</time>
      </trkpt>
      <trkpt lat="43.52754" lon="6.65492">
        <ele>207.2</ele>
        <time>2024-01-24T09:01:16.322Z</time>
      </trkpt>
      <trkpt lat="43.52749" lon="6.6549">
        <ele>207.3</ele>
        <time>2024-01-24T09:01:23.111Z</time>
      </trkpt>
      <trkpt lat="43.52745" lon="6.65486">
        <ele>207.2</ele>
        <time>2024-01-24T09:01:29.554Z</time>
      </trkpt>
      <trkpt lat="43.5274" lon="6.65483">
        <ele>207</ele>
        <time>2024-01-24T09:01:36.665Z</time>
      </trkpt>
      <trkpt lat="43.52736" lon="6.65479">
        <ele>206.7</ele>
        <time>2024-01-24T09:01:43.108Z</time>
      </trkpt>
      <trkpt lat="43.52731" lon="6.65475">
        <ele>206.4</ele>
        <time>2024-01-24T09:01:50.646Z</time>
      </trkpt>
      <trkpt lat="43.52727" lon="6.65472">
        <ele>206</ele>
        <time>2024-01-24T09:01:56.584Z</time>
      </trkpt>
      <trkpt lat="43.52722" lon="6.65468">
        <ele>205.9</ele>
        <time>2024-01-24T09:02:04.122Z</time>
      </trkpt>
      <trkpt lat="43.52718" lon="6.65464">
        <ele>206.2</ele>
        <time>2024-01-24T09:02:10.565Z</time>
      </trkpt>
      <trkpt lat="43.52713" lon="6.65461">
        <ele>206.5</ele>
        <time>2024-01-24T09:02:17.676Z</time>
      </trkpt>
      <trkpt lat="43.52709" lon="6.65457">
        <ele>206.6</ele>
        <time>2024-01-24T09:02:24.119Z</time>
      </trkpt>
      <trkpt lat="43.52704" lon="6.65453">
        <ele>206.6</ele>
        <time>2024-01-24T09:02:31.657Z</time>
      </trkpt>
      <trkpt lat="43.527" lon="6.65449">
        <ele>206.4</ele>
        <time>2024-01-24T09:02:38.100Z</time>
      </trkpt>
      <trkpt lat="43.52695" lon="6.65446">
        <ele>206.2</ele>
        <time>2024-01-24T09:02:45.211Z</time>
      </trkpt>
      <trkpt lat="43.52691" lon="6.65442">
        <ele>206</ele>
        <time>2024-01-24T09:02:51.654Z</time>
      </trkpt>
      <trkpt lat="43.52686" lon="6.65438">
        <ele>206</ele>
        <time>2024-01-24T09:02:59.192Z</time>
      </trkpt>
      <trkpt lat="43.52682" lon="6.65435">
        <ele>206</ele>
        <time>2024-01-24T09:03:05.130Z</time>
      </trkpt>
      <trkpt lat="43.52677" lon="6.65431">
        <ele>205.8</ele>
        <time>2024-01-24T09:03:12.668Z</time>
      </trkpt>
      <trkpt lat="43.52674" lon="6.65427">
        <ele>205.6</ele>
        <time>2024-01-24T09:03:18.110Z</time>
      </trkpt>
      <trkpt lat="43.5267" lon="6.65422">
        <ele>205.4</ele>
        <time>2024-01-24T09:03:25.150Z</time>
      </trkpt>
      <trkpt lat="43.52663" lon="6.65416">
        <ele>205.3</ele>
        <time>2024-01-24T09:03:35.898Z</time>
      </trkpt>
      <trkpt lat="43.52655" lon="6.65409">
        <ele>205.4</ele>
        <time>2024-01-24T09:03:48.254Z</time>
      </trkpt>
      <trkpt lat="43.52648" lon="6.65403">
        <ele>205.5</ele>
        <time>2024-01-24T09:03:59.002Z</time>
      </trkpt>
      <trkpt lat="43.5264" lon="6.65396">
        <ele>205.5</ele>
        <time>2024-01-24T09:04:11.358Z</time>
      </trkpt>
      <trkpt lat="43.52636" lon="6.65392">
        <ele>205.6</ele>
        <time>2024-01-24T09:04:17.801Z</time>
      </trkpt>
      <trkpt lat="43.52632" lon="6.65389">
        <ele>205.8</ele>
        <time>2024-01-24T09:04:23.739Z</time>
      </trkpt>
      <trkpt lat="43.52627" lon="6.65385">
        <ele>206</ele>
        <time>2024-01-24T09:04:31.277Z</time>
      </trkpt>
      <trkpt lat="43.52623" lon="6.65381">
        <ele>206.1</ele>
        <time>2024-01-24T09:04:37.720Z</time>
      </trkpt>
      <trkpt lat="43.5262" lon="6.65376">
        <ele>206.1</ele>
        <time>2024-01-24T09:04:43.857Z</time>
      </trkpt>
      <trkpt lat="43.52617" lon="6.65371">
        <ele>206.1</ele>
        <time>2024-01-24T09:04:49.994Z</time>
      </trkpt>
      <trkpt lat="43.52613" lon="6.65365">
        <ele>206.1</ele>
        <time>2024-01-24T09:04:57.701Z</time>
      </trkpt>
      <trkpt lat="43.5261" lon="6.6536">
        <ele>206.2</ele>
        <time>2024-01-24T09:05:03.838Z</time>
      </trkpt>
      <trkpt lat="43.52605" lon="6.65352">
        <ele>206.6</ele>
        <time>2024-01-24T09:05:13.825Z</time>
      </trkpt>
      <trkpt lat="43.52599" lon="6.65343">
        <ele>207.1</ele>
        <time>2024-01-24T09:05:25.386Z</time>
      </trkpt>
      <trkpt lat="43.52594" lon="6.65337">
        <ele>207.7</ele>
        <time>2024-01-24T09:05:34.029Z</time>
      </trkpt>
      <trkpt lat="43.52589" lon="6.65332">
        <ele>208.4</ele>
        <time>2024-01-24T09:05:42.083Z</time>
      </trkpt>
      <trkpt lat="43.52584" lon="6.65326">
        <ele>209</ele>
        <time>2024-01-24T09:05:50.726Z</time>
      </trkpt>
      <trkpt lat="43.52579" lon="6.6532">
        <ele>209.4</ele>
        <time>2024-01-24T09:05:59.369Z</time>
      </trkpt>
      <trkpt lat="43.52574" lon="6.65317">
        <ele>210</ele>
        <time>2024-01-24T09:06:06.480Z</time>
      </trkpt>
      <trkpt lat="43.5257" lon="6.65313">
        <ele>210.7</ele>
        <time>2024-01-24T09:06:12.923Z</time>
      </trkpt>
      <trkpt lat="43.52565" lon="6.6531">
        <ele>211.4</ele>
        <time>2024-01-24T09:06:20.034Z</time>
      </trkpt>
      <trkpt lat="43.5256" lon="6.65306">
        <ele>212.1</ele>
        <time>2024-01-24T09:06:27.572Z</time>
      </trkpt>
      <trkpt lat="43.52555" lon="6.65306">
        <ele>213</ele>
        <time>2024-01-24T09:06:34.093Z</time>
      </trkpt>
      <trkpt lat="43.52549" lon="6.65305">
        <ele>212.9</ele>
        <time>2024-01-24T09:06:41.975Z</time>
      </trkpt>
      <trkpt lat="43.52546" lon="6.65307">
        <ele>213.1</ele>
        <time>2024-01-24T09:06:46.320Z</time>
      </trkpt>
      <trkpt lat="43.52542" lon="6.65313">
        <ele>213.4</ele>
        <time>2024-01-24T09:06:54.027Z</time>
      </trkpt>
      <trkpt lat="43.5254" lon="6.65319">
        <ele>213.7</ele>
        <time>2024-01-24T09:07:00.271Z</time>
      </trkpt>
      <trkpt lat="43.52537" lon="6.65325">
        <ele>213.9</ele>
        <time>2024-01-24T09:07:07.163Z</time>
      </trkpt>
      <trkpt lat="43.52535" lon="6.65331">
        <ele>214.1</ele>
        <time>2024-01-24T09:07:13.407Z</time>
      </trkpt>
      <trkpt lat="43.52532" lon="6.65337">
        <ele>214.3</ele>
        <time>2024-01-24T09:07:20.299Z</time>
      </trkpt>
      <trkpt lat="43.52527" lon="6.65345">
        <ele>214.5</ele>
        <time>2024-01-24T09:07:30.286Z</time>
      </trkpt>
      <trkpt lat="43.52522" lon="6.65348">
        <ele>215</ele>
        <time>2024-01-24T09:07:37.397Z</time>
      </trkpt>
      <trkpt lat="43.52517" lon="6.6535">
        <ele>215.5</ele>
        <time>2024-01-24T09:07:44.186Z</time>
      </trkpt>
      <trkpt lat="43.52511" lon="6.6535">
        <ele>216</ele>
        <time>2024-01-24T09:07:52.011Z</time>
      </trkpt>
      <trkpt lat="43.52506" lon="6.65351">
        <ele>216.5</ele>
        <time>2024-01-24T09:07:58.600Z</time>
      </trkpt>
      <trkpt lat="43.525" lon="6.65351">
        <ele>217</ele>
        <time>2024-01-24T09:08:06.425Z</time>
      </trkpt>
      <trkpt lat="43.52494" lon="6.65351">
        <ele>217.4</ele>
        <time>2024-01-24T09:08:14.250Z</time>
      </trkpt>
      <trkpt lat="43.52486" lon="6.65353">
        <ele>218.1</ele>
        <time>2024-01-24T09:08:24.853Z</time>
      </trkpt>
      <trkpt lat="43.52484" lon="6.6536">
        <ele>218.7</ele>
        <time>2024-01-24T09:08:31.968Z</time>
      </trkpt>
      <trkpt lat="43.52481" lon="6.65367">
        <ele>219.1</ele>
        <time>2024-01-24T09:08:39.657Z</time>
      </trkpt>
      <trkpt lat="43.52479" lon="6.65376">
        <ele>219.4</ele>
        <time>2024-01-24T09:08:48.558Z</time>
      </trkpt>
      <trkpt lat="43.52477" lon="6.65385">
        <ele>219.6</ele>
        <time>2024-01-24T09:08:57.459Z</time>
      </trkpt>
      <trkpt lat="43.52475" lon="6.65394">
        <ele>220</ele>
        <time>2024-01-24T09:09:06.360Z</time>
      </trkpt>
      <trkpt lat="43.52473" lon="6.65404">
        <ele>220.5</ele>
        <time>2024-01-24T09:09:16.169Z</time>
      </trkpt>
      <trkpt lat="43.5247" lon="6.65413">
        <ele>220.8</ele>
        <time>2024-01-24T09:09:25.536Z</time>
      </trkpt>
      <trkpt lat="43.52468" lon="6.65422">
        <ele>221</ele>
        <time>2024-01-24T09:09:34.437Z</time>
      </trkpt>
      <trkpt lat="43.52466" lon="6.65431">
        <ele>221.3</ele>
        <time>2024-01-24T09:09:43.338Z</time>
      </trkpt>
      <trkpt lat="43.52464" lon="6.6544">
        <ele>221.5</ele>
        <time>2024-01-24T09:09:52.239Z</time>
      </trkpt>
      <trkpt lat="43.52462" lon="6.65447">
        <ele>221.9</ele>
        <time>2024-01-24T09:09:59.354Z</time>
      </trkpt>
      <trkpt lat="43.52459" lon="6.65456">
        <ele>222.6</ele>
        <time>2024-01-24T09:10:08.721Z</time>
      </trkpt>
      <trkpt lat="43.52454" lon="6.65465">
        <ele>223.1</ele>
        <time>2024-01-24T09:10:19.443Z</time>
      </trkpt>
      <trkpt lat="43.5245" lon="6.65475">
        <ele>223.5</ele>
        <time>2024-01-24T09:10:30.243Z</time>
      </trkpt>
      <trkpt lat="43.52445" lon="6.65484">
        <ele>223.9</ele>
        <time>2024-01-24T09:10:40.965Z</time>
      </trkpt>
      <trkpt lat="43.5244" lon="6.65493">
        <ele>224.6</ele>
        <time>2024-01-24T09:10:51.687Z</time>
      </trkpt>
      <trkpt lat="43.52437" lon="6.65497">
        <ele>225</ele>
        <time>2024-01-24T09:10:57.129Z</time>
      </trkpt>
      <trkpt lat="43.5243" lon="6.65499">
        <ele>225.4</ele>
        <time>2024-01-24T09:11:06.452Z</time>
      </trkpt>
      <trkpt lat="43.52422" lon="6.655">
        <ele>225.7</ele>
        <time>2024-01-24T09:11:16.928Z</time>
      </trkpt>
      <trkpt lat="43.52414" lon="6.655">
        <ele>226.1</ele>
        <time>2024-01-24T09:11:27.361Z</time>
      </trkpt>
      <trkpt lat="43.52406" lon="6.65501">
        <ele>226.5</ele>
        <time>2024-01-24T09:11:37.837Z</time>
      </trkpt>
      <trkpt lat="43.52398" lon="6.65501">
        <ele>226.9</ele>
        <time>2024-01-24T09:11:48.271Z</time>
      </trkpt>
      <trkpt lat="43.52391" lon="6.65503">
        <ele>227.4</ele>
        <time>2024-01-24T09:11:57.594Z</time>
      </trkpt>
      <trkpt lat="43.52386" lon="6.65507">
        <ele>227.6</ele>
        <time>2024-01-24T09:12:05.132Z</time>
      </trkpt>
      <trkpt lat="43.5238" lon="6.65511">
        <ele>227.5</ele>
        <time>2024-01-24T09:12:13.823Z</time>
      </trkpt>
      <trkpt lat="43.52375" lon="6.65517">
        <ele>227.6</ele>
        <time>2024-01-24T09:12:22.467Z</time>
      </trkpt>
      <trkpt lat="43.52372" lon="6.65524">
        <ele>228.1</ele>
        <time>2024-01-24T09:12:30.156Z</time>
      </trkpt>
      <trkpt lat="43.52369" lon="6.65531">
        <ele>228.5</ele>
        <time>2024-01-24T09:12:37.845Z</time>
      </trkpt>
      <trkpt lat="43.52366" lon="6.65536">
        <ele>228.6</ele>
        <time>2024-01-24T09:12:43.982Z</time>
      </trkpt>
      <trkpt lat="43.52363" lon="6.65541">
        <ele>228.7</ele>
        <time>2024-01-24T09:12:50.119Z</time>
      </trkpt>
      <trkpt lat="43.52359" lon="6.65546">
        <ele>228.8</ele>
        <time>2024-01-24T09:12:57.160Z</time>
      </trkpt>
      <trkpt lat="43.52353" lon="6.65554">
        <ele>229</ele>
        <time>2024-01-24T09:13:08.044Z</time>
      </trkpt>
      <trkpt lat="43.52346" lon="6.65563">
        <ele>228.9</ele>
        <time>2024-01-24T09:13:20.525Z</time>
      </trkpt>
      <trkpt lat="43.5234" lon="6.65571">
        <ele>228.8</ele>
        <time>2024-01-24T09:13:31.409Z</time>
      </trkpt>
      <trkpt lat="43.52333" lon="6.65579">
        <ele>228.7</ele>
        <time>2024-01-24T09:13:43.266Z</time>
      </trkpt>
      <trkpt lat="43.5233" lon="6.65588">
        <ele>229.5</ele>
        <time>2024-01-24T09:13:52.633Z</time>
      </trkpt>
      <trkpt lat="43.52326" lon="6.65596">
        <ele>230.5</ele>
        <time>2024-01-24T09:14:01.823Z</time>
      </trkpt>
      <trkpt lat="43.5232" lon="6.65605">
        <ele>231</ele>
        <time>2024-01-24T09:14:13.385Z</time>
      </trkpt>
      <trkpt lat="43.52317" lon="6.65612">
        <ele>231.3</ele>
        <time>2024-01-24T09:14:21.074Z</time>
      </trkpt>
      <trkpt lat="43.52312" lon="6.65622">
        <ele>231.6</ele>
        <time>2024-01-24T09:14:32.561Z</time>
      </trkpt>
      <trkpt lat="43.52311" lon="6.65628">
        <ele>231.9</ele>
        <time>2024-01-24T09:14:38.383Z</time>
      </trkpt>
      <trkpt lat="43.5231" lon="6.65634">
        <ele>232.2</ele>
        <time>2024-01-24T09:14:44.205Z</time>
      </trkpt>
      <trkpt lat="43.52308" lon="6.6564">
        <ele>232.5</ele>
        <time>2024-01-24T09:14:50.450Z</time>
      </trkpt>
      <trkpt lat="43.52307" lon="6.65646">
        <ele>233</ele>
        <time>2024-01-24T09:14:56.272Z</time>
      </trkpt>
      <trkpt lat="43.52303" lon="6.65655">
        <ele>234</ele>
        <time>2024-01-24T09:15:06.255Z</time>
      </trkpt>
      <trkpt lat="43.52299" lon="6.65663">
        <ele>235.1</ele>
        <time>2024-01-24T09:15:15.445Z</time>
      </trkpt>
      <trkpt lat="43.52295" lon="6.65668">
        <ele>235.8</ele>
        <time>2024-01-24T09:15:22.486Z</time>
      </trkpt>
      <trkpt lat="43.52292" lon="6.65674">
        <ele>236.1</ele>
        <time>2024-01-24T09:15:29.378Z</time>
      </trkpt>
      <trkpt lat="43.52288" lon="6.65679">
        <ele>236.3</ele>
        <time>2024-01-24T09:15:36.419Z</time>
      </trkpt>
      <trkpt lat="43.52284" lon="6.65684">
        <ele>236.3</ele>
        <time>2024-01-24T09:15:43.460Z</time>
      </trkpt>
      <trkpt lat="43.52277" lon="6.6569">
        <ele>236.4</ele>
        <time>2024-01-24T09:15:54.209Z</time>
      </trkpt>
      <trkpt lat="43.52269" lon="6.65697">
        <ele>237.2</ele>
        <time>2024-01-24T09:16:06.566Z</time>
      </trkpt>
      <trkpt lat="43.52262" lon="6.65703">
        <ele>238</ele>
        <time>2024-01-24T09:16:17.315Z</time>
      </trkpt>
      <trkpt lat="43.52254" lon="6.65709">
        <ele>238.5</ele>
        <time>2024-01-24T09:16:29.192Z</time>
      </trkpt>
      <trkpt lat="43.52248" lon="6.65716">
        <ele>238.9</ele>
        <time>2024-01-24T09:16:39.442Z</time>
      </trkpt>
      <trkpt lat="43.52243" lon="6.65722">
        <ele>239.6</ele>
        <time>2024-01-24T09:16:48.086Z</time>
      </trkpt>
      <trkpt lat="43.52237" lon="6.65729">
        <ele>240.9</ele>
        <time>2024-01-24T09:16:58.336Z</time>
      </trkpt>
      <trkpt lat="43.52231" lon="6.65735">
        <ele>241.8</ele>
        <time>2024-01-24T09:17:08.002Z</time>
      </trkpt>
      <trkpt lat="43.52226" lon="6.65742">
        <ele>242.2</ele>
        <time>2024-01-24T09:17:17.294Z</time>
      </trkpt>
      <trkpt lat="43.52221" lon="6.65748">
        <ele>242.4</ele>
        <time>2024-01-24T09:17:25.938Z</time>
      </trkpt>
      <trkpt lat="43.52216" lon="6.65752">
        <ele>243.3</ele>
        <time>2024-01-24T09:17:33.477Z</time>
      </trkpt>
      <trkpt lat="43.52212" lon="6.65756">
        <ele>244.6</ele>
        <time>2024-01-24T09:17:39.921Z</time>
      </trkpt>
      <trkpt lat="43.52207" lon="6.6576">
        <ele>245.6</ele>
        <time>2024-01-24T09:17:47.460Z</time>
      </trkpt>
      <trkpt lat="43.52202" lon="6.65764">
        <ele>246.3</ele>
        <time>2024-01-24T09:17:54.999Z</time>
      </trkpt>
      <trkpt lat="43.52197" lon="6.65768">
        <ele>246.8</ele>
        <time>2024-01-24T09:18:02.538Z</time>
      </trkpt>
      <trkpt lat="43.52192" lon="6.65771">
        <ele>247.2</ele>
        <time>2024-01-24T09:18:09.649Z</time>
      </trkpt>
      <trkpt lat="43.52186" lon="6.65775">
        <ele>247.5</ele>
        <time>2024-01-24T09:18:18.341Z</time>
      </trkpt>
      <trkpt lat="43.52181" lon="6.65778">
        <ele>247.5</ele>
        <time>2024-01-24T09:18:25.452Z</time>
      </trkpt>
      <trkpt lat="43.52177" lon="6.65783">
        <ele>248.4</ele>
        <time>2024-01-24T09:18:32.493Z</time>
      </trkpt>
      <trkpt lat="43.52172" lon="6.6579">
        <ele>249.3</ele>
        <time>2024-01-24T09:18:41.785Z</time>
      </trkpt>
      <trkpt lat="43.52167" lon="6.65796">
        <ele>250</ele>
        <time>2024-01-24T09:18:50.429Z</time>
      </trkpt>
      <trkpt lat="43.52162" lon="6.65803">
        <ele>250.4</ele>
        <time>2024-01-24T09:18:59.722Z</time>
      </trkpt>
      <trkpt lat="43.52157" lon="6.65809">
        <ele>251</ele>
        <time>2024-01-24T09:19:08.366Z</time>
      </trkpt>
      <trkpt lat="43.52151" lon="6.65818">
        <ele>252.2</ele>
        <time>2024-01-24T09:19:19.928Z</time>
      </trkpt>
      <trkpt lat="43.52145" lon="6.65826">
        <ele>252.9</ele>
        <time>2024-01-24T09:19:30.813Z</time>
      </trkpt>
      <trkpt lat="43.52141" lon="6.6583">
        <ele>252.8</ele>
        <time>2024-01-24T09:19:37.257Z</time>
      </trkpt>
      <trkpt lat="43.52137" lon="6.65833">
        <ele>253</ele>
        <time>2024-01-24T09:19:43.195Z</time>
      </trkpt>
      <trkpt lat="43.5213" lon="6.65837">
        <ele>254.5</ele>
        <time>2024-01-24T09:19:53.078Z</time>
      </trkpt>
      <trkpt lat="43.52124" lon="6.6584">
        <ele>255.9</ele>
        <time>2024-01-24T09:20:01.402Z</time>
      </trkpt>
      <trkpt lat="43.52117" lon="6.65844">
        <ele>257.2</ele>
        <time>2024-01-24T09:20:11.285Z</time>
      </trkpt>
      <trkpt lat="43.5211" lon="6.65847">
        <ele>258.5</ele>
        <time>2024-01-24T09:20:20.845Z</time>
      </trkpt>
      <trkpt lat="43.52105" lon="6.65849">
        <ele>259.3</ele>
        <time>2024-01-24T09:20:27.635Z</time>
      </trkpt>
      <trkpt lat="43.52099" lon="6.65851">
        <ele>260.2</ele>
        <time>2024-01-24T09:20:35.686Z</time>
      </trkpt>
      <trkpt lat="43.52092" lon="6.6585">
        <ele>260.1</ele>
        <time>2024-01-24T09:20:44.865Z</time>
      </trkpt>
      <trkpt lat="43.52086" lon="6.6585">
        <ele>260.2</ele>
        <time>2024-01-24T09:20:52.691Z</time>
      </trkpt>
      <trkpt lat="43.52079" lon="6.65849">
        <ele>260.6</ele>
        <time>2024-01-24T09:21:01.870Z</time>
      </trkpt>
      <trkpt lat="43.52072" lon="6.65848">
        <ele>261.4</ele>
        <time>2024-01-24T09:21:11.049Z</time>
      </trkpt>
      <trkpt lat="43.52064" lon="6.65846">
        <ele>262</ele>
        <time>2024-01-24T09:21:21.653Z</time>
      </trkpt>
      <trkpt lat="43.52056" lon="6.65845">
        <ele>262.6</ele>
        <time>2024-01-24T09:21:32.130Z</time>
      </trkpt>
      <trkpt lat="43.52047" lon="6.65843">
        <ele>263.2</ele>
        <time>2024-01-24T09:21:44.020Z</time>
      </trkpt>
      <trkpt lat="43.52039" lon="6.65841">
        <ele>263.7</ele>
        <time>2024-01-24T09:21:54.624Z</time>
      </trkpt>
      <trkpt lat="43.52032" lon="6.6584">
        <ele>264.3</ele>
        <time>2024-01-24T09:22:03.803Z</time>
      </trkpt>
      <trkpt lat="43.52024" lon="6.65836">
        <ele>263.9</ele>
        <time>2024-01-24T09:22:14.902Z</time>
      </trkpt>
      <trkpt lat="43.52016" lon="6.65832">
        <ele>263</ele>
        <time>2024-01-24T09:22:26.001Z</time>
      </trkpt>
      <trkpt lat="43.52011" lon="6.6583">
        <ele>262.3</ele>
        <time>2024-01-24T09:22:32.791Z</time>
      </trkpt>
      <trkpt lat="43.52005" lon="6.65827">
        <ele>261.7</ele>
        <time>2024-01-24T09:22:41.115Z</time>
      </trkpt>
      <trkpt lat="43.51999" lon="6.65826">
        <ele>261.6</ele>
        <time>2024-01-24T09:22:48.998Z</time>
      </trkpt>
      <trkpt lat="43.51991" lon="6.65829">
        <ele>262.4</ele>
        <time>2024-01-24T09:22:59.811Z</time>
      </trkpt>
      <trkpt lat="43.51985" lon="6.65832">
        <ele>263.2</ele>
        <time>2024-01-24T09:23:08.135Z</time>
      </trkpt>
      <trkpt lat="43.51979" lon="6.65836">
        <ele>263.6</ele>
        <time>2024-01-24T09:23:16.827Z</time>
      </trkpt>
      <trkpt lat="43.51972" lon="6.65839">
        <ele>263.8</ele>
        <time>2024-01-24T09:23:26.388Z</time>
      </trkpt>
      <trkpt lat="43.51966" lon="6.65842">
        <ele>263.5</ele>
        <time>2024-01-24T09:23:34.713Z</time>
      </trkpt>
      <trkpt lat="43.51961" lon="6.65848">
        <ele>263.7</ele>
        <time>2024-01-24T09:23:43.358Z</time>
      </trkpt>
      <trkpt lat="43.51956" lon="6.65854">
        <ele>263.7</ele>
        <time>2024-01-24T09:23:52.003Z</time>
      </trkpt>
      <trkpt lat="43.51951" lon="6.65859">
        <ele>263.7</ele>
        <time>2024-01-24T09:24:00.059Z</time>
      </trkpt>
      <trkpt lat="43.51946" lon="6.65865">
        <ele>263.5</ele>
        <time>2024-01-24T09:24:08.705Z</time>
      </trkpt>
      <trkpt lat="43.51943" lon="6.65867">
        <ele>263.1</ele>
        <time>2024-01-24T09:24:13.051Z</time>
      </trkpt>
      <trkpt lat="43.51939" lon="6.65871">
        <ele>262.6</ele>
        <time>2024-01-24T09:24:19.496Z</time>
      </trkpt>
      <trkpt lat="43.51936" lon="6.65874">
        <ele>262</ele>
        <time>2024-01-24T09:24:24.330Z</time>
      </trkpt>
      <trkpt lat="43.51932" lon="6.65878">
        <ele>261.3</ele>
        <time>2024-01-24T09:24:30.775Z</time>
      </trkpt>
      <trkpt lat="43.51928" lon="6.65881">
        <ele>260.6</ele>
        <time>2024-01-24T09:24:36.715Z</time>
      </trkpt>
      <trkpt lat="43.51927" lon="6.65879">
        <ele>260.3</ele>
        <time>2024-01-24T09:24:39.013Z</time>
      </trkpt>
      <trkpt lat="43.51923" lon="6.65883">
        <ele>259.4</ele>
        <time>2024-01-24T09:24:45.458Z</time>
      </trkpt>
      <trkpt lat="43.51918" lon="6.65887">
        <ele>258.4</ele>
        <time>2024-01-24T10:24:53+01:00</time>
      </trkpt>
      <trkpt lat="43.51914" lon="6.65892">
        <ele>258</ele>
        <time>2024-01-24T09:24:58.221Z</time>
      </trkpt>
      <trkpt lat="43.5191" lon="6.65896">
        <ele>257.8</ele>
        <time>2024-01-24T10:25:03+01:00</time>
      </trkpt>
      <trkpt lat="43.51906" lon="6.659">
        <ele>257.5</ele>
        <time>2024-01-24T09:25:10.499Z</time>
      </trkpt>
      <trkpt lat="43.51902" lon="6.65904">
        <ele>257.1</ele>
        <time>2024-01-24T10:25:18+01:00</time>
      </trkpt>
      <trkpt lat="43.51896" lon="6.65909">
        <ele>256.3</ele>
        <time>2024-01-24T09:25:26.221Z</time>
      </trkpt>
      <trkpt lat="43.51891" lon="6.65913">
        <ele>255.3</ele>
        <time>2024-01-24T10:25:33+01:00</time>
      </trkpt>
      <trkpt lat="43.51886" lon="6.65916">
        <ele>254.6</ele>
        <time>2024-01-24T09:25:38.246Z</time>
      </trkpt>
      <trkpt lat="43.51882" lon="6.6592">
        <ele>254.4</ele>
        <time>2024-01-24T10:25:43+01:00</time>
      </trkpt>
      <trkpt lat="43.51876" lon="6.65925">
        <ele>254.2</ele>
        <time>2024-01-24T09:25:50.499Z</time>
      </trkpt>
      <trkpt lat="43.5187" lon="6.6593">
        <ele>253.8</ele>
        <time>2024-01-24T10:25:58+01:00</time>
      </trkpt>
      <trkpt lat="43.51865" lon="6.65933">
        <ele>253.4</ele>
        <time>2024-01-24T09:26:02.854Z</time>
      </trkpt>
      <trkpt lat="43.5186" lon="6.65937">
        <ele>253</ele>
        <time>2024-01-24T10:26:08+01:00</time>
      </trkpt>
      <trkpt lat="43.51854" lon="6.65942">
        <ele>252.7</ele>
        <time>2024-01-24T09:26:15.499Z</time>
      </trkpt>
      <trkpt lat="43.51848" lon="6.65947">
        <ele>252.4</ele>
        <time>2024-01-24T10:26:23+01:00</time>
      </trkpt>
      <trkpt lat="43.51844" lon="6.65949">
        <ele>252</ele>
        <time>2024-01-24T09:26:27.497Z</time>
      </trkpt>
      <trkpt lat="43.51839" lon="6.65951">
        <ele>251.6</ele>
        <time>2024-01-24T10:26:33+01:00</time>
      </trkpt>
      <trkpt lat="43.51835" lon="6.65954">
        <ele>251.3</ele>
        <time>2024-01-24T09:26:49.785Z</time>
      </trkpt>
      <trkpt lat="43.51831" lon="6.65958">
        <ele>251.1</ele>
        <time>2024-01-24T10:27:08+01:00</time>
      </trkpt>
      <trkpt lat="43.51827" lon="6.6596">
        <ele>250.8</ele>
        <time>2024-01-24T09:27:12.830Z</time>
      </trkpt>
      <trkpt lat="43.51823" lon="6.65963">
        <ele>250.5</ele>
        <time>2024-01-24T10:27:18+01:00</time>
      </trkpt>
      <trkpt lat="43.51819" lon="6.65968">
        <ele>250.5</ele>
        <time>2024-01-24T09:27:22.773Z</time>
      </trkpt>
      <trkpt lat="43.51815" lon="6.65974">
        <ele>250.4</ele>
        <time>2024-01-24T10:27:28+01:00</time>
      </trkpt>
      <trkpt lat="43.51811" lon="6.65978">
        <ele>250.2</ele>
        <time>2024-01-24T09:27:32.778Z</time>
      </trkpt>
      <trkpt lat="43.51807" lon="6.65983">
        <ele>250</ele>
        <time>2024-01-24T10:27:38+01:00</time>
      </trkpt>
      <trkpt lat="43.51803" lon="6.65987">
        <ele>249.5</ele>
        <time>2024-01-24T09:27:42.444Z</time>
      </trkpt>
      <trkpt lat="43.51798" lon="6.65992">
        <ele>249</ele>
        <time>2024-01-24T10:27:48+01:00</time>
      </trkpt>
      <trkpt lat="43.51794" lon="6.65998">
        <ele>248.8</ele>
        <time>2024-01-24T09:27:53.279Z</time>
      </trkpt>
      <trkpt lat="43.51791" lon="6.66004">
        <ele>248.7</ele>
        <time>2024-01-24T10:27:58+01:00</time>
      </trkpt>
      <trkpt lat="43.51788" lon="6.66011">
        <ele>248.5</ele>
        <time>2024-01-24T09:28:02.994Z</time>
      </trkpt>
      <trkpt lat="43.51784" lon="6.66017">
        <ele>248.4</ele>
        <time>2024-01-24T10:28:08+01:00</time>
      </trkpt>
      <trkpt lat="43.51782" lon="6.66023">
        <ele>248.5</ele>
        <time>2024-01-24T09:28:12.999Z</time>
      </trkpt>
      <trkpt lat="43.5178" lon="6.66029">
        <ele>248.5</ele>
        <time>2024-01-24T10:28:18+01:00</time>
      </trkpt>
      <trkpt lat="43.51778" lon="6.66037">
        <ele>248.4</ele>
        <time>2024-01-24T09:28:23.293Z</time>
      </trkpt>
      <trkpt lat="43.51776" lon="6.66044">
        <ele>248.3</ele>
        <time>2024-01-24T10:28:28+01:00</time>
      </trkpt>
      <trkpt lat="43.51773" lon="6.6605">
        <ele>248.1</ele>
        <time>2024-01-24T09:28:38.579Z</time>
      </trkpt>
      <trkpt lat="43.5177" lon="6.66055">
        <ele>247.8</ele>
        <time>2024-01-24T10:28:48+01:00</time>
      </trkpt>
      <trkpt lat="43.51769" lon="6.66062">
        <ele>247.8</ele>
        <time>2024-01-24T09:28:53.367Z</time>
      </trkpt>
      <trkpt lat="43.51768" lon="6.66068">
        <ele>247.7</ele>
        <time>2024-01-24T10:28:58+01:00</time>
      </trkpt>
      <trkpt lat="43.51768" lon="6.66076">
        <ele>247.8</ele>
        <time>2024-01-24T09:29:03.333Z</time>
      </trkpt>
      <trkpt lat="43.51768" lon="6.66083">
        <ele>247.9</ele>
        <time>2024-01-24T10:29:08+01:00</time>
      </trkpt>
      <trkpt lat="43.51769" lon="6.6609">
        <ele>247.7</ele>
        <time>2024-01-24T09:29:13.000Z</time>
      </trkpt>
      <trkpt lat="43.5177" lon="6.66097">
        <ele>247.4</ele>
        <time>2024-01-24T10:29:18+01:00</time>
      </trkpt>
      <trkpt lat="43.51772" lon="6.66102">
        <ele>247.3</ele>
        <time>2024-01-24T09:29:22.680Z</time>
      </trkpt>
      <trkpt lat="43.51775" lon="6.66107">
        <ele>247.2</ele>
        <time>2024-01-24T10:29:28+01:00</time>
      </trkpt>
      <trkpt lat="43.5178" lon="6.66111">
        <ele>247.1</ele>
        <time>2024-01-24T09:29:33.391Z</time>
      </trkpt>
      <trkpt lat="43.51784" lon="6.66115">
        <ele>246.6</ele>
        <time>2024-01-24T10:29:38+01:00</time>
      </trkpt>
      <trkpt lat="43.51789" lon="6.66118">
        <ele>246.1</ele>
        <time>2024-01-24T09:29:43.000Z</time>
      </trkpt>
      <trkpt lat="43.51794" lon="6.66121">
        <ele>245.6</ele>
        <time>2024-01-24T10:29:48+01:00</time>
      </trkpt>
      <trkpt lat="43.51799" lon="6.66123">
        <ele>245.3</ele>
        <time>2024-01-24T09:29:53.502Z</time>
      </trkpt>
      <trkpt lat="43.51803" lon="6.66125">
        <ele>245</ele>
        <time>2024-01-24T10:29:58+01:00</time>
      </trkpt>
      <trkpt lat="43.5181" lon="6.66127">
        <ele>244.9</ele>
        <time>2024-01-24T09:30:05.924Z</time>
      </trkpt>
      <trkpt lat="43.51816" lon="6.6613">
        <ele>245</ele>
        <time>2024-01-24T10:30:13+01:00</time>
      </trkpt>
      <trkpt lat="43.51821" lon="6.66133">
        <ele>244.8</ele>
        <time>2024-01-24T09:30:18.246Z</time>
      </trkpt>
      <trkpt lat="43.51825" lon="6.66137">
        <ele>244.6</ele>
        <time>2024-01-24T10:30:23+01:00</time>
      </trkpt>
      <trkpt lat="43.5183" lon="6.66141">
        <ele>244.3</ele>
        <time>2024-01-24T09:30:28.000Z</time>
      </trkpt>
      <trkpt lat="43.51835" lon="6.66145">
        <ele>244.2</ele>
        <time>2024-01-24T10:30:33+01:00</time>
      </trkpt>
      <trkpt lat="43.51839" lon="6.66149">
        <ele>244.2</ele>
        <time>2024-01-24T09:30:38.000Z</time>
      </trkpt>
      <trkpt lat="43.51843" lon="6.66153">
        <ele>244.2</ele>
        <time>2024-01-24T10:30:43+01:00</time>
      </trkpt>
      <trkpt lat="43.51844" lon="6.6616">
        <ele>243.1</ele>
        <time>2024-01-24T09:30:47.574Z</time>
      </trkpt>
      <trkpt lat="43.51846" lon="6.66168">
        <ele>242.4</ele>
        <time>2024-01-24T10:30:53+01:00</time>
      </trkpt>
      <trkpt lat="43.51843" lon="6.66173">
        <ele>242.5</ele>
        <time>2024-01-24T09:30:57.999Z</time>
      </trkpt>
      <trkpt lat="43.5184" lon="6.66178">
        <ele>242.7</ele>
        <time>2024-01-24T10:31:03+01:00</time>
      </trkpt>
      <trkpt lat="43.51836" lon="6.66184">
        <ele>242.4</ele>
        <time>2024-01-24T09:31:07.713Z</time>
      </trkpt>
      <trkpt lat="43.51831" lon="6.6619">
        <ele>241.9</ele>
        <time>2024-01-24T10:31:13+01:00</time>
      </trkpt>
      <trkpt lat="43.51829" lon="6.66196">
        <ele>241.8</ele>
        <time>2024-01-24T09:31:17.999Z</time>
      </trkpt>
      <trkpt lat="43.51827" lon="6.66202">
        <ele>241.8</ele>
        <time>2024-01-24T10:31:23+01:00</time>
      </trkpt>
      <trkpt lat="43.51823" lon="6.66209">
        <ele>241.6</ele>
        <time>2024-01-24T09:31:28.229Z</time>
      </trkpt>
      <trkpt lat="43.5182" lon="6.66216">
        <ele>241.4</ele>
        <time>2024-01-24T10:31:33+01:00</time>
      </trkpt>
      <trkpt lat="43.51817" lon="6.66223">
        <ele>241.4</ele>
        <time>2024-01-24T09:31:38.193Z</time>
      </trkpt>
      <trkpt lat="43.51815" lon="6.6623">
        <ele>240.9</ele>
        <time>2024-01-24T10:31:43+01:00</time>
      </trkpt>
      <trkpt lat="43.51814" lon="6.66238">
        <ele>240.6</ele>
        <time>2024-01-24T09:31:48.189Z</time>
      </trkpt>
      <trkpt lat="43.51812" lon="6.66245">
        <ele>240.3</ele>
        <time>2024-01-24T10:31:53+01:00</time>
      </trkpt>
      <trkpt lat="43.51812" lon="6.66252">
        <ele>240.3</ele>
        <time>2024-01-24T09:31:58.000Z</time>
      </trkpt>
      <trkpt lat="43.51812" lon="6.66259">
        <ele>240.2</ele>
        <time>2024-01-24T10:32:03+01:00</time>
      </trkpt>
      <trkpt lat="43.51811" lon="6.66267">
        <ele>240</ele>
        <time>2024-01-24T09:32:08.036Z</time>
      </trkpt>
      <trkpt lat="43.51811" lon="6.66275">
        <ele>239.8</ele>
        <time>2024-01-24T10:32:13+01:00</time>
      </trkpt>
      <trkpt lat="43.51811" lon="6.66283">
        <ele>239.8</ele>
        <time>2024-01-24T09:32:18.285Z</time>
      </trkpt>
      <trkpt lat="43.51812" lon="6.6629">
        <ele>239.7</ele>
        <time>2024-01-24T10:32:23+01:00</time>
      </trkpt>
      <trkpt lat="43.51812" lon="6.66298">
        <ele>239.7</ele>
        <time>2024-01-24T09:32:27.963Z</time>
      </trkpt>
      <trkpt lat="43.51813" lon="6.66306">
        <ele>239.6</ele>
        <time>2024-01-24T10:32:33+01:00</time>
      </trkpt>
      <trkpt lat="43.51814" lon="6.66313">
        <ele>239.2</ele>
        <time>2024-01-24T09:32:37.714Z</time>
      </trkpt>
      <trkpt lat="43.51814" lon="6.66321">
        <ele>238.9</ele>
        <time>2024-01-24T10:32:43+01:00</time>
      </trkpt>
      <trkpt lat="43.51816" lon="6.66329">
        <ele>238.7</ele>
        <time>2024-01-24T09:32:48.103Z</time>
      </trkpt>
      <trkpt lat="43.51817" lon="6.66337">
        <ele>238.3</ele>
        <time>2024-01-24T10:32:53+01:00</time>
      </trkpt>
      <trkpt lat="43.51821" lon="6.66344">
        <ele>238.4</ele>
        <time>2024-01-24T09:32:58.501Z</time>
      </trkpt>
      <trkpt lat="43.51824" lon="6.6635">
        <ele>238.6</ele>
        <time>2024-01-24T10:33:03+01:00</time>
      </trkpt>
      <trkpt lat="43.51827" lon="6.66356">
        <ele>238.6</ele>
        <time>2024-01-24T09:33:07.920Z</time>
      </trkpt>
      <trkpt lat="43.51829" lon="6.66363">
        <ele>238.5</ele>
        <time>2024-01-24T10:33:13+01:00</time>
      </trkpt>
      <trkpt lat="43.51832" lon="6.66369">
        <ele>238.4</ele>
        <time>2024-01-24T09:33:17.726Z</time>
      </trkpt>
      <trkpt lat="43.51835" lon="6.66376">
        <ele>238.1</ele>
        <time>2024-01-24T10:33:23+01:00</time>
      </trkpt>
      <trkpt lat="43.51839" lon="6.66381">
        <ele>238.3</ele>
        <time>2024-01-24T09:33:28.000Z</time>
      </trkpt>
      <trkpt lat="43.51843" lon="6.66386">
        <ele>238.2</ele>
        <time>2024-01-24T10:33:33+01:00</time>
      </trkpt>
      <trkpt lat="43.51848" lon="6.66389">
        <ele>238.6</ele>
        <time>2024-01-24T09:33:38.000Z</time>
      </trkpt>
      <trkpt lat="43.51853" lon="6.66392">
        <ele>238.8</ele>
        <time>2024-01-24T10:33:43+01:00</time>
      </trkpt>
      <trkpt lat="43.51858" lon="6.66394">
        <ele>239.1</ele>
        <time>2024-01-24T09:33:48.000Z</time>
      </trkpt>
      <trkpt lat="43.51863" lon="6.66396">
        <ele>238.9</ele>
        <time>2024-01-24T10:33:53+01:00</time>
      </trkpt>
      <trkpt lat="43.51869" lon="6.66396">
        <ele>238.9</ele>
        <time>2024-01-24T09:33:58.000Z</time>
      </trkpt>
      <trkpt lat="43.51875" lon="6.66396">
        <ele>238.9</ele>
        <time>2024-01-24T10:34:03+01:00</time>
      </trkpt>
      <trkpt lat="43.5188" lon="6.66395">
        <ele>239.1</ele>
        <time>2024-01-24T09:34:08.000Z</time>
      </trkpt>
      <trkpt lat="43.51885" lon="6.66394">
        <ele>239.2</ele>
        <time>2024-01-24T10:34:13+01:00</time>
      </trkpt>
      <trkpt lat="43.51891" lon="6.66393">
        <ele>239.6</ele>
        <time>2024-01-24T09:34:17.947Z</time>
      </trkpt>
      <trkpt lat="43.51897" lon="6.66391">
        <ele>239.7</ele>
        <time>2024-01-24T10:34:23+01:00</time>
      </trkpt>
      <trkpt lat="43.51903" lon="6.6639">
        <ele>239.6</ele>
        <time>2024-01-24T09:34:28.446Z</time>
      </trkpt>
      <trkpt lat="43.51908" lon="6.66389">
        <ele>239.5</ele>
        <time>2024-01-24T10:34:33+01:00</time>
      </trkpt>
      <trkpt lat="43.51913" lon="6.66388">
        <ele>239.4</ele>
        <time>2024-01-24T09:34:37.571Z</time>
      </trkpt>
      <trkpt lat="43.51919" lon="6.66388">
        <ele>239.5</ele>
        <time>2024-01-24T10:34:43+01:00</time>
      </trkpt>
      <trkpt lat="43.51924" lon="6.66388">
        <ele>239.5</ele>
        <time>2024-01-24T09:34:48.000Z</time>
      </trkpt>
      <trkpt lat="43.51929" lon="6.66388">
        <ele>239.5</ele>
        <time>2024-01-24T10:34:53+01:00</time>
      </trkpt>
      <trkpt lat="43.51934" lon="6.66387">
        <ele>239.7</ele>
        <time>2024-01-24T09:34:58.581Z</time>
      </trkpt>
      <trkpt lat="43.51938" lon="6.66387">
        <ele>239.9</ele>
        <time>2024-01-24T10:35:03+01:00</time>
      </trkpt>
      <trkpt lat="43.51943" lon="6.66388">
        <ele>239.3</ele>
        <time>2024-01-24T09:35:07.925Z</time>
      </trkpt>
      <trkpt lat="43.51948" lon="6.6639">
        <ele>239.4</ele>
        <time>2024-01-24T10:35:13+01:00</time>
      </trkpt>
      <trkpt lat="43.51952" lon="6.66395">
        <ele>239.9</ele>
        <time>2024-01-24T09:35:17.773Z</time>
      </trkpt>
      <trkpt lat="43.51956" lon="6.66401">
        <ele>240.7</ele>
        <time>2024-01-24T10:35:23+01:00</time>
      </trkpt>
      <trkpt lat="43.51953" lon="6.66406">
        <ele>240.1</ele>
        <time>2024-01-24T09:35:27.657Z</time>
      </trkpt>
      <trkpt lat="43.51949" lon="6.66411">
        <ele>239.3</ele>
        <time>2024-01-24T10:35:33+01:00</time>
      </trkpt>
      <trkpt lat="43.51946" lon="6.66417">
        <ele>238.4</ele>
        <time>2024-01-24T09:35:37.999Z</time>
      </trkpt>
      <trkpt lat="43.51943" lon="6.66423">
        <ele>238.1</ele>
        <time>2024-01-24T10:35:43+01:00</time>
      </trkpt>
      <trkpt lat="43.51941" lon="6.66431">
        <ele>238.1</ele>
        <time>2024-01-24T09:35:48.293Z</time>
      </trkpt>
      <trkpt lat="43.51939" lon="6.66438">
        <ele>238</ele>
        <time>2024-01-24T10:35:53+01:00</time>
      </trkpt>
      <trkpt lat="43.51939" lon="6.66445">
        <ele>238.2</ele>
        <time>2024-01-24T09:35:58.000Z</time>
      </trkpt>
      <trkpt lat="43.51939" lon="6.66452">
        <ele>237.8</ele>
        <time>2024-01-24T10:36:03+01:00</time>
      </trkpt>
      <trkpt lat="43.51941" lon="6.66459">
        <ele>237.9</ele>
        <time>2024-01-24T09:36:07.810Z</time>
      </trkpt>
      <trkpt lat="43.51942" lon="6.66467">
        <ele>237.9</ele>
        <time>2024-01-24T10:36:13+01:00</time>
      </trkpt>
      <trkpt lat="43.51946" lon="6.66471">
        <ele>238.7</ele>
        <time>2024-01-24T09:36:25.500Z</time>
      </trkpt>
      <trkpt lat="43.5195" lon="6.66475">
        <ele>240.1</ele>
        <time>2024-01-24T10:36:38+01:00</time>
      </trkpt>
      <trkpt lat="43.51948" lon="6.66482">
        <ele>239.7</ele>
        <time>2024-01-24T09:37:20.358Z</time>
      </trkpt>
      <trkpt lat="43.51946" lon="6.6649">
        <ele>239.6</ele>
        <time>2024-01-24T10:38:08+01:00</time>
      </trkpt>
      <trkpt lat="43.51939" lon="6.66495">
        <ele>239.1</ele>
        <time>2024-01-24T09:38:15.939Z</time>
      </trkpt>
      <trkpt lat="43.51933" lon="6.665">
        <ele>239.1</ele>
        <time>2024-01-24T10:38:23+01:00</time>
      </trkpt>
      <trkpt lat="43.51927" lon="6.66502">
        <ele>239</ele>
        <time>2024-01-24T09:38:28.424Z</time>
      </trkpt>
      <trkpt lat="43.51922" lon="6.66504">
        <ele>238.8</ele>
        <time>2024-01-24T10:38:33+01:00</time>
      </trkpt>
      <trkpt lat="43.51918" lon="6.66507">
        <ele>238.9</ele>
        <time>2024-01-24T09:38:37.999Z</time>
      </trkpt>
      <trkpt lat="43.51914" lon="6.6651">
        <ele>238.6</ele>
        <time>2024-01-24T10:38:43+01:00</time>
      </trkpt>
      <trkpt lat="43.5191" lon="6.66515">
        <ele>238.3</ele>
        <time>2024-01-24T09:38:48.640Z</time>
      </trkpt>
      <trkpt lat="43.51907" lon="6.66519">
        <ele>238.2</ele>
        <time>2024-01-24T10:38:53+01:00</time>
      </trkpt>
      <trkpt lat="43.51903" lon="6.66526">
        <ele>238.3</ele>
        <time>2024-01-24T09:38:58.229Z</time>
      </trkpt>
      <trkpt lat="43.519" lon="6.66533">
        <ele>238.2</ele>
        <time>2024-01-24T10:39:03+01:00</time>
      </trkpt>
      <trkpt lat="43.51897" lon="6.66538">
        <ele>237.9</ele>
        <time>2024-01-24T09:39:07.710Z</time>
      </trkpt>
      <trkpt lat="43.51894" lon="6.66544">
        <ele>237.6</ele>
        <time>2024-01-24T10:39:13+01:00</time>
      </trkpt>
      <trkpt lat="43.51891" lon="6.6655">
        <ele>237.2</ele>
        <time>2024-01-24T09:39:17.498Z</time>
      </trkpt>
      <trkpt lat="43.51887" lon="6.66557">
        <ele>236.8</ele>
        <time>2024-01-24T10:39:23+01:00</time>
      </trkpt>
      <trkpt lat="43.51886" lon="6.66563">
        <ele>237</ele>
        <time>2024-01-24T09:39:27.500Z</time>
      </trkpt>
      <trkpt lat="43.51884" lon="6.6657">
        <ele>237.2</ele>
        <time>2024-01-24T10:39:33+01:00</time>
      </trkpt>
      <trkpt lat="43.5189" lon="6.66569">
        <ele>238.6</ele>
        <time>2024-01-24T09:39:43.000Z</time>
      </trkpt>
      <trkpt lat="43.51896" lon="6.66568">
        <ele>239.9</ele>
        <time>2024-01-24T10:39:53+01:00</time>
      </trkpt>
      <trkpt lat="43.51899" lon="6.66564">
        <ele>240.1</ele>
        <time>2024-01-24T09:39:57.359Z</time>
      </trkpt>
      <trkpt lat="43.51903" lon="6.66559">
        <ele>240.4</ele>
        <time>2024-01-24T10:40:03+01:00</time>
      </trkpt>
      <trkpt lat="43.51908" lon="6.66555">
        <ele>241</ele>
        <time>2024-01-24T09:40:11.087Z</time>
      </trkpt>
      <trkpt lat="43.51912" lon="6.66551">
        <ele>241.8</ele>
        <time>2024-01-24T10:40:18+01:00</time>
      </trkpt>
      <trkpt lat="43.51918" lon="6.66548">
        <ele>242.7</ele>
        <time>2024-01-24T09:40:24.857Z</time>
      </trkpt>
      <trkpt lat="43.51925" lon="6.66544">
        <ele>243.1</ele>
        <time>2024-01-24T10:40:33+01:00</time>
      </trkpt>
      <trkpt lat="43.5193" lon="6.66543">
        <ele>243.8</ele>
        <time>2024-01-24T09:40:39.829Z</time>
      </trkpt>
      <trkpt lat="43.51936" lon="6.66542">
        <ele>244.5</ele>
        <time>2024-01-24T10:40:48+01:00</time>
      </trkpt>
      <trkpt lat="43.5194" lon="6.66546">
        <ele>245.4</ele>
        <time>2024-01-24T09:40:53.000Z</time>
      </trkpt>
      <trkpt lat="43.51944" lon="6.6655">
        <ele>246.3</ele>
        <time>2024-01-24T10:40:58+01:00</time>
      </trkpt>
      <trkpt lat="43.51945" lon="6.66556">
        <ele>247.2</ele>
        <time>2024-01-24T09:41:02.824Z</time>
      </trkpt>
      <trkpt lat="43.51947" lon="6.66562">
        <ele>247.9</ele>
        <time>2024-01-24T10:41:08+01:00</time>
      </trkpt>
      <trkpt lat="43.51944" lon="6.66569">
        <ele>248</ele>
        <time>2024-01-24T09:41:15.350Z</time>
      </trkpt>
      <trkpt lat="43.51942" lon="6.66577">
        <ele>248.3</ele>
        <time>2024-01-24T10:41:23+01:00</time>
      </trkpt>
      <trkpt lat="43.51938" lon="6.66581">
        <ele>248.2</ele>
        <time>2024-01-24T09:41:27.778Z</time>
      </trkpt>
      <trkpt lat="43.51934" lon="6.66586">
        <ele>248.1</ele>
        <time>2024-01-24T10:41:33+01:00</time>
      </trkpt>
      <trkpt lat="43.51929" lon="6.66592">
        <ele>248.3</ele>
        <time>2024-01-24T09:41:40.929Z</time>
      </trkpt>
      <trkpt lat="43.51925" lon="6.66598">
        <ele>248.5</ele>
        <time>2024-01-24T10:41:48+01:00</time>
      </trkpt>
      <trkpt lat="43.51922" lon="6.66604">
        <ele>248.8</ele>
        <time>2024-01-24T09:41:52.999Z</time>
      </trkpt>
      <trkpt lat="43.51919" lon="6.6661">
        <ele>249.2</ele>
        <time>2024-01-24T10:41:58+01:00</time>
      </trkpt>
      <trkpt lat="43.51922" lon="6.66615">
        <ele>249.4</ele>
        <time>2024-01-24T09:42:03.319Z</time>
      </trkpt>
      <trkpt lat="43.51924" lon="6.6662">
        <ele>249.4</ele>
        <time>2024-01-24T10:42:08+01:00</time>
      </trkpt>
      <trkpt lat="43.5193" lon="6.6662">
        <ele>250</ele>
        <time>2024-01-24T09:42:15.472Z</time>
      </trkpt>
      <trkpt lat="43.51936" lon="6.66619">
        <ele>250.6</ele>
        <time>2024-01-24T10:42:23+01:00</time>
      </trkpt>
      <trkpt lat="43.51945" lon="6.66617">
        <ele>251.7</ele>
        <time>2024-01-24T10:42:43+01:00</time>
      </trkpt>
      <trkpt lat="43.5195" lon="6.66615">
        <ele>252.3</ele>
        <time>2024-01-24T09:42:49.941Z</time>
      </trkpt>
      <trkpt lat="43.51956" lon="6.66614">
        <ele>253</ele>
        <time>2024-01-24T10:42:58+01:00</time>
      </trkpt>
      <trkpt lat="43.51961" lon="6.66614">
        <ele>253.6</ele>
        <time>2024-01-24T09:43:03.000Z</time>
      </trkpt>
      <trkpt lat="43.51966" lon="6.66614">
        <ele>254.2</ele>
        <time>2024-01-24T10:43:08+01:00</time>
      </trkpt>
      <trkpt lat="43.51973" lon="6.66612">
        <ele>255</ele>
        <time>2024-01-24T09:43:15.558Z</time>
      </trkpt>
      <trkpt lat="43.5198" lon="6.66611">
        <ele>255.8</ele>
        <time>2024-01-24T10:43:23+01:00</time>
      </trkpt>
      <trkpt lat="43.51985" lon="6.66613">
        <ele>256.3</ele>
        <time>2024-01-24T09:43:29.738Z</time>
      </trkpt>
      <trkpt lat="43.51991" lon="6.66616">
        <ele>256.9</ele>
        <time>2024-01-24T10:43:38+01:00</time>
      </trkpt>
      <trkpt lat="43.51996" lon="6.6662">
        <ele>257.4</ele>
        <time>2024-01-24T09:43:43.391Z</time>
      </trkpt>
      <trkpt lat="43.52" lon="6.66624">
        <ele>258</ele>
        <time>2024-01-24T10:43:48+01:00</time>
      </trkpt>
      <trkpt lat="43.52006" lon="6.66629">
        <ele>258.4</ele>
        <time>2024-01-24T09:43:55.208Z</time>
      </trkpt>
      <trkpt lat="43.52013" lon="6.66633">
        <ele>258.8</ele>
        <time>2024-01-24T10:44:03+01:00</time>
      </trkpt>
      <trkpt lat="43.52017" lon="6.66638">
        <ele>259.2</ele>
        <time>2024-01-24T09:44:08.221Z</time>
      </trkpt>
      <trkpt lat="43.52021" lon="6.66642">
        <ele>259.5</ele>
        <time>2024-01-24T10:44:13+01:00</time>
      </trkpt>
      <trkpt lat="43.52026" lon="6.66648">
        <ele>260.1</ele>
        <time>2024-01-24T09:44:20.764Z</time>
      </trkpt>
      <trkpt lat="43.52031" lon="6.66653">
        <ele>261</ele>
        <time>2024-01-24T10:44:28+01:00</time>
      </trkpt>
      <trkpt lat="43.52037" lon="6.66658">
        <ele>261.8</ele>
        <time>2024-01-24T09:44:35.500Z</time>
      </trkpt>
      <trkpt lat="43.52043" lon="6.66663">
        <ele>262.5</ele>
        <time>2024-01-24T10:44:43+01:00</time>
      </trkpt>
      <trkpt lat="43.52047" lon="6.66668">
        <ele>263</ele>
        <time>2024-01-24T09:44:49.996Z</time>
      </trkpt>
      <trkpt lat="43.52052" lon="6.66673">
        <ele>263.5</ele>
        <time>2024-01-24T10:44:58+01:00</time>
      </trkpt>
      <trkpt lat="43.5206" lon="6.6668">
        <ele>264.6</ele>
        <time>2024-01-24T10:45:08+01:00</time>
      </trkpt>
      <trkpt lat="43.52065" lon="6.66685">
        <ele>265.3</ele>
        <time>2024-01-24T09:45:15.748Z</time>
      </trkpt>
      <trkpt lat="43.5207" lon="6.66689">
        <ele>266.1</ele>
        <time>2024-01-24T10:45:23+01:00</time>
      </trkpt>
      <trkpt lat="43.52074" lon="6.66694">
        <ele>266.7</ele>
        <time>2024-01-24T09:45:27.829Z</time>
      </trkpt>
      <trkpt lat="43.52079" lon="6.66698">
        <ele>267.3</ele>
        <time>2024-01-24T10:45:33+01:00</time>
      </trkpt>
      <trkpt lat="43.52084" lon="6.66702">
        <ele>268.1</ele>
        <time>2024-01-24T09:45:40.718Z</time>
      </trkpt>
      <trkpt lat="43.52089" lon="6.66705">
        <ele>268.8</ele>
        <time>2024-01-24T10:45:48+01:00</time>
      </trkpt>
      <trkpt lat="43.52095" lon="6.66707">
        <ele>269.5</ele>
        <time>2024-01-24T09:45:55.964Z</time>
      </trkpt>
      <trkpt lat="43.521" lon="6.6671">
        <ele>270.1</ele>
        <time>2024-01-24T10:46:03+01:00</time>
      </trkpt>
      <trkpt lat="43.52104" lon="6.66705">
        <ele>270.7</ele>
        <time>2024-01-24T09:46:13.442Z</time>
      </trkpt>
      <trkpt lat="43.52108" lon="6.66701">
        <ele>271.4</ele>
        <time>2024-01-24T10:46:23+01:00</time>
      </trkpt>
      <trkpt lat="43.52112" lon="6.66695">
        <ele>272</ele>
        <time>2024-01-24T09:46:27.776Z</time>
      </trkpt>
      <trkpt lat="43.52116" lon="6.66688">
        <ele>272.4</ele>
        <time>2024-01-24T10:46:33+01:00</time>
      </trkpt>
      <trkpt lat="43.52121" lon="6.66682">
        <ele>272.8</ele>
        <time>2024-01-24T09:46:40.228Z</time>
      </trkpt>
      <trkpt lat="43.52126" lon="6.66675">
        <ele>273.2</ele>
        <time>2024-01-24T10:46:48+01:00</time>
      </trkpt>
      <trkpt lat="43.52128" lon="6.66666">
        <ele>273.6</ele>
        <time>2024-01-24T09:49:21.486Z</time>
      </trkpt>
      <trkpt lat="43.52131" lon="6.66657">
        <ele>274.2</ele>
        <time>2024-01-24T10:52:03+01:00</time>
      </trkpt>
      <trkpt lat="43.52135" lon="6.66651">
        <ele>274.8</ele>
        <time>2024-01-24T09:52:10.500Z</time>
      </trkpt>
      <trkpt lat="43.52139" lon="6.66645">
        <ele>275.6</ele>
        <time>2024-01-24T10:52:18+01:00</time>
      </trkpt>
      <trkpt lat="43.52145" lon="6.66641">
        <ele>276.1</ele>
        <time>2024-01-24T09:52:25.662Z</time>
      </trkpt>
      <trkpt lat="43.52151" lon="6.66638">
        <ele>276.5</ele>
        <time>2024-01-24T10:52:33+01:00</time>
      </trkpt>
      <trkpt lat="43.52157" lon="6.66636">
        <ele>277.1</ele>
        <time>2024-01-24T09:52:39.950Z</time>
      </trkpt>
      <trkpt lat="43.52164" lon="6.66634">
        <ele>277.8</ele>
        <time>2024-01-24T10:52:48+01:00</time>
      </trkpt>
      <trkpt lat="43.52168" lon="6.66632">
        <ele>278.7</ele>
        <time>2024-01-24T09:52:52.382Z</time>
      </trkpt>
      <trkpt lat="43.52173" lon="6.66629">
        <ele>279.6</ele>
        <time>2024-01-24T10:52:58+01:00</time>
      </trkpt>
      <trkpt lat="43.52178" lon="6.66629">
        <ele>280.2</ele>
        <time>2024-01-24T09:53:02.973Z</time>
      </trkpt>
      <trkpt lat="43.52183" lon="6.66628">
        <ele>280.7</ele>
        <time>2024-01-24T10:53:08+01:00</time>
      </trkpt>
      <trkpt lat="43.52189" lon="6.66629">
        <ele>280.9</ele>
        <time>2024-01-24T09:53:15.420Z</time>
      </trkpt>
      <trkpt lat="43.52195" lon="6.66631">
        <ele>281.3</ele>
        <time>2024-01-24T10:53:23+01:00</time>
      </trkpt>
      <trkpt lat="43.522" lon="6.66634">
        <ele>281.7</ele>
        <time>2024-01-24T09:53:28.449Z</time>
      </trkpt>
      <trkpt lat="43.52204" lon="6.66637">
        <ele>282.3</ele>
        <time>2024-01-24T10:53:33+01:00</time>
      </trkpt>
      <trkpt lat="43.52207" lon="6.66642">
        <ele>282.6</ele>
        <time>2024-01-24T09:53:37.432Z</time>
      </trkpt>
      <trkpt lat="43.52211" lon="6.66648">
        <ele>283</ele>
        <time>2024-01-24T10:53:43+01:00</time>
      </trkpt>
      <trkpt lat="43.52215" lon="6.66655">
        <ele>283.5</ele>
        <time>2024-01-24T09:53:50.405Z</time>
      </trkpt>
      <trkpt lat="43.5222" lon="6.66661">
        <ele>283.9</ele>
        <time>2024-01-24T10:53:58+01:00</time>
      </trkpt>
      <trkpt lat="43.52223" lon="6.66666">
        <ele>284.2</ele>
        <time>2024-01-24T09:54:03.000Z</time>
      </trkpt>
      <trkpt lat="43.52226" lon="6.66671">
        <ele>284.4</ele>
        <time>2024-01-24T10:54:08+01:00</time>
      </trkpt>
      <trkpt lat="43.5223" lon="6.66675">
        <ele>284.8</ele>
        <time>2024-01-24T09:54:13.000Z</time>
      </trkpt>
      <trkpt lat="43.52234" lon="6.66679">
        <ele>285.2</ele>
        <time>2024-01-24T10:54:18+01:00</time>
      </trkpt>
      <trkpt lat="43.5224" lon="6.66685">
        <ele>285.8</ele>
        <time>2024-01-24T09:54:25.918Z</time>
      </trkpt>
      <trkpt lat="43.52245" lon="6.66691">
        <ele>286.4</ele>
        <time>2024-01-24T10:54:33+01:00</time>
      </trkpt>
      <trkpt lat="43.52249" lon="6.66695">
        <ele>286.8</ele>
        <time>2024-01-24T09:54:37.778Z</time>
      </trkpt>
      <trkpt lat="43.52253" lon="6.667">
        <ele>287.3</ele>
        <time>2024-01-24T10:54:43+01:00</time>
      </trkpt>
      <trkpt lat="43.52256" lon="6.66704">
        <ele>287.8</ele>
        <time>2024-01-24T09:54:48.000Z</time>
      </trkpt>
      <trkpt lat="43.52259" lon="6.66708">
        <ele>288.2</ele>
        <time>2024-01-24T10:54:53+01:00</time>
      </trkpt>
      <trkpt lat="43.52263" lon="6.66714">
        <ele>288.5</ele>
        <time>2024-01-24T09:54:58.000Z</time>
      </trkpt>
      <trkpt lat="43.52267" lon="6.6672">
        <ele>288.7</ele>
        <time>2024-01-24T10:55:03+01:00</time>
      </trkpt>
      <trkpt lat="43.52271" lon="6.66724">
        <ele>289.1</ele>
        <time>2024-01-24T09:55:08.000Z</time>
      </trkpt>
      <trkpt lat="43.52275" lon="6.66728">
        <ele>289.7</ele>
        <time>2024-01-24T10:55:13+01:00</time>
      </trkpt>
      <trkpt lat="43.52279" lon="6.66734">
        <ele>290.2</ele>
        <time>2024-01-24T09:55:18.567Z</time>
      </trkpt>
      <trkpt lat="43.52282" lon="6.66739">
        <ele>290.8</ele>
        <time>2024-01-24T10:55:23+01:00</time>
      </trkpt>
      <trkpt lat="43.52286" lon="6.66744">
        <ele>291.2</ele>
        <time>2024-01-24T09:55:28.342Z</time>
      </trkpt>
      <trkpt lat="43.52289" lon="6.66749">
        <ele>291.6</ele>
        <time>2024-01-24T10:55:33+01:00</time>
      </trkpt>
      <trkpt lat="43.52292" lon="6.66755">
        <ele>291.7</ele>
        <time>2024-01-24T09:55:38.289Z</time>
      </trkpt>
      <trkpt lat="43.52295" lon="6.6676">
        <ele>291.8</ele>
        <time>2024-01-24T10:55:43+01:00</time>
      </trkpt>
      <trkpt lat="43.52298" lon="6.66765">
        <ele>291.8</ele>
        <time>2024-01-24T09:55:48.000Z</time>
      </trkpt>
      <trkpt lat="43.52301" lon="6.6677">
        <ele>291.9</ele>
        <time>2024-01-24T10:55:53+01:00</time>
      </trkpt>
      <trkpt lat="43.52305" lon="6.66774">
        <ele>292.1</ele>
        <time>2024-01-24T09:55:58.121Z</time>
      </trkpt>
      <trkpt lat="43.52308" lon="6.66779">
        <ele>292.4</ele>
        <time>2024-01-24T10:56:03+01:00</time>
      </trkpt>
      <trkpt lat="43.52313" lon="6.66783">
        <ele>293.1</ele>
        <time>2024-01-24T09:56:10.128Z</time>
      </trkpt>
      <trkpt lat="43.52319" lon="6.66786">
        <ele>293.6</ele>
        <time>2024-01-24T10:56:18+01:00</time>
      </trkpt>
      <trkpt lat="43.52324" lon="6.66786">
        <ele>294.4</ele>
        <time>2024-01-24T09:56:23.000Z</time>
      </trkpt>
      <trkpt lat="43.52329" lon="6.66786">
        <ele>295.2</ele>
        <time>2024-01-24T10:56:28+01:00</time>
      </trkpt>
      <trkpt lat="43.52333" lon="6.66783">
        <ele>296.3</ele>
        <time>2024-01-24T09:56:33.000Z</time>
      </trkpt>
      <trkpt lat="43.52337" lon="6.6678">
        <ele>296.7</ele>
        <time>2024-01-24T10:56:38+01:00</time>
      </trkpt>
      <trkpt lat="43.52341" lon="6.66773">
        <ele>297.3</ele>
        <time>2024-01-24T09:56:44.864Z</time>
      </trkpt>
      <trkpt lat="43.52346" lon="6.66765">
        <ele>297.8</ele>
        <time>2024-01-24T10:56:53+01:00</time>
      </trkpt>
      <trkpt lat="43.5235" lon="6.6676">
        <ele>298.4</ele>
        <time>2024-01-24T09:56:58.000Z</time>
      </trkpt>
      <trkpt lat="43.52354" lon="6.66755">
        <ele>299</ele>
        <time>2024-01-24T10:57:03+01:00</time>
      </trkpt>
      <trkpt lat="43.52358" lon="6.66753">
        <ele>299.5</ele>
        <time>2024-01-24T09:57:08.000Z</time>
      </trkpt>
      <trkpt lat="43.52362" lon="6.66751">
        <ele>300</ele>
        <time>2024-01-24T10:57:13+01:00</time>
      </trkpt>
      <trkpt lat="43.52368" lon="6.66751">
        <ele>300.4</ele>
        <time>2024-01-24T09:57:18.454Z</time>
      </trkpt>
      <trkpt lat="43.52373" lon="6.66751">
        <ele>300.7</ele>
        <time>2024-01-24T10:57:23+01:00</time>
      </trkpt>
      <trkpt lat="43.52378" lon="6.66752">
        <ele>301.1</ele>
        <time>2024-01-24T09:57:27.553Z</time>
      </trkpt>
      <trkpt lat="43.52384" lon="6.66753">
        <ele>301.4</ele>
        <time>2024-01-24T10:57:33+01:00</time>
      </trkpt>
      <trkpt lat="43.52389" lon="6.66753">
        <ele>301.7</ele>
        <time>2024-01-24T09:57:37.973Z</time>
      </trkpt>
      <trkpt lat="43.52394" lon="6.66754">
        <ele>302.4</ele>
        <time>2024-01-24T10:57:43+01:00</time>
      </trkpt>
      <trkpt lat="43.52399" lon="6.66757">
        <ele>302.9</ele>
        <time>2024-01-24T09:57:51.425Z</time>
      </trkpt>
      <trkpt lat="43.52403" lon="6.66759">
        <ele>303.4</ele>
        <time>2024-01-24T10:57:58+01:00</time>
      </trkpt>
      <trkpt lat="43.52408" lon="6.66764">
        <ele>303.8</ele>
        <time>2024-01-24T09:58:03.165Z</time>
      </trkpt>
      <trkpt lat="43.52413" lon="6.66768">
        <ele>304.1</ele>
        <time>2024-01-24T10:58:08+01:00</time>
      </trkpt>
      <trkpt lat="43.52416" lon="6.66773">
        <ele>304.3</ele>
        <time>2024-01-24T09:58:12.878Z</time>
      </trkpt>
      <trkpt lat="43.5242" lon="6.66777">
        <ele>304.6</ele>
        <time>2024-01-24T10:58:18+01:00</time>
      </trkpt>
      <trkpt lat="43.52425" lon="6.66782">
        <ele>305.2</ele>
        <time>2024-01-24T09:58:25.748Z</time>
      </trkpt>
      <trkpt lat="43.5243" lon="6.66786">
        <ele>305.9</ele>
        <time>2024-01-24T10:58:33+01:00</time>
      </trkpt>
      <trkpt lat="43.52435" lon="6.66791">
        <ele>306.7</ele>
        <time>2024-01-24T09:58:40.214Z</time>
      </trkpt>
      <trkpt lat="43.52441" lon="6.66795">
        <ele>307.5</ele>
        <time>2024-01-24T10:58:48+01:00</time>
      </trkpt>
      <trkpt lat="43.52447" lon="6.66797">
        <ele>308.3</ele>
        <time>2024-01-24T09:58:54.950Z</time>
      </trkpt>
      <trkpt lat="43.52454" lon="6.66799">
        <ele>309.1</ele>
        <time>2024-01-24T10:59:03+01:00</time>
      </trkpt>
      <trkpt lat="43.52459" lon="6.66799">
        <ele>309.7</ele>
        <time>2024-01-24T09:59:08.000Z</time>
      </trkpt>
      <trkpt lat="43.52464" lon="6.66799">
        <ele>310.3</ele>
        <time>2024-01-24T10:59:13+01:00</time>
      </trkpt>
      <trkpt lat="43.5247" lon="6.66797">
        <ele>311</ele>
        <time>2024-01-24T09:59:21.137Z</time>
      </trkpt>
      <trkpt lat="43.52475" lon="6.66795">
        <ele>311.7</ele>
        <time>2024-01-24T10:59:28+01:00</time>
      </trkpt>
      <trkpt lat="43.52481" lon="6.66793">
        <ele>312.3</ele>
        <time>2024-01-24T09:59:35.964Z</time>
      </trkpt>
      <trkpt lat="43.52486" lon="6.6679">
        <ele>313.1</ele>
        <time>2024-01-24T10:59:43+01:00</time>
      </trkpt>
      <trkpt lat="43.5249" lon="6.66787">
        <ele>313.8</ele>
        <time>2024-01-24T09:59:48.000Z</time>
      </trkpt>
      <trkpt lat="43.52494" lon="6.66784">
        <ele>314.6</ele>
        <time>2024-01-24T10:59:53+01:00</time>
      </trkpt>
      <trkpt lat="43.52499" lon="6.66781">
        <ele>315.4</ele>
        <time>2024-01-24T09:59:58.449Z</time>
      </trkpt>
      <trkpt lat="43.52503" lon="6.66778">
        <ele>316.2</ele>
        <time>2024-01-24T11:00:03+01:00</time>
      </trkpt>
      <trkpt lat="43.52507" lon="6.66775">
        <ele>316.5</ele>
        <time>2024-01-24T10:00:08.169Z</time>
      </trkpt>
      <trkpt lat="43.52511" lon="6.66773">
        <ele>316.9</ele>
        <time>2024-01-24T11:00:13+01:00</time>
      </trkpt>
      <trkpt lat="43.52515" lon="6.66769">
        <ele>317.2</ele>
        <time>2024-01-24T10:00:18.204Z</time>
      </trkpt>
      <trkpt lat="43.52519" lon="6.66766">
        <ele>317.6</ele>
        <time>2024-01-24T11:00:23+01:00</time>
      </trkpt>
      <trkpt lat="43.52525" lon="6.66763">
        <ele>318.3</ele>
        <time>2024-01-24T10:00:30.337Z</time>
      </trkpt>
      <trkpt lat="43.52531" lon="6.66759">
        <ele>319.1</ele>
        <time>2024-01-24T11:00:38+01:00</time>
      </trkpt>
      <trkpt lat="43.52537" lon="6.66756">
        <ele>320</ele>
        <time>2024-01-24T10:00:46.089Z</time>
      </trkpt>
      <trkpt lat="43.52542" lon="6.66753">
        <ele>320.6</ele>
        <time>2024-01-24T11:00:53+01:00</time>
      </trkpt>
      <trkpt lat="43.52548" lon="6.6675">
        <ele>321.2</ele>
        <time>2024-01-24T10:01:00.337Z</time>
      </trkpt>
      <trkpt lat="43.52554" lon="6.66746">
        <ele>321.8</ele>
        <time>2024-01-24T11:01:08+01:00</time>
      </trkpt>
      <trkpt lat="43.5256" lon="6.66743">
        <ele>322.7</ele>
        <time>2024-01-24T10:01:15.500Z</time>
      </trkpt>
      <trkpt lat="43.52566" lon="6.6674">
        <ele>323.7</ele>
        <time>2024-01-24T11:01:23+01:00</time>
      </trkpt>
      <trkpt lat="43.52571" lon="6.66738">
        <ele>324.5</ele>
        <time>2024-01-24T10:01:30.326Z</time>
      </trkpt>
      <trkpt lat="43.52576" lon="6.66735">
        <ele>325.2</ele>
        <time>2024-01-24T11:01:38+01:00</time>
      </trkpt>
      <trkpt lat="43.5258" lon="6.66731">
        <ele>325.9</ele>
        <time>2024-01-24T10:01:42.753Z</time>
      </trkpt>
      <trkpt lat="43.52585" lon="6.66728">
        <ele>326.4</ele>
        <time>2024-01-24T11:01:48+01:00</time>
      </trkpt>
      <trkpt lat="43.52591" lon="6.66724">
        <ele>326.9</ele>
        <time>2024-01-24T10:01:55.662Z</time>
      </trkpt>
      <trkpt lat="43.52597" lon="6.66721">
        <ele>327.5</ele>
        <time>2024-01-24T11:02:03+01:00</time>
      </trkpt>
      <trkpt lat="43.526" lon="6.66718">
        <ele>328.1</ele>
        <time>2024-01-24T10:02:07.285Z</time>
      </trkpt>
      <trkpt lat="43.52604" lon="6.66714">
        <ele>328.8</ele>
        <time>2024-01-24T11:02:13+01:00</time>
      </trkpt>
      <trkpt lat="43.52607" lon="6.66721">
        <ele>328.6</ele>
        <time>2024-01-24T10:03:13.702Z</time>
      </trkpt>
      <trkpt lat="43.52609" lon="6.66727">
        <ele>329.1</ele>
        <time>2024-01-24T11:04:03+01:00</time>
      </trkpt>
      <trkpt lat="43.52612" lon="6.66732">
        <ele>329.6</ele>
        <time>2024-01-24T10:04:08.319Z</time>
      </trkpt>
      <trkpt lat="43.52614" lon="6.66737">
        <ele>329.6</ele>
        <time>2024-01-24T11:04:13+01:00</time>
      </trkpt>
      <trkpt lat="43.52615" lon="6.66744">
        <ele>330</ele>
        <time>2024-01-24T10:04:20.571Z</time>
      </trkpt>
      <trkpt lat="43.52615" lon="6.66751">
        <ele>330.4</ele>
        <time>2024-01-24T11:04:28+01:00</time>
      </trkpt>
      <trkpt lat="43.52616" lon="6.66758">
        <ele>331.5</ele>
        <time>2024-01-24T10:04:35.500Z</time>
      </trkpt>
      <trkpt lat="43.52617" lon="6.66765">
        <ele>332.7</ele>
        <time>2024-01-24T11:04:43+01:00</time>
      </trkpt>
      <trkpt lat="43.52618" lon="6.66771">
        <ele>333.7</ele>
        <time>2024-01-24T10:04:50.500Z</time>
      </trkpt>
      <trkpt lat="43.52619" lon="6.66777">
        <ele>334.7</ele>
        <time>2024-01-24T11:04:58+01:00</time>
      </trkpt>
      <trkpt lat="43.5262" lon="6.66783">
        <ele>335.1</ele>
        <time>2024-01-24T10:05:04.948Z</time>
      </trkpt>
      <trkpt lat="43.52621" lon="6.6679">
        <ele>335.5</ele>
        <time>2024-01-24T11:05:13+01:00</time>
      </trkpt>
      <trkpt lat="43.52619" lon="6.66797">
        <ele>336.2</ele>
        <time>2024-01-24T10:05:20.699Z</time>
      </trkpt>
      <trkpt lat="43.52618" lon="6.66804">
        <ele>336.9</ele>
        <time>2024-01-24T11:05:28+01:00</time>
      </trkpt>
      <trkpt lat="43.52617" lon="6.66814">
        <ele>337.2</ele>
        <time>2024-01-24T10:05:35.929Z</time>
      </trkpt>
      <trkpt lat="43.52617" lon="6.66823">
        <ele>337.3</ele>
        <time>2024-01-24T11:05:43+01:00</time>
      </trkpt>
      <trkpt lat="43.52617" lon="6.6683">
        <ele>337.3</ele>
        <time>2024-01-24T10:05:48.384Z</time>
      </trkpt>
      <trkpt lat="43.52617" lon="6.66836">
        <ele>337.4</ele>
        <time>2024-01-24T11:05:53+01:00</time>
      </trkpt>
      <trkpt lat="43.52618" lon="6.66845">
        <ele>337.5</ele>
        <time>2024-01-24T10:06:00.543Z</time>
      </trkpt>
      <trkpt lat="43.52618" lon="6.66854">
        <ele>337.6</ele>
        <time>2024-01-24T11:06:08+01:00</time>
      </trkpt>
      <trkpt lat="43.52619" lon="6.66861">
        <ele>337.8</ele>
        <time>2024-01-24T10:06:13.047Z</time>
      </trkpt>
      <trkpt lat="43.52619" lon="6.66868">
        <ele>338.5</ele>
        <time>2024-01-24T11:06:18+01:00</time>
      </trkpt>
      <trkpt lat="43.52619" lon="6.66877">
        <ele>339.4</ele>
        <time>2024-01-24T10:06:25.886Z</time>
      </trkpt>
      <trkpt lat="43.5262" lon="6.66885">
        <ele>340.3</ele>
        <time>2024-01-24T11:06:33+01:00</time>
      </trkpt>
      <trkpt lat="43.52621" lon="6.66892">
        <ele>341.2</ele>
        <time>2024-01-24T10:06:40.300Z</time>
      </trkpt>
      <trkpt lat="43.52623" lon="6.66899">
        <ele>342.3</ele>
        <time>2024-01-24T11:06:48+01:00</time>
      </trkpt>
      <trkpt lat="43.52621" lon="6.66907">
        <ele>343.8</ele>
        <time>2024-01-24T10:06:55.649Z</time>
      </trkpt>
      <trkpt lat="43.52618" lon="6.66914">
        <ele>345.3</ele>
        <time>2024-01-24T11:07:03+01:00</time>
      </trkpt>
      <trkpt lat="43.52616" lon="6.66922">
        <ele>346.9</ele>
        <time>2024-01-24T10:07:13.199Z</time>
      </trkpt>
      <trkpt lat="43.52613" lon="6.66929">
        <ele>348.6</ele>
        <time>2024-01-24T11:07:23+01:00</time>
      </trkpt>
      <trkpt lat="43.52611" lon="6.66936">
        <ele>350.2</ele>
        <time>2024-01-24T10:07:33.265Z</time>
      </trkpt>
      <trkpt lat="43.5261" lon="6.66943">
        <ele>351.4</ele>
        <time>2024-01-24T11:07:43+01:00</time>
      </trkpt>
      <trkpt lat="43.52607" lon="6.66949">
        <ele>352.6</ele>
        <time>2024-01-24T10:07:54.246Z</time>
      </trkpt>
      <trkpt lat="43.52603" lon="6.66956">
        <ele>353.7</ele>
        <time>2024-01-24T11:08:08+01:00</time>
      </trkpt>
      <trkpt lat="43.526" lon="6.66963">
        <ele>355.1</ele>
        <time>2024-01-24T10:08:17.999Z</time>
      </trkpt>
      <trkpt lat="43.52597" lon="6.6697">
        <ele>356.3</ele>
        <time>2024-01-24T11:08:28+01:00</time>
      </trkpt>
      <trkpt lat="43.52595" lon="6.66977">
        <ele>357.9</ele>
        <time>2024-01-24T10:08:40.499Z</time>
      </trkpt>
      <trkpt lat="43.52593" lon="6.66984">
        <ele>359.3</ele>
        <time>2024-01-24T11:08:53+01:00</time>
      </trkpt>
      <trkpt lat="43.5259" lon="6.6699">
        <ele>360.3</ele>
        <time>2024-01-24T10:09:53.333Z</time>
      </trkpt>
      <trkpt lat="43.52588" lon="6.66996">
        <ele>361.2</ele>
        <time>2024-01-24T11:10:48+01:00</time>
      </trkpt>
      <trkpt lat="43.52585" lon="6.67003">
        <ele>362.2</ele>
        <time>2024-01-24T10:10:58.546Z</time>
      </trkpt>
      <trkpt lat="43.52582" lon="6.67009">
        <ele>363.5</ele>
        <time>2024-01-24T11:11:08+01:00</time>
      </trkpt>
      <trkpt lat="43.5258" lon="6.67015">
        <ele>364.9</ele>
        <time>2024-01-24T10:11:15.499Z</time>
      </trkpt>
      <trkpt lat="43.52578" lon="6.67021">
        <ele>366.3</ele>
        <time>2024-01-24T11:11:23+01:00</time>
      </trkpt>
      <trkpt lat="43.52576" lon="6.67027">
        <ele>367.9</ele>
        <time>2024-01-24T10:11:33.350Z</time>
      </trkpt>
      <trkpt lat="43.52575" lon="6.67033">
        <ele>369.2</ele>
        <time>2024-01-24T11:11:43+01:00</time>
      </trkpt>
      <trkpt lat="43.52576" lon="6.6704">
        <ele>370.9</ele>
        <time>2024-01-24T10:11:53.095Z</time>
      </trkpt>
      <trkpt lat="43.52576" lon="6.67047">
        <ele>372.6</ele>
        <time>2024-01-24T11:12:03+01:00</time>
      </trkpt>
      <trkpt lat="43.52577" lon="6.67055">
        <ele>374.4</ele>
        <time>2024-01-24T10:12:13.644Z</time>
      </trkpt>
      <trkpt lat="43.52578" lon="6.67062">
        <ele>375.7</ele>
        <time>2024-01-24T11:12:23+01:00</time>
      </trkpt>
      <trkpt lat="43.5258" lon="6.6707">
        <ele>376.9</ele>
        <time>2024-01-24T10:12:33.586Z</time>
      </trkpt>
      <trkpt lat="43.52582" lon="6.67077">
        <ele>378.1</ele>
        <time>2024-01-24T11:12:43+01:00</time>
      </trkpt>
      <trkpt lat="43.52582" lon="6.67085">
        <ele>379.1</ele>
        <time>2024-01-24T10:12:53.000Z</time>
      </trkpt>
      <trkpt lat="43.52582" lon="6.67093">
        <ele>379.7</ele>
        <time>2024-01-24T11:13:03+01:00</time>
      </trkpt>
      <trkpt lat="43.52583" lon="6.671">
        <ele>380.2</ele>
        <time>2024-01-24T10:13:11.051Z</time>
      </trkpt>
      <trkpt lat="43.52584" lon="6.67106">
        <ele>380.6</ele>
        <time>2024-01-24T11:13:18+01:00</time>
      </trkpt>
      <trkpt lat="43.52583" lon="6.67114">
        <ele>381</ele>
        <time>2024-01-24T10:13:25.784Z</time>
      </trkpt>
      <trkpt lat="43.52581" lon="6.67121">
        <ele>381</ele>
        <time>2024-01-24T11:13:33+01:00</time>
      </trkpt>
      <trkpt lat="43.52579" lon="6.67127">
        <ele>381.1</ele>
        <time>2024-01-24T10:13:42.999Z</time>
      </trkpt>
      <trkpt lat="43.52577" lon="6.67133">
        <ele>381.4</ele>
        <time>2024-01-24T11:13:53+01:00</time>
      </trkpt>
      <trkpt lat="43.52576" lon="6.67142">
        <ele>381.3</ele>
        <time>2024-01-24T10:14:50.012Z</time>
      </trkpt>
      <trkpt lat="43.52574" lon="6.6715">
        <ele>380.9</ele>
        <time>2024-01-24T11:15:43+01:00</time>
      </trkpt>
      <trkpt lat="43.52573" lon="6.67158">
        <ele>380.3</ele>
        <time>2024-01-24T10:15:50.499Z</time>
      </trkpt>
      <trkpt lat="43.52572" lon="6.67166">
        <ele>379.8</ele>
        <time>2024-01-24T11:15:58+01:00</time>
      </trkpt>
      <trkpt lat="43.5257" lon="6.67174">
        <ele>379.1</ele>
        <time>2024-01-24T10:16:05.499Z</time>
      </trkpt>
      <trkpt lat="43.52568" lon="6.67182">
        <ele>378.3</ele>
        <time>2024-01-24T11:16:13+01:00</time>
      </trkpt>
      <trkpt lat="43.52566" lon="6.6719">
        <ele>377.3</ele>
        <time>2024-01-24T10:16:20.266Z</time>
      </trkpt>
      <trkpt lat="43.52563" lon="6.67198">
        <ele>376.4</ele>
        <time>2024-01-24T11:16:28+01:00</time>
      </trkpt>
      <trkpt lat="43.52561" lon="6.67204">
        <ele>376</ele>
        <time>2024-01-24T10:16:32.753Z</time>
      </trkpt>
      <trkpt lat="43.52558" lon="6.6721">
        <ele>375.6</ele>
        <time>2024-01-24T11:16:38+01:00</time>
      </trkpt>
      <trkpt lat="43.52556" lon="6.67216">
        <ele>375.1</ele>
        <time>2024-01-24T10:16:42.999Z</time>
      </trkpt>
      <trkpt lat="43.52554" lon="6.67222">
        <ele>374.2</ele>
        <time>2024-01-24T11:16:48+01:00</time>
      </trkpt>
      <trkpt lat="43.52553" lon="6.67228">
        <ele>373.6</ele>
        <time>2024-01-24T10:16:52.999Z</time>
      </trkpt>
      <trkpt lat="43.52552" lon="6.67234">
        <ele>372.9</ele>
        <time>2024-01-24T11:16:58+01:00</time>
      </trkpt>
      <trkpt lat="43.52551" lon="6.67243">
        <ele>372</ele>
        <time>2024-01-24T10:17:05.984Z</time>
      </trkpt>
      <trkpt lat="43.52551" lon="6.67251">
        <ele>371.1</ele>
        <time>2024-01-24T11:17:13+01:00</time>
      </trkpt>
      <trkpt lat="43.52552" lon="6.67257">
        <ele>371</ele>
        <time>2024-01-24T10:17:18.000Z</time>
      </trkpt>
      <trkpt lat="43.52553" lon="6.67263">
        <ele>370.9</ele>
        <time>2024-01-24T11:17:23+01:00</time>
      </trkpt>
      <trkpt lat="43.52555" lon="6.6727">
        <ele>371</ele>
        <time>2024-01-24T10:17:28.325Z</time>
      </trkpt>
      <trkpt lat="43.52557" lon="6.67276">
        <ele>371</ele>
        <time>2024-01-24T11:17:33+01:00</time>
      </trkpt>
      <trkpt lat="43.52558" lon="6.67283">
        <ele>371.5</ele>
        <time>2024-01-24T10:17:44.694Z</time>
      </trkpt>
      <trkpt lat="43.52559" lon="6.67291">
        <ele>372.1</ele>
        <time>2024-01-24T11:17:58+01:00</time>
      </trkpt>
      <trkpt lat="43.52563" lon="6.67297">
        <ele>372.8</ele>
        <time>2024-01-24T10:18:05.500Z</time>
      </trkpt>
      <trkpt lat="43.52567" lon="6.67303">
        <ele>373.6</ele>
        <time>2024-01-24T11:18:13+01:00</time>
      </trkpt>
      <trkpt lat="43.52571" lon="6.67306">
        <ele>374.1</ele>
        <time>2024-01-24T10:18:20.193Z</time>
      </trkpt>
      <trkpt lat="43.52575" lon="6.6731">
        <ele>374.6</ele>
        <time>2024-01-24T11:18:28+01:00</time>
      </trkpt>
      <trkpt lat="43.52578" lon="6.67314">
        <ele>375.1</ele>
        <time>2024-01-24T10:18:32.699Z</time>
      </trkpt>
      <trkpt lat="43.52581" lon="6.67319">
        <ele>375.7</ele>
        <time>2024-01-24T11:18:38+01:00</time>
      </trkpt>
      <trkpt lat="43.52585" lon="6.67326">
        <ele>376.6</ele>
        <time>2024-01-24T10:18:45.460Z</time>
      </trkpt>
      <trkpt lat="43.52588" lon="6.67334">
        <ele>377.3</ele>
        <time>2024-01-24T11:18:53+01:00</time>
      </trkpt>
      <trkpt lat="43.52592" lon="6.6734">
        <ele>377.3</ele>
        <time>2024-01-24T10:19:00.070Z</time>
      </trkpt>
      <trkpt lat="43.52597" lon="6.67346">
        <ele>377.5</ele>
        <time>2024-01-24T11:19:08+01:00</time>
      </trkpt>
      <trkpt lat="43.52599" lon="6.67351">
        <ele>377.6</ele>
        <time>2024-01-24T10:19:12.680Z</time>
      </trkpt>
      <trkpt lat="43.52602" lon="6.67356">
        <ele>377.9</ele>
        <time>2024-01-24T11:19:18+01:00</time>
      </trkpt>
      <trkpt lat="43.52607" lon="6.67363">
        <ele>378.2</ele>
        <time>2024-01-24T10:19:26.199Z</time>
      </trkpt>
      <trkpt lat="43.52611" lon="6.67369">
        <ele>378.4</ele>
        <time>2024-01-24T11:19:33+01:00</time>
      </trkpt>
      <trkpt lat="43.52616" lon="6.67376">
        <ele>378.7</ele>
        <time>2024-01-24T10:19:40.865Z</time>
      </trkpt>
      <trkpt lat="43.5262" lon="6.67383">
        <ele>379.2</ele>
        <time>2024-01-24T11:19:48+01:00</time>
      </trkpt>
      <trkpt lat="43.52622" lon="6.67389">
        <ele>379.4</ele>
        <time>2024-01-24T10:19:52.481Z</time>
      </trkpt>
      <trkpt lat="43.52625" lon="6.67396">
        <ele>380.1</ele>
        <time>2024-01-24T11:19:58+01:00</time>
      </trkpt>
      <trkpt lat="43.52625" lon="6.67402">
        <ele>380.2</ele>
        <time>2024-01-24T10:20:02.615Z</time>
      </trkpt>
      <trkpt lat="43.52625" lon="6.67409">
        <ele>380.3</ele>
        <time>2024-01-24T11:20:08+01:00</time>
      </trkpt>
      <trkpt lat="43.52624" lon="6.67418">
        <ele>380.4</ele>
        <time>2024-01-24T10:20:15.499Z</time>
      </trkpt>
      <trkpt lat="43.52623" lon="6.67427">
        <ele>380.8</ele>
        <time>2024-01-24T11:20:23+01:00</time>
      </trkpt>
      <trkpt lat="43.52622" lon="6.67435">
        <ele>381</ele>
        <time>2024-01-24T10:20:46.354Z</time>
      </trkpt>
      <trkpt lat="43.5262" lon="6.67442">
        <ele>381.1</ele>
        <time>2024-01-24T11:21:08+01:00</time>
      </trkpt>
      <trkpt lat="43.52619" lon="6.67449">
        <ele>381.4</ele>
        <time>2024-01-24T10:21:13.367Z</time>
      </trkpt>
      <trkpt lat="43.52618" lon="6.67455">
        <ele>381.8</ele>
        <time>2024-01-24T11:21:18+01:00</time>
      </trkpt>
      <trkpt lat="43.52616" lon="6.67461">
        <ele>382</ele>
        <time>2024-01-24T10:21:23.175Z</time>
      </trkpt>
      <trkpt lat="43.52615" lon="6.67467">
        <ele>382.2</ele>
        <time>2024-01-24T11:21:28+01:00</time>
      </trkpt>
      <trkpt lat="43.52613" lon="6.67477">
        <ele>382.6</ele>
        <time>2024-01-24T10:21:35.863Z</time>
      </trkpt>
      <trkpt lat="43.52611" lon="6.67486">
        <ele>382.9</ele>
        <time>2024-01-24T11:21:43+01:00</time>
      </trkpt>
      <trkpt lat="43.52609" lon="6.67492">
        <ele>383.1</ele>
        <time>2024-01-24T10:21:47.999Z</time>
      </trkpt>
      <trkpt lat="43.52607" lon="6.67498">
        <ele>383.3</ele>
        <time>2024-01-24T11:21:53+01:00</time>
      </trkpt>
      <trkpt lat="43.52606" lon="6.67505">
        <ele>383.6</ele>
        <time>2024-01-24T10:22:00.016Z</time>
      </trkpt>
      <trkpt lat="43.52605" lon="6.67513">
        <ele>384</ele>
        <time>2024-01-24T11:22:08+01:00</time>
      </trkpt>
      <trkpt lat="43.52604" lon="6.67522">
        <ele>384.5</ele>
        <time>2024-01-24T10:22:15.929Z</time>
      </trkpt>
      <trkpt lat="43.52603" lon="6.6753">
        <ele>385</ele>
        <time>2024-01-24T11:22:23+01:00</time>
      </trkpt>
      <trkpt lat="43.52602" lon="6.67539">
        <ele>385.6</ele>
        <time>2024-01-24T10:22:30.499Z</time>
      </trkpt>
      <trkpt lat="43.52601" lon="6.67548">
        <ele>386.2</ele>
        <time>2024-01-24T11:22:38+01:00</time>
      </trkpt>
      <trkpt lat="43.526" lon="6.67557">
        <ele>386.8</ele>
        <time>2024-01-24T10:22:45.375Z</time>
      </trkpt>
      <trkpt lat="43.52598" lon="6.67566">
        <ele>387.2</ele>
        <time>2024-01-24T11:22:53+01:00</time>
      </trkpt>
      <trkpt lat="43.52597" lon="6.67576">
        <ele>387.6</ele>
        <time>2024-01-24T10:23:00.886Z</time>
      </trkpt>
      <trkpt lat="43.52596" lon="6.67585">
        <ele>388</ele>
        <time>2024-01-24T11:23:08+01:00</time>
      </trkpt>
      <trkpt lat="43.52595" lon="6.67592">
        <ele>388.3</ele>
        <time>2024-01-24T10:23:13.367Z</time>
      </trkpt>
      <trkpt lat="43.52594" lon="6.67598">
        <ele>388.6</ele>
        <time>2024-01-24T11:23:18+01:00</time>
      </trkpt>
      <trkpt lat="43.52592" lon="6.67604">
        <ele>388.7</ele>
        <time>2024-01-24T10:23:22.999Z</time>
      </trkpt>
      <trkpt lat="43.5259" lon="6.6761">
        <ele>388.9</ele>
        <time>2024-01-24T11:23:28+01:00</time>
      </trkpt>
      <trkpt lat="43.52586" lon="6.67614">
        <ele>388.5</ele>
        <time>2024-01-24T10:23:32.999Z</time>
      </trkpt>
      <trkpt lat="43.52582" lon="6.67618">
        <ele>388.1</ele>
        <time>2024-01-24T11:23:38+01:00</time>
      </trkpt>
      <trkpt lat="43.52577" lon="6.67624">
        <ele>388</ele>
        <time>2024-01-24T10:23:47.999Z</time>
      </trkpt>
      <trkpt lat="43.52572" lon="6.6763">
        <ele>387.9</ele>
        <time>2024-01-24T11:23:58+01:00</time>
      </trkpt>
      <trkpt lat="43.52571" lon="6.67637">
        <ele>388</ele>
        <time>2024-01-24T10:24:02.999Z</time>
      </trkpt>
      <trkpt lat="43.5257" lon="6.67644">
        <ele>387.8</ele>
        <time>2024-01-24T11:24:08+01:00</time>
      </trkpt>
      <trkpt lat="43.52571" lon="6.67653">
        <ele>387.4</ele>
        <time>2024-01-24T10:24:15.500Z</time>
      </trkpt>
      <trkpt lat="43.52572" lon="6.67662">
        <ele>387</ele>
        <time>2024-01-24T11:24:23+01:00</time>
      </trkpt>
      <trkpt lat="43.52572" lon="6.67669">
        <ele>386.5</ele>
        <time>2024-01-24T10:24:27.952Z</time>
      </trkpt>
      <trkpt lat="43.52573" lon="6.67676">
        <ele>385.6</ele>
        <time>2024-01-24T11:24:33+01:00</time>
      </trkpt>
      <trkpt lat="43.52575" lon="6.67682">
        <ele>385</ele>
        <time>2024-01-24T10:24:37.753Z</time>
      </trkpt>
      <trkpt lat="43.52578" lon="6.67688">
        <ele>384.4</ele>
        <time>2024-01-24T11:24:43+01:00</time>
      </trkpt>
      <trkpt lat="43.52581" lon="6.67694">
        <ele>383.8</ele>
        <time>2024-01-24T10:24:48.000Z</time>
      </trkpt>
      <trkpt lat="43.52584" lon="6.677">
        <ele>383.3</ele>
        <time>2024-01-24T11:24:53+01:00</time>
      </trkpt>
      <trkpt lat="43.52589" lon="6.67706">
        <ele>383.1</ele>
        <time>2024-01-24T10:25:00.764Z</time>
      </trkpt>
      <trkpt lat="43.52594" lon="6.67711">
        <ele>382.8</ele>
        <time>2024-01-24T11:25:08+01:00</time>
      </trkpt>
      <trkpt lat="43.52598" lon="6.67715">
        <ele>382.8</ele>
        <time>2024-01-24T10:25:13.000Z</time>
      </trkpt>
      <trkpt lat="43.52602" lon="6.67719">
        <ele>382.7</ele>
        <time>2024-01-24T11:25:18+01:00</time>
      </trkpt>
      <trkpt lat="43.52608" lon="6.67724">
        <ele>382.3</ele>
        <time>2024-01-24T10:25:25.974Z</time>
      </trkpt>
      <trkpt lat="43.52613" lon="6.67729">
        <ele>381.9</ele>
        <time>2024-01-24T11:25:33+01:00</time>
      </trkpt>
      <trkpt lat="43.52617" lon="6.67734">
        <ele>381.4</ele>
        <time>2024-01-24T10:25:37.773Z</time>
      </trkpt>
      <trkpt lat="43.52621" lon="6.6774">
        <ele>380.9</ele>
        <time>2024-01-24T11:25:43+01:00</time>
      </trkpt>
      <trkpt lat="43.52625" lon="6.67746">
        <ele>380.4</ele>
        <time>2024-01-24T10:25:48.000Z</time>
      </trkpt>
      <trkpt lat="43.52629" lon="6.67752">
        <ele>380.1</ele>
        <time>2024-01-24T11:25:53+01:00</time>
      </trkpt>
      <trkpt lat="43.52633" lon="6.67757">
        <ele>380.3</ele>
        <time>2024-01-24T10:26:03.000Z</time>
      </trkpt>
      <trkpt lat="43.52637" lon="6.67762">
        <ele>380.5</ele>
        <time>2024-01-24T11:26:13+01:00</time>
      </trkpt>
      <trkpt lat="43.5264" lon="6.67768">
        <ele>380.3</ele>
        <time>2024-01-24T10:26:18.000Z</time>
      </trkpt>
      <trkpt lat="43.52643" lon="6.67774">
        <ele>380.1</ele>
        <time>2024-01-24T11:26:23+01:00</time>
      </trkpt>
      <trkpt lat="43.52638" lon="6.6778">
        <ele>379.3</ele>
        <time>2024-01-24T10:26:30.228Z</time>
      </trkpt>
      <trkpt lat="43.52633" lon="6.67787">
        <ele>379.7</ele>
        <time>2024-01-24T11:26:38+01:00</time>
      </trkpt>
      <trkpt lat="43.52629" lon="6.67791">
        <ele>379.8</ele>
        <time>2024-01-24T10:26:42.608Z</time>
      </trkpt>
      <trkpt lat="43.52624" lon="6.67795">
        <ele>379.9</ele>
        <time>2024-01-24T11:26:48+01:00</time>
      </trkpt>
      <trkpt lat="43.5262" lon="6.67798">
        <ele>379.9</ele>
        <time>2024-01-24T10:26:52.795Z</time>
      </trkpt>
      <trkpt lat="43.52616" lon="6.67802">
        <ele>379.9</ele>
        <time>2024-01-24T11:26:58+01:00</time>
      </trkpt>
      <trkpt lat="43.52613" lon="6.67806">
        <ele>380.3</ele>
        <time>2024-01-24T10:27:02.699Z</time>
      </trkpt>
      <trkpt lat="43.5261" lon="6.67811">
        <ele>380.8</ele>
        <time>2024-01-24T11:27:08+01:00</time>
      </trkpt>
      <trkpt lat="43.52606" lon="6.67814">
        <ele>380.3</ele>
        <time>2024-01-24T10:28:11.707Z</time>
      </trkpt>
      <trkpt lat="43.52601" lon="6.67817">
        <ele>379.8</ele>
        <time>2024-01-24T11:29:28+01:00</time>
      </trkpt>
      <trkpt lat="43.52599" lon="6.67822">
        <ele>380</ele>
        <time>2024-01-24T10:29:32.680Z</time>
      </trkpt>
      <trkpt lat="43.52596" lon="6.67827">
        <ele>380</ele>
        <time>2024-01-24T11:29:38+01:00</time>
      </trkpt>
      <trkpt lat="43.52593" lon="6.67832">
        <ele>380.2</ele>
        <time>2024-01-24T10:29:45.065Z</time>
      </trkpt>
      <trkpt lat="43.5259" lon="6.67838">
        <ele>379.9</ele>
        <time>2024-01-24T11:29:53+01:00</time>
      </trkpt>
      <trkpt lat="43.52588" lon="6.67845">
        <ele>379.6</ele>
        <time>2024-01-24T10:30:02.103Z</time>
      </trkpt>
      <trkpt lat="43.52585" lon="6.67853">
        <ele>379.3</ele>
        <time>2024-01-24T11:30:13+01:00</time>
      </trkpt>
      <trkpt lat="43.52584" lon="6.6786">
        <ele>379.1</ele>
        <time>2024-01-24T10:30:17.867Z</time>
      </trkpt>
      <trkpt lat="43.52582" lon="6.67867">
        <ele>378.2</ele>
        <time>2024-01-24T11:30:23+01:00</time>
      </trkpt>
      <trkpt lat="43.52582" lon="6.67874">
        <ele>377.6</ele>
        <time>2024-01-24T10:30:27.666Z</time>
      </trkpt>
      <trkpt lat="43.52582" lon="6.67882">
        <ele>377</ele>
        <time>2024-01-24T11:30:33+01:00</time>
      </trkpt>
      <trkpt lat="43.52582" lon="6.67889">
        <ele>376.5</ele>
        <time>2024-01-24T10:30:37.666Z</time>
      </trkpt>
      <trkpt lat="43.52582" lon="6.67897">
        <ele>376.1</ele>
        <time>2024-01-24T11:30:43+01:00</time>
      </trkpt>
      <trkpt lat="43.52583" lon="6.67904">
        <ele>375.8</ele>
        <time>2024-01-24T10:30:47.677Z</time>
      </trkpt>
      <trkpt lat="43.52584" lon="6.67912">
        <ele>375.5</ele>
        <time>2024-01-24T11:30:53+01:00</time>
      </trkpt>
      <trkpt lat="43.52585" lon="6.67918">
        <ele>375.2</ele>
        <time>2024-01-24T10:30:58.064Z</time>
      </trkpt>
      <trkpt lat="43.52585" lon="6.67924">
        <ele>374.6</ele>
        <time>2024-01-24T11:31:03+01:00</time>
      </trkpt>
      <trkpt lat="43.52587" lon="6.67931">
        <ele>374.2</ele>
        <time>2024-01-24T10:31:08.325Z</time>
      </trkpt>
      <trkpt lat="43.52589" lon="6.67937">
        <ele>373.7</ele>
        <time>2024-01-24T11:31:13+01:00</time>
      </trkpt>
      <trkpt lat="43.52591" lon="6.67947">
        <ele>372.9</ele>
        <time>2024-01-24T10:31:20.863Z</time>
      </trkpt>
      <trkpt lat="43.52593" lon="6.67956">
        <ele>372.3</ele>
        <time>2024-01-24T11:31:28+01:00</time>
      </trkpt>
      <trkpt lat="43.52597" lon="6.67964">
        <ele>371.8</ele>
        <time>2024-01-24T10:31:35.428Z</time>
      </trkpt>
      <trkpt lat="43.526" lon="6.67973">
        <ele>371.2</ele>
        <time>2024-01-24T11:31:43+01:00</time>
      </trkpt>
      <trkpt lat="43.52601" lon="6.67979">
        <ele>370.8</ele>
        <time>2024-01-24T10:31:49.948Z</time>
      </trkpt>
      <trkpt lat="43.52602" lon="6.67986">
        <ele>370.4</ele>
        <time>2024-01-24T11:31:58+01:00</time>
      </trkpt>
      <trkpt lat="43.52601" lon="6.67992">
        <ele>369.8</ele>
        <time>2024-01-24T10:32:04.750Z</time>
      </trkpt>
      <trkpt lat="43.52599" lon="6.67999">
        <ele>369.2</ele>
        <time>2024-01-24T11:32:13+01:00</time>
      </trkpt>
      <trkpt lat="43.52598" lon="6.68005">
        <ele>369.3</ele>
        <time>2024-01-24T10:32:17.824Z</time>
      </trkpt>
      <trkpt lat="43.52596" lon="6.68011">
        <ele>369.5</ele>
        <time>2024-01-24T11:32:23+01:00</time>
      </trkpt>
      <trkpt lat="43.52594" lon="6.68019">
        <ele>369.7</ele>
        <time>2024-01-24T10:32:30.940Z</time>
      </trkpt>
      <trkpt lat="43.52592" lon="6.68026">
        <ele>369.9</ele>
        <time>2024-01-24T11:32:38+01:00</time>
      </trkpt>
      <trkpt lat="43.52589" lon="6.68032">
        <ele>369.7</ele>
        <time>2024-01-24T10:32:45.934Z</time>
      </trkpt>
      <trkpt lat="43.52586" lon="6.68037">
        <ele>369.6</ele>
        <time>2024-01-24T11:32:53+01:00</time>
      </trkpt>
      <trkpt lat="43.52585" lon="6.68044">
        <ele>369.7</ele>
        <time>2024-01-24T10:33:21.562Z</time>
      </trkpt>
      <trkpt lat="43.52583" lon="6.6805">
        <ele>369.8</ele>
        <time>2024-01-24T11:33:48+01:00</time>
      </trkpt>
      <trkpt lat="43.52582" lon="6.68059">
        <ele>370.1</ele>
        <time>2024-01-24T10:33:55.011Z</time>
      </trkpt>
      <trkpt lat="43.5258" lon="6.68069">
        <ele>370.2</ele>
        <time>2024-01-24T11:34:03+01:00</time>
      </trkpt>
      <trkpt lat="43.52578" lon="6.68075">
        <ele>370.3</ele>
        <time>2024-01-24T10:34:07.481Z</time>
      </trkpt>
      <trkpt lat="43.52575" lon="6.68082">
        <ele>370.3</ele>
        <time>2024-01-24T11:34:13+01:00</time>
      </trkpt>
      <trkpt lat="43.52572" lon="6.68088">
        <ele>370.5</ele>
        <time>2024-01-24T10:34:17.726Z</time>
      </trkpt>
      <trkpt lat="43.52569" lon="6.68095">
        <ele>370.7</ele>
        <time>2024-01-24T11:34:23+01:00</time>
      </trkpt>
      <trkpt lat="43.52568" lon="6.68101">
        <ele>370.8</ele>
        <time>2024-01-24T10:34:27.632Z</time>
      </trkpt>
      <trkpt lat="43.52567" lon="6.68108">
        <ele>371</ele>
        <time>2024-01-24T11:34:33+01:00</time>
      </trkpt>
      <trkpt lat="43.52568" lon="6.68116">
        <ele>371.3</ele>
        <time>2024-01-24T10:34:40.554Z</time>
      </trkpt>
      <trkpt lat="43.52568" lon="6.68124">
        <ele>371.8</ele>
        <time>2024-01-24T11:34:48+01:00</time>
      </trkpt>
      <trkpt lat="43.52567" lon="6.68131">
        <ele>372.2</ele>
        <time>2024-01-24T10:34:53.047Z</time>
      </trkpt>
      <trkpt lat="43.52567" lon="6.68138">
        <ele>372.7</ele>
        <time>2024-01-24T11:34:58+01:00</time>
      </trkpt>
      <trkpt lat="43.52564" lon="6.68143">
        <ele>373.2</ele>
        <time>2024-01-24T10:35:02.999Z</time>
      </trkpt>
      <trkpt lat="43.52561" lon="6.68148">
        <ele>373.7</ele>
        <time>2024-01-24T11:35:08+01:00</time>
      </trkpt>
      <trkpt lat="43.52558" lon="6.68157">
        <ele>374.4</ele>
        <time>2024-01-24T10:35:43.334Z</time>
      </trkpt>
      <trkpt lat="43.52554" lon="6.68165">
        <ele>375.2</ele>
        <time>2024-01-24T11:36:18+01:00</time>
      </trkpt>
      <trkpt lat="43.52551" lon="6.68172">
        <ele>376.1</ele>
        <time>2024-01-24T10:36:25.350Z</time>
      </trkpt>
      <trkpt lat="43.52549" lon="6.6818">
        <ele>376.9</ele>
        <time>2024-01-24T11:36:33+01:00</time>
      </trkpt>
      <trkpt lat="43.52548" lon="6.68188">
        <ele>377.1</ele>
        <time>2024-01-24T10:36:43.073Z</time>
      </trkpt>
      <trkpt lat="43.52548" lon="6.68196">
        <ele>377.5</ele>
        <time>2024-01-24T11:36:53+01:00</time>
      </trkpt>
      <trkpt lat="43.52545" lon="6.68203">
        <ele>378.8</ele>
        <time>2024-01-24T10:37:00.910Z</time>
      </trkpt>
      <trkpt lat="43.52542" lon="6.68209">
        <ele>380</ele>
        <time>2024-01-24T11:37:08+01:00</time>
      </trkpt>
      <trkpt lat="43.52541" lon="6.68215">
        <ele>380.9</ele>
        <time>2024-01-24T10:37:17.649Z</time>
      </trkpt>
      <trkpt lat="43.52539" lon="6.68221">
        <ele>381.8</ele>
        <time>2024-01-24T11:37:28+01:00</time>
      </trkpt>
      <trkpt lat="43.52538" lon="6.68228">
        <ele>382.3</ele>
        <time>2024-01-24T10:39:50.250Z</time>
      </trkpt>
      <trkpt lat="43.52537" lon="6.68234">
        <ele>382.7</ele>
        <time>2024-01-24T11:41:53+01:00</time>
      </trkpt>
      <trkpt lat="43.52535" lon="6.68242">
        <ele>383.3</ele>
        <time>2024-01-24T10:42:00.499Z</time>
      </trkpt>
      <trkpt lat="43.52533" lon="6.6825">
        <ele>383.9</ele>
        <time>2024-01-24T11:42:08+01:00</time>
      </trkpt>
      <trkpt lat="43.52532" lon="6.68257">
        <ele>384.6</ele>
        <time>2024-01-24T10:42:15.300Z</time>
      </trkpt>
      <trkpt lat="43.5253" lon="6.68264">
        <ele>385.5</ele>
        <time>2024-01-24T11:42:23+01:00</time>
      </trkpt>
      <trkpt lat="43.52529" lon="6.68271">
        <ele>386.2</ele>
        <time>2024-01-24T10:42:33.735Z</time>
      </trkpt>
      <trkpt lat="43.52528" lon="6.68277">
        <ele>386.9</ele>
        <time>2024-01-24T11:42:43+01:00</time>
      </trkpt>
      <trkpt lat="43.52528" lon="6.68284">
        <ele>387.3</ele>
        <time>2024-01-24T10:42:49.945Z</time>
      </trkpt>
      <trkpt lat="43.52527" lon="6.68292">
        <ele>387.6</ele>
        <time>2024-01-24T11:42:58+01:00</time>
      </trkpt>
      <trkpt lat="43.52524" lon="6.683">
        <ele>388.5</ele>
        <time>2024-01-24T10:43:05.143Z</time>
      </trkpt>
      <trkpt lat="43.52521" lon="6.68309">
        <ele>389.1</ele>
        <time>2024-01-24T11:43:13+01:00</time>
      </trkpt>
      <trkpt lat="43.52519" lon="6.68318">
        <ele>389.2</ele>
        <time>2024-01-24T10:43:20.499Z</time>
      </trkpt>
      <trkpt lat="43.52517" lon="6.68327">
        <ele>389.2</ele>
        <time>2024-01-24T11:43:28+01:00</time>
      </trkpt>
      <trkpt lat="43.52516" lon="6.68334">
        <ele>389.2</ele>
        <time>2024-01-24T10:43:33.193Z</time>
      </trkpt>
      <trkpt lat="43.52514" lon="6.6834">
        <ele>390</ele>
        <time>2024-01-24T11:43:38+01:00</time>
      </trkpt>
      <trkpt lat="43.52513" lon="6.68348">
        <ele>390.9</ele>
        <time>2024-01-24T10:43:45.784Z</time>
      </trkpt>
      <trkpt lat="43.52511" lon="6.68355">
        <ele>391.8</ele>
        <time>2024-01-24T11:43:53+01:00</time>
      </trkpt>
      <trkpt lat="43.52509" lon="6.68362">
        <ele>392.4</ele>
        <time>2024-01-24T10:44:00.499Z</time>
      </trkpt>
      <trkpt lat="43.52507" lon="6.68369">
        <ele>393.2</ele>
        <time>2024-01-24T11:44:08+01:00</time>
      </trkpt>
      <trkpt lat="43.52506" lon="6.68376">
        <ele>394</ele>
        <time>2024-01-24T10:44:15.499Z</time>
      </trkpt>
      <trkpt lat="43.52505" lon="6.68383">
        <ele>394.8</ele>
        <time>2024-01-24T11:44:23+01:00</time>
      </trkpt>
      <trkpt lat="43.52503" lon="6.6839">
        <ele>395.8</ele>
        <time>2024-01-24T10:44:30.208Z</time>
      </trkpt>
      <trkpt lat="43.525" lon="6.68397">
        <ele>396.8</ele>
        <time>2024-01-24T11:44:38+01:00</time>
      </trkpt>
      <trkpt lat="43.525" lon="6.68403">
        <ele>397.5</ele>
        <time>2024-01-24T10:44:42.935Z</time>
      </trkpt>
      <trkpt lat="43.52499" lon="6.68409">
        <ele>398.2</ele>
        <time>2024-01-24T11:44:48+01:00</time>
      </trkpt>
      <trkpt lat="43.52497" lon="6.68417">
        <ele>398.9</ele>
        <time>2024-01-24T10:44:55.655Z</time>
      </trkpt>
      <trkpt lat="43.52496" lon="6.68425">
        <ele>399.2</ele>
        <time>2024-01-24T11:45:03+01:00</time>
      </trkpt>
      <trkpt lat="43.52493" lon="6.68433">
        <ele>399.6</ele>
        <time>2024-01-24T10:45:10.215Z</time>
      </trkpt>
      <trkpt lat="43.52489" lon="6.68441">
        <ele>400.2</ele>
        <time>2024-01-24T11:45:18+01:00</time>
      </trkpt>
      <trkpt lat="43.52488" lon="6.68448">
        <ele>400.6</ele>
        <time>2024-01-24T10:45:23.193Z</time>
      </trkpt>
      <trkpt lat="43.52486" lon="6.68454">
        <ele>401</ele>
        <time>2024-01-24T11:45:28+01:00</time>
      </trkpt>
      <trkpt lat="43.52484" lon="6.6846">
        <ele>401.4</ele>
        <time>2024-01-24T10:45:32.999Z</time>
      </trkpt>
      <trkpt lat="43.52482" lon="6.68466">
        <ele>401.7</ele>
        <time>2024-01-24T11:45:38+01:00</time>
      </trkpt>
      <trkpt lat="43.5248" lon="6.68474">
        <ele>402.1</ele>
        <time>2024-01-24T10:45:44.910Z</time>
      </trkpt>
      <trkpt lat="43.52477" lon="6.68483">
        <ele>402.4</ele>
        <time>2024-01-24T11:45:53+01:00</time>
      </trkpt>
      <trkpt lat="43.52475" lon="6.6849">
        <ele>402.6</ele>
        <time>2024-01-24T10:45:57.706Z</time>
      </trkpt>
      <trkpt lat="43.52473" lon="6.68498">
        <ele>402.9</ele>
        <time>2024-01-24T11:46:03+01:00</time>
      </trkpt>
      <trkpt lat="43.52471" lon="6.68504">
        <ele>402.5</ele>
        <time>2024-01-24T10:46:07.481Z</time>
      </trkpt>
      <trkpt lat="43.52468" lon="6.68511">
        <ele>401.9</ele>
        <time>2024-01-24T11:46:13+01:00</time>
      </trkpt>
      <trkpt lat="43.52467" lon="6.68519">
        <ele>401.4</ele>
        <time>2024-01-24T10:46:18.189Z</time>
      </trkpt>
      <trkpt lat="43.52465" lon="6.68526">
        <ele>401.1</ele>
        <time>2024-01-24T11:46:23+01:00</time>
      </trkpt>
      <trkpt lat="43.52469" lon="6.68528">
        <ele>401</ele>
        <time>2024-01-24T10:46:38.340Z</time>
      </trkpt>
      <trkpt lat="43.52474" lon="6.68531">
        <ele>400.9</ele>
        <time>2024-01-24T11:46:58+01:00</time>
      </trkpt>
      <trkpt lat="43.52472" lon="6.68537">
        <ele>400.7</ele>
        <time>2024-01-24T10:47:20.499Z</time>
      </trkpt>
      <trkpt lat="43.5247" lon="6.68543">
        <ele>400.5</ele>
        <time>2024-01-24T11:47:43+01:00</time>
      </trkpt>
      <trkpt lat="43.52472" lon="6.68548">
        <ele>400.3</ele>
        <time>2024-01-24T10:47:54.593Z</time>
      </trkpt>
      <trkpt lat="43.52474" lon="6.68554">
        <ele>400</ele>
        <time>2024-01-24T11:48:08+01:00</time>
      </trkpt>
      <trkpt lat="43.52469" lon="6.68557">
        <ele>399.9</ele>
        <time>2024-01-24T10:48:34.231Z</time>
      </trkpt>
      <trkpt lat="43.52465" lon="6.68561">
        <ele>399.8</ele>
        <time>2024-01-24T11:48:58+01:00</time>
      </trkpt>
      <trkpt lat="43.52461" lon="6.68564">
        <ele>399.8</ele>
        <time>2024-01-24T10:49:35.453Z</time>
      </trkpt>
      <trkpt lat="43.52456" lon="6.68568">
        <ele>400.1</ele>
        <time>2024-01-24T11:50:23+01:00</time>
      </trkpt>
      <trkpt lat="43.52454" lon="6.68573">
        <ele>400.1</ele>
        <time>2024-01-24T10:50:43.867Z</time>
      </trkpt>
      <trkpt lat="43.52452" lon="6.68579">
        <ele>400.4</ele>
        <time>2024-01-24T11:51:08+01:00</time>
      </trkpt>
      <trkpt lat="43.52457" lon="6.68581">
        <ele>399.4</ele>
        <time>2024-01-24T10:51:20.500Z</time>
      </trkpt>
      <trkpt lat="43.52462" lon="6.68583">
        <ele>398.2</ele>
        <time>2024-01-24T11:51:33+01:00</time>
      </trkpt>
      <trkpt lat="43.52458" lon="6.68589">
        <ele>398.6</ele>
        <time>2024-01-24T10:53:04.457Z</time>
      </trkpt>
      <trkpt lat="43.52454" lon="6.68594">
        <ele>398.9</ele>
        <time>2024-01-24T11:54:28+01:00</time>
      </trkpt>
      <trkpt lat="43.52449" lon="6.68589">
        <ele>400.5</ele>
        <time>2024-01-24T10:56:57.999Z</time>
      </trkpt>
      <trkpt lat="43.52444" lon="6.68584">
        <ele>401.9</ele>
        <time>2024-01-24T11:59:28+01:00</time>
      </trkpt>
      <trkpt lat="43.52439" lon="6.68588">
        <ele>401.2</ele>
        <time>2024-01-24T10:59:36.390Z</time>
      </trkpt>
      <trkpt lat="43.52435" lon="6.68591">
        <ele>400.7</ele>
        <time>2024-01-24T11:59:43+01:00</time>
      </trkpt>
      <trkpt lat="43.52431" lon="6.68597">
        <ele>400.3</ele>
        <time>2024-01-24T10:59:50.508Z</time>
      </trkpt>
      <trkpt lat="43.52428" lon="6.68604">
        <ele>400.1</ele>
        <time>2024-01-24T11:59:58+01:00</time>
      </trkpt>
      <trkpt lat="43.52432" lon="6.68606">
        <ele>400.1</ele>
        <time>2024-01-24T11:00:04.574Z</time>
      </trkpt>
      <trkpt lat="43.52437" lon="6.68609">
        <ele>400.1</ele>
        <time>2024-01-24T12:00:13+01:00</time>
      </trkpt>
      <trkpt lat="43.52438" lon="6.68618">
        <ele>399.5</ele>
        <time>2024-01-24T11:00:20.929Z</time>
      </trkpt>
      <trkpt lat="43.52439" lon="6.68626">
        <ele>398.9</ele>
        <time>2024-01-24T12:00:28+01:00</time>
      </trkpt>
      <trkpt lat="43.52433" lon="6.68627">
        <ele>398.9</ele>
        <time>2024-01-24T11:02:11.487Z</time>
      </trkpt>
      <trkpt lat="43.52428" lon="6.68628">
        <ele>398.8</ele>
        <time>2024-01-24T12:03:38+01:00</time>
      </trkpt>
      <trkpt lat="43.52422" lon="6.68628">
        <ele>398.8</ele>
        <time>2024-01-24T11:03:43.428Z</time>
      </trkpt>
      <trkpt lat="43.52417" lon="6.68629">
        <ele>398.7</ele>
        <time>2024-01-24T12:03:48+01:00</time>
      </trkpt>
      <trkpt lat="43.52413" lon="6.68635">
        <ele>398</ele>
        <time>2024-01-24T11:03:55.499Z</time>
      </trkpt>
      <trkpt lat="43.52409" lon="6.68641">
        <ele>397.4</ele>
        <time>2024-01-24T12:04:03+01:00</time>
      </trkpt>
      <trkpt lat="43.52406" lon="6.68646">
        <ele>397.1</ele>
        <time>2024-01-24T11:04:07.710Z</time>
      </trkpt>
      <trkpt lat="43.52403" lon="6.68652">
        <ele>396.8</ele>
        <time>2024-01-24T12:04:13+01:00</time>
      </trkpt>
      <trkpt lat="43.52399" lon="6.68658">
        <ele>396.5</ele>
        <time>2024-01-24T11:04:17.776Z</time>
      </trkpt>
      <trkpt lat="43.52395" lon="6.68665">
        <ele>396.2</ele>
        <time>2024-01-24T12:04:23+01:00</time>
      </trkpt>
      <trkpt lat="43.52392" lon="6.68672">
        <ele>396.1</ele>
        <time>2024-01-24T11:04:27.999Z</time>
      </trkpt>
      <trkpt lat="43.52389" lon="6.68679">
        <ele>396</ele>
        <time>2024-01-24T12:04:33+01:00</time>
      </trkpt>
      <trkpt lat="43.52384" lon="6.68688">
        <ele>395.8</ele>
        <time>2024-01-24T11:04:38.178Z</time>
      </trkpt>
      <trkpt lat="43.5238" lon="6.68697">
        <ele>395.8</ele>
        <time>2024-01-24T12:04:43+01:00</time>
      </trkpt>
      <trkpt lat="43.52376" lon="6.68703">
        <ele>396</ele>
        <time>2024-01-24T11:04:48.226Z</time>
      </trkpt>
      <trkpt lat="43.52372" lon="6.68708">
        <ele>396.2</ele>
        <time>2024-01-24T12:04:53+01:00</time>
      </trkpt>
      <trkpt lat="43.52365" lon="6.68712">
        <ele>396.3</ele>
        <time>2024-01-24T11:04:58.082Z</time>
      </trkpt>
      <trkpt lat="43.52358" lon="6.68715">
        <ele>396.5</ele>
        <time>2024-01-24T12:05:03+01:00</time>
      </trkpt>
      <trkpt lat="43.52351" lon="6.68716">
        <ele>396.6</ele>
        <time>2024-01-24T11:05:07.960Z</time>
      </trkpt>
      <trkpt lat="43.52344" lon="6.68718">
        <ele>396.7</ele>
        <time>2024-01-24T12:05:13+01:00</time>
      </trkpt>
      <trkpt lat="43.52339" lon="6.68721">
        <ele>396.9</ele>
        <time>2024-01-24T11:05:17.854Z</time>
      </trkpt>
      <trkpt lat="43.52334" lon="6.68725">
        <ele>397.2</ele>
        <time>2024-01-24T12:05:23+01:00</time>
      </trkpt>
      <trkpt lat="43.52328" lon="6.68728">
        <ele>397.6</ele>
        <time>2024-01-24T11:05:27.999Z</time>
      </trkpt>
      <trkpt lat="43.52322" lon="6.68731">
        <ele>398</ele>
        <time>2024-01-24T12:05:33+01:00</time>
      </trkpt>
      <trkpt lat="43.52318" lon="6.68736">
        <ele>398.6</ele>
        <time>2024-01-24T11:05:37.773Z</time>
      </trkpt>
      <trkpt lat="43.52314" lon="6.68742">
        <ele>399.1</ele>
        <time>2024-01-24T12:05:43+01:00</time>
      </trkpt>
      <trkpt lat="43.5231" lon="6.68748">
        <ele>399.7</ele>
        <time>2024-01-24T11:05:47.999Z</time>
      </trkpt>
      <trkpt lat="43.52306" lon="6.68754">
        <ele>400.3</ele>
        <time>2024-01-24T12:05:53+01:00</time>
      </trkpt>
      <trkpt lat="43.52302" lon="6.6876">
        <ele>400.9</ele>
        <time>2024-01-24T11:05:58.279Z</time>
      </trkpt>
      <trkpt lat="43.52299" lon="6.68766">
        <ele>401.5</ele>
        <time>2024-01-24T12:06:03+01:00</time>
      </trkpt>
      <trkpt lat="43.52294" lon="6.68773">
        <ele>402.2</ele>
        <time>2024-01-24T11:06:07.999Z</time>
      </trkpt>
      <trkpt lat="43.52289" lon="6.6878">
        <ele>402.8</ele>
        <time>2024-01-24T12:06:13+01:00</time>
      </trkpt>
      <trkpt lat="43.52284" lon="6.68785">
        <ele>403.4</ele>
        <time>2024-01-24T11:06:18.335Z</time>
      </trkpt>
      <trkpt lat="43.5228" lon="6.6879">
        <ele>403.9</ele>
        <time>2024-01-24T12:06:23+01:00</time>
      </trkpt>
      <trkpt lat="43.52276" lon="6.68798">
        <ele>404.6</ele>
        <time>2024-01-24T11:06:27.972Z</time>
      </trkpt>
      <trkpt lat="43.52271" lon="6.68805">
        <ele>405.2</ele>
        <time>2024-01-24T12:06:33+01:00</time>
      </trkpt>
      <trkpt lat="43.52268" lon="6.68813">
        <ele>405.5</ele>
        <time>2024-01-24T11:06:37.999Z</time>
      </trkpt>
      <trkpt lat="43.52265" lon="6.68821">
        <ele>405.8</ele>
        <time>2024-01-24T12:06:43+01:00</time>
      </trkpt>
      <trkpt lat="43.5226" lon="6.68828">
        <ele>405.9</ele>
        <time>2024-01-24T11:06:47.819Z</time>
      </trkpt>
      <trkpt lat="43.52255" lon="6.68836">
        <ele>405.9</ele>
        <time>2024-01-24T12:06:53+01:00</time>
      </trkpt>
      <trkpt lat="43.52251" lon="6.68845">
        <ele>405.6</ele>
        <time>2024-01-24T11:06:57.999Z</time>
      </trkpt>
      <trkpt lat="43.52247" lon="6.68854">
        <ele>405</ele>
        <time>2024-01-24T12:07:03+01:00</time>
      </trkpt>
      <trkpt lat="43.52246" lon="6.68863">
        <ele>404.7</ele>
        <time>2024-01-24T11:07:08.286Z</time>
      </trkpt>
      <trkpt lat="43.52245" lon="6.68871">
        <ele>404.5</ele>
        <time>2024-01-24T12:07:13+01:00</time>
      </trkpt>
      <trkpt lat="43.52242" lon="6.6888">
        <ele>404.1</ele>
        <time>2024-01-24T11:07:18.127Z</time>
      </trkpt>
      <trkpt lat="43.5224" lon="6.68889">
        <ele>403.5</ele>
        <time>2024-01-24T12:07:23+01:00</time>
      </trkpt>
      <trkpt lat="43.52239" lon="6.68899">
        <ele>403.1</ele>
        <time>2024-01-24T11:07:27.765Z</time>
      </trkpt>
      <trkpt lat="43.52238" lon="6.6891">
        <ele>402.8</ele>
        <time>2024-01-24T12:07:33+01:00</time>
      </trkpt>
      <trkpt lat="43.52238" lon="6.68919">
        <ele>402.7</ele>
        <time>2024-01-24T11:07:37.970Z</time>
      </trkpt>
      <trkpt lat="43.52239" lon="6.68928">
        <ele>402.4</ele>
        <time>2024-01-24T12:07:43+01:00</time>
      </trkpt>
      <trkpt lat="43.52241" lon="6.68937">
        <ele>402.3</ele>
        <time>2024-01-24T11:07:48.369Z</time>
      </trkpt>
      <trkpt lat="43.52242" lon="6.68945">
        <ele>402.1</ele>
        <time>2024-01-24T12:07:53+01:00</time>
      </trkpt>
      <trkpt lat="43.52243" lon="6.68954">
        <ele>402.3</ele>
        <time>2024-01-24T11:07:57.674Z</time>
      </trkpt>
      <trkpt lat="43.52245" lon="6.68964">
        <ele>402.5</ele>
        <time>2024-01-24T12:08:03+01:00</time>
      </trkpt>
      <trkpt lat="43.52246" lon="6.68972">
        <ele>402.5</ele>
        <time>2024-01-24T11:08:07.742Z</time>
      </trkpt>
      <trkpt lat="43.52246" lon="6.68981">
        <ele>402.9</ele>
        <time>2024-01-24T12:08:13+01:00</time>
      </trkpt>
      <trkpt lat="43.52248" lon="6.68987">
        <ele>403.3</ele>
        <time>2024-01-24T11:08:18.362Z</time>
      </trkpt>
      <trkpt lat="43.5225" lon="6.68992">
        <ele>403.7</ele>
        <time>2024-01-24T12:08:23+01:00</time>
      </trkpt>
      <trkpt lat="43.5225" lon="6.69001">
        <ele>404.1</ele>
        <time>2024-01-24T11:08:30.500Z</time>
      </trkpt>
      <trkpt lat="43.5225" lon="6.6901">
        <ele>404.7</ele>
        <time>2024-01-24T12:08:38+01:00</time>
      </trkpt>
      <trkpt lat="43.52253" lon="6.69017">
        <ele>405.3</ele>
        <time>2024-01-24T11:08:45.500Z</time>
      </trkpt>
      <trkpt lat="43.52256" lon="6.69024">
        <ele>405.8</ele>
        <time>2024-01-24T12:08:53+01:00</time>
      </trkpt>
      <trkpt lat="43.52258" lon="6.6903">
        <ele>406.2</ele>
        <time>2024-01-24T11:08:58.175Z</time>
      </trkpt>
      <trkpt lat="43.52259" lon="6.69036">
        <ele>406.7</ele>
        <time>2024-01-24T12:09:03+01:00</time>
      </trkpt>
      <trkpt lat="43.52259" lon="6.69044">
        <ele>407.4</ele>
        <time>2024-01-24T11:09:13.000Z</time>
      </trkpt>
      <trkpt lat="43.52259" lon="6.69052">
        <ele>408</ele>
        <time>2024-01-24T12:09:23+01:00</time>
      </trkpt>
      <trkpt lat="43.52259" lon="6.69059">
        <ele>408.6</ele>
        <time>2024-01-24T11:09:30.000Z</time>
      </trkpt>
      <trkpt lat="43.52259" lon="6.69067">
        <ele>409.2</ele>
        <time>2024-01-24T12:09:38+01:00</time>
      </trkpt>
      <trkpt lat="43.52258" lon="6.69073">
        <ele>409.7</ele>
        <time>2024-01-24T11:09:42.500Z</time>
      </trkpt>
      <trkpt lat="43.52256" lon="6.6908">
        <ele>410.3</ele>
        <time>2024-01-24T12:09:48+01:00</time>
      </trkpt>
      <trkpt lat="43.52255" lon="6.69088">
        <ele>411</ele>
        <time>2024-01-24T11:09:55.113Z</time>
      </trkpt>
      <trkpt lat="43.52255" lon="6.69097">
        <ele>411.7</ele>
        <time>2024-01-24T12:10:03+01:00</time>
      </trkpt>
      <trkpt lat="43.52255" lon="6.69106">
        <ele>412.3</ele>
        <time>2024-01-24T11:10:10.886Z</time>
      </trkpt>
      <trkpt lat="43.52254" lon="6.69114">
        <ele>413</ele>
        <time>2024-01-24T12:10:18+01:00</time>
      </trkpt>
      <trkpt lat="43.52255" lon="6.69122">
        <ele>413.8</ele>
        <time>2024-01-24T11:10:26.054Z</time>
      </trkpt>
      <trkpt lat="43.52255" lon="6.69129">
        <ele>414.6</ele>
        <time>2024-01-24T12:10:33+01:00</time>
      </trkpt>
      <trkpt lat="43.52254" lon="6.69136">
        <ele>415.4</ele>
        <time>2024-01-24T11:10:37.999Z</time>
      </trkpt>
      <trkpt lat="43.52253" lon="6.69143">
        <ele>416.1</ele>
        <time>2024-01-24T12:10:43+01:00</time>
      </trkpt>
      <trkpt lat="43.52252" lon="6.69149">
        <ele>416.6</ele>
        <time>2024-01-24T11:10:47.999Z</time>
      </trkpt>
      <trkpt lat="43.52251" lon="6.69155">
        <ele>417.1</ele>
        <time>2024-01-24T12:10:53+01:00</time>
      </trkpt>
      <trkpt lat="43.5225" lon="6.69164">
        <ele>417.7</ele>
        <time>2024-01-24T11:11:00.774Z</time>
      </trkpt>
      <trkpt lat="43.52248" lon="6.69172">
        <ele>417.9</ele>
        <time>2024-01-24T12:11:08+01:00</time>
      </trkpt>
      <trkpt lat="43.52248" lon="6.69179">
        <ele>418.1</ele>
        <time>2024-01-24T11:11:13.384Z</time>
      </trkpt>
      <trkpt lat="43.52248" lon="6.69185">
        <ele>418.4</ele>
        <time>2024-01-24T12:11:18+01:00</time>
      </trkpt>
      <trkpt lat="43.52246" lon="6.69191">
        <ele>418.4</ele>
        <time>2024-01-24T11:11:22.674Z</time>
      </trkpt>
      <trkpt lat="43.52244" lon="6.69198">
        <ele>418.3</ele>
        <time>2024-01-24T12:11:28+01:00</time>
      </trkpt>
      <trkpt lat="43.52244" lon="6.69205">
        <ele>418</ele>
        <time>2024-01-24T11:11:32.952Z</time>
      </trkpt>
      <trkpt lat="43.52243" lon="6.69212">
        <ele>417.8</ele>
        <time>2024-01-24T12:11:38+01:00</time>
      </trkpt>
      <trkpt lat="43.52241" lon="6.69218">
        <ele>417.4</ele>
        <time>2024-01-24T11:11:42.674Z</time>
      </trkpt>
      <trkpt lat="43.52239" lon="6.69225">
        <ele>417</ele>
        <time>2024-01-24T12:11:48+01:00</time>
      </trkpt>
      <trkpt lat="43.52236" lon="6.69232">
        <ele>416.4</ele>
        <time>2024-01-24T11:11:55.116Z</time>
      </trkpt>
      <trkpt lat="43.52233" lon="6.6924">
        <ele>416</ele>
        <time>2024-01-24T12:12:03+01:00</time>
      </trkpt>
      <trkpt lat="43.52232" lon="6.69246">
        <ele>415.8</ele>
        <time>2024-01-24T11:12:07.824Z</time>
      </trkpt>
      <trkpt lat="43.5223" lon="6.69252">
        <ele>415.4</ele>
        <time>2024-01-24T12:12:13+01:00</time>
      </trkpt>
      <trkpt lat="43.52232" lon="6.6926">
        <ele>414.2</ele>
        <time>2024-01-24T11:12:21.138Z</time>
      </trkpt>
      <trkpt lat="43.52233" lon="6.69267">
        <ele>413.1</ele>
        <time>2024-01-24T12:12:28+01:00</time>
      </trkpt>
      <trkpt lat="43.52233" lon="6.69276">
        <ele>411.9</ele>
        <time>2024-01-24T11:12:35.886Z</time>
      </trkpt>
      <trkpt lat="43.52234" lon="6.69284">
        <ele>410.9</ele>
        <time>2024-01-24T12:12:43+01:00</time>
      </trkpt>
      <trkpt lat="43.52233" lon="6.69291">
        <ele>410</ele>
        <time>2024-01-24T11:12:50.071Z</time>
      </trkpt>
      <trkpt lat="43.52233" lon="6.69299">
        <ele>409.2</ele>
        <time>2024-01-24T12:12:58+01:00</time>
      </trkpt>
      <trkpt lat="43.5223" lon="6.69307">
        <ele>408.2</ele>
        <time>2024-01-24T11:13:04.905Z</time>
      </trkpt>
      <trkpt lat="43.52226" lon="6.69316">
        <ele>407.8</ele>
        <time>2024-01-24T12:13:13+01:00</time>
      </trkpt>
      <trkpt lat="43.52224" lon="6.69323">
        <ele>407.5</ele>
        <time>2024-01-24T11:13:18.499Z</time>
      </trkpt>
      <trkpt lat="43.52223" lon="6.69329">
        <ele>407.2</ele>
        <time>2024-01-24T12:13:23+01:00</time>
      </trkpt>
      <trkpt lat="43.52221" lon="6.69336">
        <ele>407</ele>
        <time>2024-01-24T11:13:27.805Z</time>
      </trkpt>
      <trkpt lat="43.52218" lon="6.69343">
        <ele>407.3</ele>
        <time>2024-01-24T12:13:33+01:00</time>
      </trkpt>
      <trkpt lat="43.52215" lon="6.69349">
        <ele>407.5</ele>
        <time>2024-01-24T11:13:40.499Z</time>
      </trkpt>
      <trkpt lat="43.52212" lon="6.69355">
        <ele>407.9</ele>
        <time>2024-01-24T12:13:48+01:00</time>
      </trkpt>
      <trkpt lat="43.52207" lon="6.69362">
        <ele>408.5</ele>
        <time>2024-01-24T11:13:55.771Z</time>
      </trkpt>
      <trkpt lat="43.52202" lon="6.69368">
        <ele>409.2</ele>
        <time>2024-01-24T12:14:03+01:00</time>
      </trkpt>
      <trkpt lat="43.52198" lon="6.69373">
        <ele>409.8</ele>
        <time>2024-01-24T11:14:09.733Z</time>
      </trkpt>
      <trkpt lat="43.52193" lon="6.69379">
        <ele>410.6</ele>
        <time>2024-01-24T12:14:18+01:00</time>
      </trkpt>
      <trkpt lat="43.5219" lon="6.69385">
        <ele>411.8</ele>
        <time>2024-01-24T11:14:24.748Z</time>
      </trkpt>
      <trkpt lat="43.52186" lon="6.69392">
        <ele>412.9</ele>
        <time>2024-01-24T12:14:33+01:00</time>
      </trkpt>
      <trkpt lat="43.52183" lon="6.69398">
        <ele>413.9</ele>
        <time>2024-01-24T11:14:40.499Z</time>
      </trkpt>
      <trkpt lat="43.5218" lon="6.69404">
        <ele>415</ele>
        <time>2024-01-24T12:14:48+01:00</time>
      </trkpt>
      <trkpt lat="43.52177" lon="6.69412">
        <ele>416.3</ele>
        <time>2024-01-24T11:14:55.539Z</time>
      </trkpt>
      <trkpt lat="43.52173" lon="6.69419">
        <ele>417.4</ele>
        <time>2024-01-24T12:15:03+01:00</time>
      </trkpt>
      <trkpt lat="43.52171" lon="6.69428">
        <ele>418</ele>
        <time>2024-01-24T11:15:10.899Z</time>
      </trkpt>
      <trkpt lat="43.52169" lon="6.69436">
        <ele>418.5</ele>
        <time>2024-01-24T12:15:18+01:00</time>
      </trkpt>
      <trkpt lat="43.52163" lon="6.69439">
        <ele>418.9</ele>
        <time>2024-01-24T11:15:43.416Z</time>
      </trkpt>
      <trkpt lat="43.52157" lon="6.69441">
        <ele>419.2</ele>
        <time>2024-01-24T12:16:08+01:00</time>
      </trkpt>
      <trkpt lat="43.52163" lon="6.69441">
        <ele>419</ele>
        <time>2024-01-24T11:17:24.002Z</time>
      </trkpt>
      <trkpt lat="43.52168" lon="6.6944">
        <ele>418.7</ele>
        <time>2024-01-24T12:18:28+01:00</time>
      </trkpt>
      <trkpt lat="43.52173" lon="6.69441">
        <ele>418.4</ele>
        <time>2024-01-24T11:18:33.428Z</time>
      </trkpt>
      <trkpt lat="43.52177" lon="6.69443">
        <ele>418.2</ele>
        <time>2024-01-24T12:18:38+01:00</time>
      </trkpt>
      <trkpt lat="43.52183" lon="6.69444">
        <ele>417.8</ele>
        <time>2024-01-24T11:18:43.472Z</time>
      </trkpt>
      <trkpt lat="43.52188" lon="6.69444">
        <ele>417.5</ele>
        <time>2024-01-24T12:18:48+01:00</time>
      </trkpt>
      <trkpt lat="43.52193" lon="6.69443">
        <ele>417</ele>
        <time>2024-01-24T11:18:53.428Z</time>
      </trkpt>
      <trkpt lat="43.52197" lon="6.69441">
        <ele>416.7</ele>
        <time>2024-01-24T12:18:58+01:00</time>
      </trkpt>
      <trkpt lat="43.52202" lon="6.69441">
        <ele>416.5</ele>
        <time>2024-01-24T11:19:02.973Z</time>
      </trkpt>
      <trkpt lat="43.52207" lon="6.6944">
        <ele>416.3</ele>
        <time>2024-01-24T12:19:08+01:00</time>
      </trkpt>
      <trkpt lat="43.52211" lon="6.6944">
        <ele>416.2</ele>
        <time>2024-01-24T11:19:14.628Z</time>
      </trkpt>
      <trkpt lat="43.52216" lon="6.69439">
        <ele>416</ele>
        <time>2024-01-24T12:19:23+01:00</time>
      </trkpt>
      <trkpt lat="43.52221" lon="6.69435">
        <ele>415.7</ele>
        <time>2024-01-24T11:19:43.583Z</time>
      </trkpt>
      <trkpt lat="43.52226" lon="6.69432">
        <ele>415.6</ele>
        <time>2024-01-24T12:20:03+01:00</time>
      </trkpt>
      <trkpt lat="43.52231" lon="6.69434">
        <ele>415.7</ele>
        <time>2024-01-24T11:20:08.000Z</time>
      </trkpt>
      <trkpt lat="43.52236" lon="6.69436">
        <ele>415.8</ele>
        <time>2024-01-24T12:20:13+01:00</time>
      </trkpt>
      <trkpt lat="43.52242" lon="6.69438">
        <ele>415.9</ele>
        <time>2024-01-24T11:20:18.309Z</time>
      </trkpt>
      <trkpt lat="43.52247" lon="6.69441">
        <ele>416</ele>
        <time>2024-01-24T12:20:23+01:00</time>
      </trkpt>
      <trkpt lat="43.52252" lon="6.69444">
        <ele>416.1</ele>
        <time>2024-01-24T11:20:28.115Z</time>
      </trkpt>
      <trkpt lat="43.52257" lon="6.69446">
        <ele>415.9</ele>
        <time>2024-01-24T12:20:33+01:00</time>
      </trkpt>
      <trkpt lat="43.52262" lon="6.69449">
        <ele>415.8</ele>
        <time>2024-01-24T11:20:38.617Z</time>
      </trkpt>
      <trkpt lat="43.52266" lon="6.69451">
        <ele>415.7</ele>
        <time>2024-01-24T12:20:43+01:00</time>
      </trkpt>
      <trkpt lat="43.52272" lon="6.69453">
        <ele>415.7</ele>
        <time>2024-01-24T11:20:47.916Z</time>
      </trkpt>
      <trkpt lat="43.52278" lon="6.69456">
        <ele>415.8</ele>
        <time>2024-01-24T12:20:53+01:00</time>
      </trkpt>
      <trkpt lat="43.52283" lon="6.69453">
        <ele>415</ele>
        <time>2024-01-24T11:21:00.673Z</time>
      </trkpt>
      <trkpt lat="43.52288" lon="6.69451">
        <ele>414.2</ele>
        <time>2024-01-24T12:21:08+01:00</time>
      </trkpt>
      <trkpt lat="43.52292" lon="6.69453">
        <ele>413.2</ele>
        <time>2024-01-24T11:21:14.857Z</time>
      </trkpt>
      <trkpt lat="43.52297" lon="6.69454">
        <ele>412.1</ele>
        <time>2024-01-24T12:21:23+01:00</time>
      </trkpt>
      <trkpt lat="43.52302" lon="6.69456">
        <ele>411</ele>
        <time>2024-01-24T11:21:28.074Z</time>
      </trkpt>
      <trkpt lat="43.52307" lon="6.69457">
        <ele>409.9</ele>
        <time>2024-01-24T12:21:33+01:00</time>
      </trkpt>
      <trkpt lat="43.52313" lon="6.69461">
        <ele>409</ele>
        <time>2024-01-24T11:21:40.310Z</time>
      </trkpt>
      <trkpt lat="43.52319" lon="6.69466">
        <ele>408.2</ele>
        <time>2024-01-24T12:21:48+01:00</time>
      </trkpt>
      <trkpt lat="43.52324" lon="6.6947">
        <ele>407.7</ele>
        <time>2024-01-24T11:21:53.000Z</time>
      </trkpt>
      <trkpt lat="43.52329" lon="6.69474">
        <ele>407</ele>
        <time>2024-01-24T12:21:58+01:00</time>
      </trkpt>
      <trkpt lat="43.52332" lon="6.6948">
        <ele>406</ele>
        <time>2024-01-24T11:22:03.289Z</time>
      </trkpt>
      <trkpt lat="43.52335" lon="6.69485">
        <ele>405.1</ele>
        <time>2024-01-24T12:22:08+01:00</time>
      </trkpt>
      <trkpt lat="43.52336" lon="6.69492">
        <ele>404</ele>
        <time>2024-01-24T11:22:12.867Z</time>
      </trkpt>
      <trkpt lat="43.52338" lon="6.69499">
        <ele>403</ele>
        <time>2024-01-24T12:22:18+01:00</time>
      </trkpt>
      <trkpt lat="43.5234" lon="6.69505">
        <ele>401.8</ele>
        <time>2024-01-24T11:22:22.674Z</time>
      </trkpt>
      <trkpt lat="43.52342" lon="6.69512">
        <ele>400.6</ele>
        <time>2024-01-24T12:22:28+01:00</time>
      </trkpt>
      <trkpt lat="43.52346" lon="6.69519">
        <ele>399.4</ele>
        <time>2024-01-24T11:22:35.500Z</time>
      </trkpt>
      <trkpt lat="43.5235" lon="6.69526">
        <ele>398.4</ele>
        <time>2024-01-24T12:22:43+01:00</time>
      </trkpt>
      <trkpt lat="43.52354" lon="6.6953">
        <ele>398.5</ele>
        <time>2024-01-24T11:22:57.261Z</time>
      </trkpt>
      <trkpt lat="43.52359" lon="6.69533">
        <ele>399.1</ele>
        <time>2024-01-24T12:23:13+01:00</time>
      </trkpt>
      <trkpt lat="43.52364" lon="6.69535">
        <ele>398.5</ele>
        <time>2024-01-24T11:23:25.210Z</time>
      </trkpt>
      <trkpt lat="43.52369" lon="6.69538">
        <ele>397</ele>
        <time>2024-01-24T12:23:38+01:00</time>
      </trkpt>
      <trkpt lat="43.52369" lon="6.69544">
        <ele>397.8</ele>
        <time>2024-01-24T11:23:44.923Z</time>
      </trkpt>
      <trkpt lat="43.52369" lon="6.69551">
        <ele>398.6</ele>
        <time>2024-01-24T12:23:53+01:00</time>
      </trkpt>
      <trkpt lat="43.52374" lon="6.69553">
        <ele>398</ele>
        <time>2024-01-24T11:24:41.010Z</time>
      </trkpt>
      <trkpt lat="43.52378" lon="6.69556">
        <ele>397.4</ele>
        <time>2024-01-24T12:25:23+01:00</time>
      </trkpt>
      <trkpt lat="43.52376" lon="6.69561">
        <ele>397.1</ele>
        <time>2024-01-24T11:27:39.799Z</time>
      </trkpt>
      <trkpt lat="43.52374" lon="6.69567">
        <ele>397.1</ele>
        <time>2024-01-24T12:30:18+01:00</time>
      </trkpt>
      <trkpt lat="43.52371" lon="6.69574">
        <ele>397.8</ele>
        <time>2024-01-24T11:30:23.273Z</time>
      </trkpt>
      <trkpt lat="43.52368" lon="6.6958">
        <ele>399.1</ele>
        <time>2024-01-24T12:30:28+01:00</time>
      </trkpt>
      <trkpt lat="43.52363" lon="6.69581">
        <ele>401.8</ele>
        <time>2024-01-24T11:31:08.208Z</time>
      </trkpt>
      <trkpt lat="43.52358" lon="6.69581">
        <ele>400.4</ele>
        <time>2024-01-24T12:31:48+01:00</time>
      </trkpt>
      <trkpt lat="43.52363" lon="6.6958">
        <ele>401.5</ele>
        <time>2024-01-24T11:55:06.312Z</time>
      </trkpt>
      <trkpt lat="43.52369" lon="6.69579">
        <ele>398.5</ele>
        <time>2024-01-24T13:22:59+01:00</time>
      </trkpt>
      <trkpt lat="43.52371" lon="6.69572">
        <ele>397.7</ele>
        <time>2024-01-24T12:24:16.500Z</time>
      </trkpt>
      <trkpt lat="43.52373" lon="6.69565">
        <ele>397.4</ele>
        <time>2024-01-24T13:25:34+01:00</time>
      </trkpt>
      <trkpt lat="43.5237" lon="6.6956">
        <ele>398.9</ele>
        <time>2024-01-24T12:26:00.829Z</time>
      </trkpt>
      <trkpt lat="43.52366" lon="6.69556">
        <ele>399.9</ele>
        <time>2024-01-24T13:26:29+01:00</time>
      </trkpt>
      <trkpt lat="43.52367" lon="6.69549">
        <ele>399.1</ele>
        <time>2024-01-24T12:26:51.714Z</time>
      </trkpt>
      <trkpt lat="43.52367" lon="6.69542">
        <ele>398.2</ele>
        <time>2024-01-24T13:27:14+01:00</time>
      </trkpt>
      <trkpt lat="43.52363" lon="6.69541">
        <ele>399.5</ele>
        <time>2024-01-24T12:27:24.961Z</time>
      </trkpt>
      <trkpt lat="43.52358" lon="6.69539">
        <ele>399.2</ele>
        <time>2024-01-24T13:27:39+01:00</time>
      </trkpt>
      <trkpt lat="43.52355" lon="6.69534">
        <ele>398.5</ele>
        <time>2024-01-24T12:27:50.082Z</time>
      </trkpt>
      <trkpt lat="43.52351" lon="6.69528">
        <ele>398.3</ele>
        <time>2024-01-24T13:28:04+01:00</time>
      </trkpt>
      <trkpt lat="43.52348" lon="6.69523">
        <ele>398.9</ele>
        <time>2024-01-24T12:28:27.551Z</time>
      </trkpt>
      <trkpt lat="43.52345" lon="6.69517">
        <ele>399.7</ele>
        <time>2024-01-24T13:28:54+01:00</time>
      </trkpt>
      <trkpt lat="43.52341" lon="6.69511">
        <ele>400.8</ele>
        <time>2024-01-24T12:29:11.520Z</time>
      </trkpt>
      <trkpt lat="43.52338" lon="6.69504">
        <ele>402</ele>
        <time>2024-01-24T13:29:29+01:00</time>
      </trkpt>
      <trkpt lat="43.52336" lon="6.69497">
        <ele>403.3</ele>
        <time>2024-01-24T12:29:36.699Z</time>
      </trkpt>
      <trkpt lat="43.52335" lon="6.6949">
        <ele>404.4</ele>
        <time>2024-01-24T13:29:44+01:00</time>
      </trkpt>
      <trkpt lat="43.52331" lon="6.69485">
        <ele>405.3</ele>
        <time>2024-01-24T12:29:51.499Z</time>
      </trkpt>
      <trkpt lat="43.52327" lon="6.6948">
        <ele>406.2</ele>
        <time>2024-01-24T13:29:59+01:00</time>
      </trkpt>
      <trkpt lat="43.52322" lon="6.69475">
        <ele>407.4</ele>
        <time>2024-01-24T12:30:07.003Z</time>
      </trkpt>
      <trkpt lat="43.52318" lon="6.6947">
        <ele>408.2</ele>
        <time>2024-01-24T13:30:14+01:00</time>
      </trkpt>
      <trkpt lat="43.52314" lon="6.69466">
        <ele>408.7</ele>
        <time>2024-01-24T12:30:19.204Z</time>
      </trkpt>
      <trkpt lat="43.5231" lon="6.69463">
        <ele>409.3</ele>
        <time>2024-01-24T13:30:24+01:00</time>
      </trkpt>
      <trkpt lat="43.52305" lon="6.69463">
        <ele>409.8</ele>
        <time>2024-01-24T12:30:30.791Z</time>
      </trkpt>
      <trkpt lat="43.52299" lon="6.69464">
        <ele>410.8</ele>
        <time>2024-01-24T13:30:39+01:00</time>
      </trkpt>
      <trkpt lat="43.52296" lon="6.69458">
        <ele>411.9</ele>
        <time>2024-01-24T12:30:46.934Z</time>
      </trkpt>
      <trkpt lat="43.52293" lon="6.69453">
        <ele>413</ele>
        <time>2024-01-24T13:30:54+01:00</time>
      </trkpt>
      <trkpt lat="43.52288" lon="6.69454">
        <ele>413.9</ele>
        <time>2024-01-24T12:31:08.999Z</time>
      </trkpt>
      <trkpt lat="43.52283" lon="6.69455">
        <ele>414.7</ele>
        <time>2024-01-24T13:31:24+01:00</time>
      </trkpt>
      <trkpt lat="43.52279" lon="6.69456">
        <ele>415.6</ele>
        <time>2024-01-24T12:31:30.726Z</time>
      </trkpt>
      <trkpt lat="43.52274" lon="6.69456">
        <ele>415.5</ele>
        <time>2024-01-24T13:31:39+01:00</time>
      </trkpt>
      <trkpt lat="43.52266" lon="6.69454">
        <ele>415.3</ele>
        <time>2024-01-24T12:32:07.923Z</time>
      </trkpt>
      <trkpt lat="43.52259" lon="6.69451">
        <ele>415.3</ele>
        <time>2024-01-24T13:32:34+01:00</time>
      </trkpt>
      <trkpt lat="43.52253" lon="6.69449">
        <ele>415.4</ele>
        <time>2024-01-24T12:32:41.964Z</time>
      </trkpt>
      <trkpt lat="43.52248" lon="6.69446">
        <ele>415.7</ele>
        <time>2024-01-24T13:32:49+01:00</time>
      </trkpt>
      <trkpt lat="43.52243" lon="6.69444">
        <ele>416</ele>
        <time>2024-01-24T12:32:53.999Z</time>
      </trkpt>
      <trkpt lat="43.52238" lon="6.69442">
        <ele>416</ele>
        <time>2024-01-24T13:32:59+01:00</time>
      </trkpt>
      <trkpt lat="43.52234" lon="6.69438">
        <ele>415.9</ele>
        <time>2024-01-24T12:33:05.912Z</time>
      </trkpt>
      <trkpt lat="43.52229" lon="6.69434">
        <ele>415.7</ele>
        <time>2024-01-24T13:33:14+01:00</time>
      </trkpt>
      <trkpt lat="43.52224" lon="6.69437">
        <ele>415.7</ele>
        <time>2024-01-24T12:33:19.115Z</time>
      </trkpt>
      <trkpt lat="43.52219" lon="6.69439">
        <ele>415.9</ele>
        <time>2024-01-24T13:33:24+01:00</time>
      </trkpt>
      <trkpt lat="43.52212" lon="6.69441">
        <ele>416.2</ele>
        <time>2024-01-24T12:33:32.049Z</time>
      </trkpt>
      <trkpt lat="43.52206" lon="6.69443">
        <ele>416.5</ele>
        <time>2024-01-24T13:33:39+01:00</time>
      </trkpt>
      <trkpt lat="43.52201" lon="6.69444">
        <ele>416.7</ele>
        <time>2024-01-24T12:33:44.000Z</time>
      </trkpt>
      <trkpt lat="43.52196" lon="6.69445">
        <ele>417</ele>
        <time>2024-01-24T13:33:49+01:00</time>
      </trkpt>
      <trkpt lat="43.52189" lon="6.69447">
        <ele>417.3</ele>
        <time>2024-01-24T12:33:56.499Z</time>
      </trkpt>
      <trkpt lat="43.52182" lon="6.69449">
        <ele>417.8</ele>
        <time>2024-01-24T13:34:04+01:00</time>
      </trkpt>
      <trkpt lat="43.52177" lon="6.69448">
        <ele>418.1</ele>
        <time>2024-01-24T12:34:09.541Z</time>
      </trkpt>
      <trkpt lat="43.52173" lon="6.69447">
        <ele>418.5</ele>
        <time>2024-01-24T13:34:14+01:00</time>
      </trkpt>
      <trkpt lat="43.52168" lon="6.69445">
        <ele>418.9</ele>
        <time>2024-01-24T12:34:21.499Z</time>
      </trkpt>
      <trkpt lat="43.52163" lon="6.69443">
        <ele>419.1</ele>
        <time>2024-01-24T13:34:29+01:00</time>
      </trkpt>
      <trkpt lat="43.5216" lon="6.69448">
        <ele>419</ele>
        <time>2024-01-24T12:34:36.499Z</time>
      </trkpt>
      <trkpt lat="43.52157" lon="6.69453">
        <ele>418.7</ele>
        <time>2024-01-24T13:34:44+01:00</time>
      </trkpt>
      <trkpt lat="43.52155" lon="6.69459">
        <ele>418.2</ele>
        <time>2024-01-24T12:34:51.011Z</time>
      </trkpt>
      <trkpt lat="43.52153" lon="6.69466">
        <ele>417.6</ele>
        <time>2024-01-24T13:34:59+01:00</time>
      </trkpt>
      <trkpt lat="43.5215" lon="6.69471">
        <ele>417</ele>
        <time>2024-01-24T12:35:14.900Z</time>
      </trkpt>
      <trkpt lat="43.52147" lon="6.69475">
        <ele>416.3</ele>
        <time>2024-01-24T13:35:29+01:00</time>
      </trkpt>
      <trkpt lat="43.52147" lon="6.69483">
        <ele>415.7</ele>
        <time>2024-01-24T12:35:37.000Z</time>
      </trkpt>
      <trkpt lat="43.52147" lon="6.6949">
        <ele>415.1</ele>
        <time>2024-01-24T13:35:44+01:00</time>
      </trkpt>
      <trkpt lat="43.52143" lon="6.69495">
        <ele>414.5</ele>
        <time>2024-01-24T12:35:50.733Z</time>
      </trkpt>
      <trkpt lat="43.52138" lon="6.69501">
        <ele>413.7</ele>
        <time>2024-01-24T13:35:59+01:00</time>
      </trkpt>
      <trkpt lat="43.52134" lon="6.69503">
        <ele>412.1</ele>
        <time>2024-01-24T12:36:05.745Z</time>
      </trkpt>
      <trkpt lat="43.52129" lon="6.69505">
        <ele>410.7</ele>
        <time>2024-01-24T13:36:14+01:00</time>
      </trkpt>
      <trkpt lat="43.52131" lon="6.69509">
        <ele>410.5</ele>
        <time>2024-01-24T13:47:39+01:00</time>
      </trkpt>
      <trkpt lat="43.5213" lon="6.69516">
        <ele>409.4</ele>
        <time>2024-01-24T12:48:19.380Z</time>
      </trkpt>
      <trkpt lat="43.5213" lon="6.69523">
        <ele>408.3</ele>
        <time>2024-01-24T13:48:59+01:00</time>
      </trkpt>
      <trkpt lat="43.52129" lon="6.6953">
        <ele>407</ele>
        <time>2024-01-24T12:49:08.999Z</time>
      </trkpt>
      <trkpt lat="43.52128" lon="6.69537">
        <ele>404.9</ele>
        <time>2024-01-24T13:49:19+01:00</time>
      </trkpt>
      <trkpt lat="43.52125" lon="6.69543">
        <ele>403.1</ele>
        <time>2024-01-24T12:49:34.745Z</time>
      </trkpt>
      <trkpt lat="43.52121" lon="6.6955">
        <ele>401.7</ele>
        <time>2024-01-24T13:49:54+01:00</time>
      </trkpt>
      <trkpt lat="43.52118" lon="6.69556">
        <ele>400.7</ele>
        <time>2024-01-24T12:50:01.081Z</time>
      </trkpt>
      <trkpt lat="43.52114" lon="6.69562">
        <ele>399.5</ele>
        <time>2024-01-24T13:50:09+01:00</time>
      </trkpt>
      <trkpt lat="43.52108" lon="6.69566">
        <ele>398.5</ele>
        <time>2024-01-24T13:52:04+01:00</time>
      </trkpt>
      <trkpt lat="43.52101" lon="6.69571">
        <ele>396.5</ele>
        <time>2024-01-24T13:52:24+01:00</time>
      </trkpt>
      <trkpt lat="43.52096" lon="6.69573">
        <ele>395.8</ele>
        <time>2024-01-24T13:52:49+01:00</time>
      </trkpt>
      <trkpt lat="43.52095" lon="6.69579">
        <ele>395.4</ele>
        <time>2024-01-24T12:53:11.499Z</time>
      </trkpt>
      <trkpt lat="43.52094" lon="6.69585">
        <ele>394.9</ele>
        <time>2024-01-24T13:53:34+01:00</time>
      </trkpt>
      <trkpt lat="43.52089" lon="6.69586">
        <ele>395.2</ele>
        <time>2024-01-24T12:54:11.695Z</time>
      </trkpt>
      <trkpt lat="43.52084" lon="6.69586">
        <ele>395.5</ele>
        <time>2024-01-24T13:54:49+01:00</time>
      </trkpt>
      <trkpt lat="43.52077" lon="6.69588">
        <ele>392.2</ele>
        <time>2024-01-24T12:55:54.025Z</time>
      </trkpt>
      <trkpt lat="43.52071" lon="6.69589">
        <ele>388.4</ele>
        <time>2024-01-24T13:56:49+01:00</time>
      </trkpt>
      <trkpt lat="43.52076" lon="6.69586">
        <ele>392.1</ele>
        <time>2024-01-24T12:57:05.125Z</time>
      </trkpt>
      <trkpt lat="43.52082" lon="6.69583">
        <ele>395.3</ele>
        <time>2024-01-24T13:57:24+01:00</time>
      </trkpt>
      <trkpt lat="43.52078" lon="6.69578">
        <ele>393.1</ele>
        <time>2024-01-24T12:58:22.770Z</time>
      </trkpt>
      <trkpt lat="43.52075" lon="6.69573">
        <ele>391</ele>
        <time>2024-01-24T13:59:14+01:00</time>
      </trkpt>
      <trkpt lat="43.52073" lon="6.69566">
        <ele>389.9</ele>
        <time>2024-01-24T12:59:30.835Z</time>
      </trkpt>
      <trkpt lat="43.52072" lon="6.69558">
        <ele>389</ele>
        <time>2024-01-24T13:59:49+01:00</time>
      </trkpt>
      <trkpt lat="43.52067" lon="6.69556">
        <ele>387.3</ele>
        <time>2024-01-24T13:00:35.773Z</time>
      </trkpt>
      <trkpt lat="43.52063" lon="6.69554">
        <ele>385.5</ele>
        <time>2024-01-24T14:01:14+01:00</time>
      </trkpt>
      <trkpt lat="43.52058" lon="6.69557">
        <ele>383.7</ele>
        <time>2024-01-24T13:02:07.938Z</time>
      </trkpt>
      <trkpt lat="43.52052" lon="6.69559">
        <ele>380.8</ele>
        <time>2024-01-24T14:03:09+01:00</time>
      </trkpt>
      <trkpt lat="43.52051" lon="6.69566">
        <ele>379.7</ele>
        <time>2024-01-24T13:03:28.468Z</time>
      </trkpt>
      <trkpt lat="43.52049" lon="6.69573">
        <ele>378.7</ele>
        <time>2024-01-24T14:03:49+01:00</time>
      </trkpt>
      <trkpt lat="43.52049" lon="6.6958">
        <ele>378.5</ele>
        <time>2024-01-24T13:04:03.000Z</time>
      </trkpt>
      <trkpt lat="43.52049" lon="6.69588">
        <ele>377.1</ele>
        <time>2024-01-24T14:04:19+01:00</time>
      </trkpt>
      <trkpt lat="43.5205" lon="6.69597">
        <ele>375.1</ele>
        <time>2024-01-24T13:04:55.876Z</time>
      </trkpt>
      <trkpt lat="43.52052" lon="6.69606">
        <ele>373.1</ele>
        <time>2024-01-24T14:05:34+01:00</time>
      </trkpt>
      <trkpt lat="43.52052" lon="6.69613">
        <ele>371.6</ele>
        <time>2024-01-24T13:05:41.000Z</time>
      </trkpt>
      <trkpt lat="43.52052" lon="6.69621">
        <ele>371</ele>
        <time>2024-01-24T14:05:49+01:00</time>
      </trkpt>
      <trkpt lat="43.52052" lon="6.69627">
        <ele>370</ele>
        <time>2024-01-24T13:05:58.136Z</time>
      </trkpt>
      <trkpt lat="43.52051" lon="6.69634">
        <ele>368.9</ele>
        <time>2024-01-24T14:06:09+01:00</time>
      </trkpt>
      <trkpt lat="43.52049" lon="6.6964">
        <ele>367</ele>
        <time>2024-01-24T13:06:30.450Z</time>
      </trkpt>
      <trkpt lat="43.52047" lon="6.69645">
        <ele>364.3</ele>
        <time>2024-01-24T14:06:49+01:00</time>
      </trkpt>
      <trkpt lat="43.52046" lon="6.69654">
        <ele>362</ele>
        <time>2024-01-24T13:06:59.646Z</time>
      </trkpt>
      <trkpt lat="43.52046" lon="6.69662">
        <ele>359.8</ele>
        <time>2024-01-24T14:07:09+01:00</time>
      </trkpt>
      <trkpt lat="43.52043" lon="6.6967">
        <ele>356.8</ele>
        <time>2024-01-24T13:07:19.311Z</time>
      </trkpt>
      <trkpt lat="43.52041" lon="6.69678">
        <ele>354</ele>
        <time>2024-01-24T14:07:29+01:00</time>
      </trkpt>
      <trkpt lat="43.5204" lon="6.69686">
        <ele>352.2</ele>
        <time>2024-01-24T13:07:39.073Z</time>
      </trkpt>
      <trkpt lat="43.5204" lon="6.69694">
        <ele>350.4</ele>
        <time>2024-01-24T14:07:49+01:00</time>
      </trkpt>
      <trkpt lat="43.52043" lon="6.69702">
        <ele>349.9</ele>
        <time>2024-01-24T13:07:56.733Z</time>
      </trkpt>
      <trkpt lat="43.52045" lon="6.6971">
        <ele>349.3</ele>
        <time>2024-01-24T14:08:04+01:00</time>
      </trkpt>
      <trkpt lat="43.52045" lon="6.69717">
        <ele>347.8</ele>
        <time>2024-01-24T13:08:09.320Z</time>
      </trkpt>
      <trkpt lat="43.52044" lon="6.69723">
        <ele>346.5</ele>
        <time>2024-01-24T14:08:14+01:00</time>
      </trkpt>
      <trkpt lat="43.52044" lon="6.69731">
        <ele>346.2</ele>
        <time>2024-01-24T13:08:21.500Z</time>
      </trkpt>
      <trkpt lat="43.52044" lon="6.69739">
        <ele>345.9</ele>
        <time>2024-01-24T14:08:29+01:00</time>
      </trkpt>
      <trkpt lat="43.52048" lon="6.69742">
        <ele>345.9</ele>
        <time>2024-01-24T13:10:41.500Z</time>
      </trkpt>
      <trkpt lat="43.52052" lon="6.69745">
        <ele>345.7</ele>
        <time>2024-01-24T14:12:54+01:00</time>
      </trkpt>
      <trkpt lat="43.52057" lon="6.69746">
        <ele>345.2</ele>
        <time>2024-01-24T13:13:01.500Z</time>
      </trkpt>
      <trkpt lat="43.52062" lon="6.69747">
        <ele>343.9</ele>
        <time>2024-01-24T14:13:09+01:00</time>
      </trkpt>
      <trkpt lat="43.52068" lon="6.69748">
        <ele>342.5</ele>
        <time>2024-01-24T13:13:17.208Z</time>
      </trkpt>
      <trkpt lat="43.52073" lon="6.69748">
        <ele>341.1</ele>
        <time>2024-01-24T14:13:24+01:00</time>
      </trkpt>
      <trkpt lat="43.5208" lon="6.69745">
        <ele>340.4</ele>
        <time>2024-01-24T13:13:32.000Z</time>
      </trkpt>
      <trkpt lat="43.52087" lon="6.69742">
        <ele>339.8</ele>
        <time>2024-01-24T14:13:40+01:00</time>
      </trkpt>
      <trkpt lat="43.52092" lon="6.69741">
        <ele>338.9</ele>
        <time>2024-01-24T13:13:45.541Z</time>
      </trkpt>
      <trkpt lat="43.52096" lon="6.6974">
        <ele>338</ele>
        <time>2024-01-24T14:13:50+01:00</time>
      </trkpt>
      <trkpt lat="43.52103" lon="6.69738">
        <ele>337.1</ele>
        <time>2024-01-24T13:13:58.049Z</time>
      </trkpt>
      <trkpt lat="43.52109" lon="6.69736">
        <ele>336.2</ele>
        <time>2024-01-24T14:14:05+01:00</time>
      </trkpt>
      <trkpt lat="43.52115" lon="6.69733">
        <ele>335.4</ele>
        <time>2024-01-24T13:14:10.083Z</time>
      </trkpt>
      <trkpt lat="43.52121" lon="6.69731">
        <ele>334.4</ele>
        <time>2024-01-24T14:14:15+01:00</time>
      </trkpt>
      <trkpt lat="43.52127" lon="6.69726">
        <ele>334.4</ele>
        <time>2024-01-24T13:14:20.140Z</time>
      </trkpt>
      <trkpt lat="43.52132" lon="6.6972">
        <ele>334.5</ele>
        <time>2024-01-24T14:14:25+01:00</time>
      </trkpt>
      <trkpt lat="43.52136" lon="6.69717">
        <ele>334.4</ele>
        <time>2024-01-24T13:14:30.000Z</time>
      </trkpt>
      <trkpt lat="43.5214" lon="6.69714">
        <ele>334.4</ele>
        <time>2024-01-24T14:14:35+01:00</time>
      </trkpt>
      <trkpt lat="43.52145" lon="6.6971">
        <ele>334.2</ele>
        <time>2024-01-24T13:14:40.000Z</time>
      </trkpt>
      <trkpt lat="43.5215" lon="6.69706">
        <ele>334</ele>
        <time>2024-01-24T14:14:45+01:00</time>
      </trkpt>
      <trkpt lat="43.52156" lon="6.69704">
        <ele>333.1</ele>
        <time>2024-01-24T13:14:50.000Z</time>
      </trkpt>
      <trkpt lat="43.52162" lon="6.69702">
        <ele>332.1</ele>
        <time>2024-01-24T14:14:55+01:00</time>
      </trkpt>
      <trkpt lat="43.52167" lon="6.697">
        <ele>331.5</ele>
        <time>2024-01-24T13:14:59.492Z</time>
      </trkpt>
      <trkpt lat="43.52173" lon="6.69697">
        <ele>331.8</ele>
        <time>2024-01-24T14:15:05+01:00</time>
      </trkpt>
      <trkpt lat="43.52177" lon="6.69698">
        <ele>331.2</ele>
        <time>2024-01-24T13:15:09.484Z</time>
      </trkpt>
      <trkpt lat="43.52182" lon="6.69698">
        <ele>330.7</ele>
        <time>2024-01-24T14:15:15+01:00</time>
      </trkpt>
      <trkpt lat="43.52189" lon="6.69698">
        <ele>330.1</ele>
        <time>2024-01-24T13:15:20.000Z</time>
      </trkpt>
      <trkpt lat="43.52196" lon="6.69698">
        <ele>329.6</ele>
        <time>2024-01-24T14:15:25+01:00</time>
      </trkpt>
      <trkpt lat="43.52203" lon="6.69698">
        <ele>329.7</ele>
        <time>2024-01-24T13:15:29.986Z</time>
      </trkpt>
      <trkpt lat="43.5221" lon="6.69697">
        <ele>329.7</ele>
        <time>2024-01-24T14:15:35+01:00</time>
      </trkpt>
      <trkpt lat="43.52217" lon="6.69699">
        <ele>328.9</ele>
        <time>2024-01-24T13:15:40.039Z</time>
      </trkpt>
      <trkpt lat="43.52224" lon="6.697">
        <ele>328</ele>
        <time>2024-01-24T14:15:45+01:00</time>
      </trkpt>
      <trkpt lat="43.52229" lon="6.69701">
        <ele>327.5</ele>
        <time>2024-01-24T13:15:50.000Z</time>
      </trkpt>
      <trkpt lat="43.52234" lon="6.69702">
        <ele>327.1</ele>
        <time>2024-01-24T14:15:55+01:00</time>
      </trkpt>
      <trkpt lat="43.52239" lon="6.69702">
        <ele>326.7</ele>
        <time>2024-01-24T13:16:00.000Z</time>
      </trkpt>
      <trkpt lat="43.52244" lon="6.69702">
        <ele>326.3</ele>
        <time>2024-01-24T14:16:05+01:00</time>
      </trkpt>
      <trkpt lat="43.52249" lon="6.69703">
        <ele>325.8</ele>
        <time>2024-01-24T13:16:10.541Z</time>
      </trkpt>
      <trkpt lat="43.52253" lon="6.69704">
        <ele>325.4</ele>
        <time>2024-01-24T14:16:15+01:00</time>
      </trkpt>
      <trkpt lat="43.52258" lon="6.69706">
        <ele>324.7</ele>
        <time>2024-01-24T13:16:22.500Z</time>
      </trkpt>
      <trkpt lat="43.52263" lon="6.69708">
        <ele>323.9</ele>
        <time>2024-01-24T14:16:30+01:00</time>
      </trkpt>
      <trkpt lat="43.52269" lon="6.69708">
        <ele>323.6</ele>
        <time>2024-01-24T13:16:35.000Z</time>
      </trkpt>
      <trkpt lat="43.52275" lon="6.69708">
        <ele>323.3</ele>
        <time>2024-01-24T14:16:40+01:00</time>
      </trkpt>
      <trkpt lat="43.52281" lon="6.69712">
        <ele>322.3</ele>
        <time>2024-01-24T13:16:47.310Z</time>
      </trkpt>
      <trkpt lat="43.52287" lon="6.69717">
        <ele>322</ele>
        <time>2024-01-24T14:16:55+01:00</time>
      </trkpt>
      <trkpt lat="43.5229" lon="6.69722">
        <ele>320.9</ele>
        <time>2024-01-24T13:17:00.000Z</time>
      </trkpt>
      <trkpt lat="43.52293" lon="6.69727">
        <ele>320</ele>
        <time>2024-01-24T14:17:05+01:00</time>
      </trkpt>
      <trkpt lat="43.52299" lon="6.69733">
        <ele>319.3</ele>
        <time>2024-01-24T13:17:12.280Z</time>
      </trkpt>
      <trkpt lat="43.52305" lon="6.6974">
        <ele>318.5</ele>
        <time>2024-01-24T14:17:20+01:00</time>
      </trkpt>
      <trkpt lat="43.52311" lon="6.69744">
        <ele>317.4</ele>
        <time>2024-01-24T13:17:27.310Z</time>
      </trkpt>
      <trkpt lat="43.52317" lon="6.69749">
        <ele>315.8</ele>
        <time>2024-01-24T14:17:35+01:00</time>
      </trkpt>
      <trkpt lat="43.52322" lon="6.69751">
        <ele>315.2</ele>
        <time>2024-01-24T13:17:40.000Z</time>
      </trkpt>
      <trkpt lat="43.52327" lon="6.69753">
        <ele>314.6</ele>
        <time>2024-01-24T14:17:45+01:00</time>
      </trkpt>
      <trkpt lat="43.52331" lon="6.69753">
        <ele>314.5</ele>
        <time>2024-01-24T13:17:49.444Z</time>
      </trkpt>
      <trkpt lat="43.52336" lon="6.69753">
        <ele>314.6</ele>
        <time>2024-01-24T14:17:55+01:00</time>
      </trkpt>
      <trkpt lat="43.52341" lon="6.69754">
        <ele>314.7</ele>
        <time>2024-01-24T13:18:00.026Z</time>
      </trkpt>
      <trkpt lat="43.52346" lon="6.69754">
        <ele>314.8</ele>
        <time>2024-01-24T14:18:05+01:00</time>
      </trkpt>
      <trkpt lat="43.52351" lon="6.69755">
        <ele>314.9</ele>
        <time>2024-01-24T13:18:10.541Z</time>
      </trkpt>
      <trkpt lat="43.52355" lon="6.69756">
        <ele>314.9</ele>
        <time>2024-01-24T14:18:15+01:00</time>
      </trkpt>
      <trkpt lat="43.5236" lon="6.69761">
        <ele>313.9</ele>
        <time>2024-01-24T13:18:20.555Z</time>
      </trkpt>
      <trkpt lat="43.52364" lon="6.69765">
        <ele>312.7</ele>
        <time>2024-01-24T14:18:25+01:00</time>
      </trkpt>
      <trkpt lat="43.52369" lon="6.6977">
        <ele>311.3</ele>
        <time>2024-01-24T13:18:32.214Z</time>
      </trkpt>
      <trkpt lat="43.52375" lon="6.69774">
        <ele>310</ele>
        <time>2024-01-24T14:18:40+01:00</time>
      </trkpt>
      <trkpt lat="43.5238" lon="6.69775">
        <ele>309.7</ele>
        <time>2024-01-24T13:18:44.553Z</time>
      </trkpt>
      <trkpt lat="43.52386" lon="6.69776">
        <ele>309.4</ele>
        <time>2024-01-24T14:18:50+01:00</time>
      </trkpt>
      <trkpt lat="43.5239" lon="6.69774">
        <ele>309.6</ele>
        <time>2024-01-24T13:18:54.382Z</time>
      </trkpt>
      <trkpt lat="43.52395" lon="6.69771">
        <ele>308.6</ele>
        <time>2024-01-24T14:19:00+01:00</time>
      </trkpt>
      <trkpt lat="43.52399" lon="6.69768">
        <ele>308</ele>
        <time>2024-01-24T13:19:04.795Z</time>
      </trkpt>
      <trkpt lat="43.52403" lon="6.69764">
        <ele>307.3</ele>
        <time>2024-01-24T14:19:10+01:00</time>
      </trkpt>
      <trkpt lat="43.52406" lon="6.69759">
        <ele>307.2</ele>
        <time>2024-01-24T13:19:14.657Z</time>
      </trkpt>
      <trkpt lat="43.5241" lon="6.69754">
        <ele>307</ele>
        <time>2024-01-24T14:19:20+01:00</time>
      </trkpt>
      <trkpt lat="43.52414" lon="6.6975">
        <ele>306</ele>
        <time>2024-01-24T13:19:24.608Z</time>
      </trkpt>
      <trkpt lat="43.52419" lon="6.69746">
        <ele>305.4</ele>
        <time>2024-01-24T14:19:30+01:00</time>
      </trkpt>
      <trkpt lat="43.52423" lon="6.69742">
        <ele>305.2</ele>
        <time>2024-01-24T13:19:35.421Z</time>
      </trkpt>
      <trkpt lat="43.52426" lon="6.69738">
        <ele>305</ele>
        <time>2024-01-24T14:19:40+01:00</time>
      </trkpt>
      <trkpt lat="43.5243" lon="6.69734">
        <ele>304.7</ele>
        <time>2024-01-24T13:19:45.204Z</time>
      </trkpt>
      <trkpt lat="43.52434" lon="6.69731">
        <ele>304.4</ele>
        <time>2024-01-24T14:19:50+01:00</time>
      </trkpt>
      <trkpt lat="43.52439" lon="6.69728">
        <ele>303.5</ele>
        <time>2024-01-24T13:19:54.854Z</time>
      </trkpt>
      <trkpt lat="43.52444" lon="6.69724">
        <ele>302.7</ele>
        <time>2024-01-24T14:20:00+01:00</time>
      </trkpt>
      <trkpt lat="43.52448" lon="6.6972">
        <ele>302.2</ele>
        <time>2024-01-24T13:20:04.753Z</time>
      </trkpt>
      <trkpt lat="43.52453" lon="6.69717">
        <ele>301.7</ele>
        <time>2024-01-24T14:20:10+01:00</time>
      </trkpt>
      <trkpt lat="43.52458" lon="6.69713">
        <ele>300.9</ele>
        <time>2024-01-24T13:20:15.593Z</time>
      </trkpt>
      <trkpt lat="43.52462" lon="6.6971">
        <ele>300</ele>
        <time>2024-01-24T14:20:20+01:00</time>
      </trkpt>
      <trkpt lat="43.52467" lon="6.69705">
        <ele>299.5</ele>
        <time>2024-01-24T13:20:25.555Z</time>
      </trkpt>
      <trkpt lat="43.52471" lon="6.69701">
        <ele>298.8</ele>
        <time>2024-01-24T14:20:30+01:00</time>
      </trkpt>
      <trkpt lat="43.52475" lon="6.69696">
        <ele>298.4</ele>
        <time>2024-01-24T13:20:35.221Z</time>
      </trkpt>
      <trkpt lat="43.52479" lon="6.69692">
        <ele>298.1</ele>
        <time>2024-01-24T14:20:40+01:00</time>
      </trkpt>
      <trkpt lat="43.52483" lon="6.69688">
        <ele>298.1</ele>
        <time>2024-01-24T13:20:45.121Z</time>
      </trkpt>
      <trkpt lat="43.52486" lon="6.69683">
        <ele>297.9</ele>
        <time>2024-01-24T14:20:50+01:00</time>
      </trkpt>
      <trkpt lat="43.52491" lon="6.69679">
        <ele>297</ele>
        <time>2024-01-24T13:20:55.391Z</time>
      </trkpt>
      <trkpt lat="43.52495" lon="6.69675">
        <ele>296</ele>
        <time>2024-01-24T14:21:00+01:00</time>
      </trkpt>
      <trkpt lat="43.52499" lon="6.6967">
        <ele>295.6</ele>
        <time>2024-01-24T13:21:05.000Z</time>
      </trkpt>
      <trkpt lat="43.52503" lon="6.69665">
        <ele>295.4</ele>
        <time>2024-01-24T14:21:10+01:00</time>
      </trkpt>
      <trkpt lat="43.52507" lon="6.69661">
        <ele>295.3</ele>
        <time>2024-01-24T13:21:14.778Z</time>
      </trkpt>
      <trkpt lat="43.52511" lon="6.69656">
        <ele>295.1</ele>
        <time>2024-01-24T14:21:20+01:00</time>
      </trkpt>
      <trkpt lat="43.52517" lon="6.69653">
        <ele>293.6</ele>
        <time>2024-01-24T13:21:32.500Z</time>
      </trkpt>
      <trkpt lat="43.52523" lon="6.6965">
        <ele>292</ele>
        <time>2024-01-24T14:21:45+01:00</time>
      </trkpt>
      <trkpt lat="43.52527" lon="6.69646">
        <ele>291.8</ele>
        <time>2024-01-24T13:21:50.421Z</time>
      </trkpt>
      <trkpt lat="43.5253" lon="6.69642">
        <ele>291.4</ele>
        <time>2024-01-24T14:21:55+01:00</time>
      </trkpt>
      <trkpt lat="43.52534" lon="6.69633">
        <ele>291.4</ele>
        <time>2024-01-24T13:22:02.500Z</time>
      </trkpt>
      <trkpt lat="43.52538" lon="6.69624">
        <ele>291.6</ele>
        <time>2024-01-24T14:22:10+01:00</time>
      </trkpt>
      <trkpt lat="43.52542" lon="6.69619">
        <ele>291.4</ele>
        <time>2024-01-24T13:22:15.000Z</time>
      </trkpt>
      <trkpt lat="43.52546" lon="6.69614">
        <ele>291.6</ele>
        <time>2024-01-24T14:22:20+01:00</time>
      </trkpt>
      <trkpt lat="43.52551" lon="6.69611">
        <ele>291.1</ele>
        <time>2024-01-24T13:22:25.000Z</time>
      </trkpt>
      <trkpt lat="43.52556" lon="6.69608">
        <ele>290.7</ele>
        <time>2024-01-24T14:22:30+01:00</time>
      </trkpt>
      <trkpt lat="43.52561" lon="6.69605">
        <ele>290.6</ele>
        <time>2024-01-24T13:22:35.000Z</time>
      </trkpt>
      <trkpt lat="43.52566" lon="6.69602">
        <ele>290.3</ele>
        <time>2024-01-24T14:22:40+01:00</time>
      </trkpt>
      <trkpt lat="43.52571" lon="6.69599">
        <ele>290</ele>
        <time>2024-01-24T13:22:45.115Z</time>
      </trkpt>
      <trkpt lat="43.52576" lon="6.69597">
        <ele>289.5</ele>
        <time>2024-01-24T14:22:50+01:00</time>
      </trkpt>
      <trkpt lat="43.5258" lon="6.69593">
        <ele>289.5</ele>
        <time>2024-01-24T13:22:54.753Z</time>
      </trkpt>
      <trkpt lat="43.52585" lon="6.6959">
        <ele>289.3</ele>
        <time>2024-01-24T14:23:00+01:00</time>
      </trkpt>
      <trkpt lat="43.5259" lon="6.69586">
        <ele>288.7</ele>
        <time>2024-01-24T13:23:05.145Z</time>
      </trkpt>
      <trkpt lat="43.52595" lon="6.69583">
        <ele>288.2</ele>
        <time>2024-01-24T14:23:10+01:00</time>
      </trkpt>
      <trkpt lat="43.52599" lon="6.69579">
        <ele>287.8</ele>
        <time>2024-01-24T13:23:14.778Z</time>
      </trkpt>
      <trkpt lat="43.52603" lon="6.69574">
        <ele>287.3</ele>
        <time>2024-01-24T14:23:20+01:00</time>
      </trkpt>
      <trkpt lat="43.52607" lon="6.69567">
        <ele>287.1</ele>
        <time>2024-01-24T13:23:27.175Z</time>
      </trkpt>
      <trkpt lat="43.52611" lon="6.69559">
        <ele>286.6</ele>
        <time>2024-01-24T14:23:35+01:00</time>
      </trkpt>
      <trkpt lat="43.52616" lon="6.69554">
        <ele>285.7</ele>
        <time>2024-01-24T13:23:40.000Z</time>
      </trkpt>
      <trkpt lat="43.52621" lon="6.69549">
        <ele>285.1</ele>
        <time>2024-01-24T14:23:45+01:00</time>
      </trkpt>
      <trkpt lat="43.52626" lon="6.69541">
        <ele>284.9</ele>
        <time>2024-01-24T13:23:55.360Z</time>
      </trkpt>
      <trkpt lat="43.52631" lon="6.69534">
        <ele>284.9</ele>
        <time>2024-01-24T14:24:05+01:00</time>
      </trkpt>
      <trkpt lat="43.52636" lon="6.69529">
        <ele>284.5</ele>
        <time>2024-01-24T13:24:10.000Z</time>
      </trkpt>
      <trkpt lat="43.52641" lon="6.69524">
        <ele>284</ele>
        <time>2024-01-24T14:24:15+01:00</time>
      </trkpt>
      <trkpt lat="43.52644" lon="6.69519">
        <ele>284</ele>
        <time>2024-01-24T13:24:19.432Z</time>
      </trkpt>
      <trkpt lat="43.52648" lon="6.69513">
        <ele>284</ele>
        <time>2024-01-24T14:24:25+01:00</time>
      </trkpt>
      <trkpt lat="43.52652" lon="6.69509">
        <ele>283.6</ele>
        <time>2024-01-24T13:24:29.778Z</time>
      </trkpt>
      <trkpt lat="43.52656" lon="6.69504">
        <ele>283.2</ele>
        <time>2024-01-24T14:24:35+01:00</time>
      </trkpt>
      <trkpt lat="43.5266" lon="6.695">
        <ele>282.9</ele>
        <time>2024-01-24T13:24:40.000Z</time>
      </trkpt>
      <trkpt lat="43.52664" lon="6.69496">
        <ele>282.6</ele>
        <time>2024-01-24T14:24:45+01:00</time>
      </trkpt>
      <trkpt lat="43.52669" lon="6.69491">
        <ele>282</ele>
        <time>2024-01-24T13:25:10.000Z</time>
      </trkpt>
      <trkpt lat="43.52674" lon="6.69486">
        <ele>281.7</ele>
        <time>2024-01-24T14:25:35+01:00</time>
      </trkpt>
      <trkpt lat="43.52678" lon="6.6948">
        <ele>281.6</ele>
        <time>2024-01-24T13:25:55.000Z</time>
      </trkpt>
      <trkpt lat="43.52682" lon="6.69474">
        <ele>281.7</ele>
        <time>2024-01-24T14:26:15+01:00</time>
      </trkpt>
      <trkpt lat="43.52688" lon="6.6947">
        <ele>281.2</ele>
        <time>2024-01-24T13:26:21.871Z</time>
      </trkpt>
      <trkpt lat="43.52695" lon="6.69465">
        <ele>280.5</ele>
        <time>2024-01-24T14:26:30+01:00</time>
      </trkpt>
      <trkpt lat="43.527" lon="6.69463">
        <ele>280.6</ele>
        <time>2024-01-24T13:26:34.884Z</time>
      </trkpt>
      <trkpt lat="43.52705" lon="6.6946">
        <ele>280.6</ele>
        <time>2024-01-24T14:26:40+01:00</time>
      </trkpt>
      <trkpt lat="43.52711" lon="6.69455">
        <ele>280.4</ele>
        <time>2024-01-24T13:26:47.689Z</time>
      </trkpt>
      <trkpt lat="43.52717" lon="6.69451">
        <ele>279.8</ele>
        <time>2024-01-24T14:26:55+01:00</time>
      </trkpt>
      <trkpt lat="43.52722" lon="6.69449">
        <ele>279.1</ele>
        <time>2024-01-24T13:27:25.265Z</time>
      </trkpt>
      <trkpt lat="43.52726" lon="6.69447">
        <ele>278.5</ele>
        <time>2024-01-24T14:27:50+01:00</time>
      </trkpt>
      <trkpt lat="43.52731" lon="6.69442">
        <ele>278</ele>
        <time>2024-01-24T13:27:57.748Z</time>
      </trkpt>
      <trkpt lat="43.52736" lon="6.69438">
        <ele>277.6</ele>
        <time>2024-01-24T14:28:05+01:00</time>
      </trkpt>
      <trkpt lat="43.52742" lon="6.69434">
        <ele>276.9</ele>
        <time>2024-01-24T13:28:12.310Z</time>
      </trkpt>
      <trkpt lat="43.52748" lon="6.69429">
        <ele>276</ele>
        <time>2024-01-24T14:28:20+01:00</time>
      </trkpt>
      <trkpt lat="43.52752" lon="6.69423">
        <ele>275.5</ele>
        <time>2024-01-24T13:28:27.334Z</time>
      </trkpt>
      <trkpt lat="43.52757" lon="6.69418">
        <ele>275.2</ele>
        <time>2024-01-24T14:28:35+01:00</time>
      </trkpt>
      <trkpt lat="43.5276" lon="6.69414">
        <ele>275.3</ele>
        <time>2024-01-24T13:28:39.699Z</time>
      </trkpt>
      <trkpt lat="43.52763" lon="6.69409">
        <ele>275.2</ele>
        <time>2024-01-24T14:28:45+01:00</time>
      </trkpt>
      <trkpt lat="43.52769" lon="6.69405">
        <ele>274.7</ele>
        <time>2024-01-24T13:28:51.871Z</time>
      </trkpt>
      <trkpt lat="43.52776" lon="6.694">
        <ele>274</ele>
        <time>2024-01-24T14:29:00+01:00</time>
      </trkpt>
      <trkpt lat="43.5278" lon="6.69398">
        <ele>273.4</ele>
        <time>2024-01-24T13:29:07.245Z</time>
      </trkpt>
      <trkpt lat="43.52784" lon="6.69395">
        <ele>273</ele>
        <time>2024-01-24T14:29:15+01:00</time>
      </trkpt>
      <trkpt lat="43.52788" lon="6.69389">
        <ele>272.9</ele>
        <time>2024-01-24T13:29:33.291Z</time>
      </trkpt>
      <trkpt lat="43.52792" lon="6.69384">
        <ele>272.9</ele>
        <time>2024-01-24T14:29:50+01:00</time>
      </trkpt>
      <trkpt lat="43.52797" lon="6.69378">
        <ele>272.7</ele>
        <time>2024-01-24T13:29:57.500Z</time>
      </trkpt>
      <trkpt lat="43.52802" lon="6.69372">
        <ele>272.3</ele>
        <time>2024-01-24T14:30:05+01:00</time>
      </trkpt>
      <trkpt lat="43.52806" lon="6.69365">
        <ele>271.9</ele>
        <time>2024-01-24T13:30:12.500Z</time>
      </trkpt>
      <trkpt lat="43.5281" lon="6.69358">
        <ele>271.5</ele>
        <time>2024-01-24T14:30:20+01:00</time>
      </trkpt>
      <trkpt lat="43.52813" lon="6.69352">
        <ele>271.3</ele>
        <time>2024-01-24T13:30:27.500Z</time>
      </trkpt>
      <trkpt lat="43.52816" lon="6.69346">
        <ele>271.1</ele>
        <time>2024-01-24T14:30:35+01:00</time>
      </trkpt>
      <trkpt lat="43.52818" lon="6.6934">
        <ele>270.9</ele>
        <time>2024-01-24T13:30:40.043Z</time>
      </trkpt>
      <trkpt lat="43.52821" lon="6.69335">
        <ele>270.7</ele>
        <time>2024-01-24T14:30:45+01:00</time>
      </trkpt>
      <trkpt lat="43.52823" lon="6.69329">
        <ele>270.7</ele>
        <time>2024-01-24T13:30:49.674Z</time>
      </trkpt>
      <trkpt lat="43.52825" lon="6.69322">
        <ele>270.7</ele>
        <time>2024-01-24T14:30:55+01:00</time>
      </trkpt>
      <trkpt lat="43.52828" lon="6.69316">
        <ele>270.5</ele>
        <time>2024-01-24T13:31:00.246Z</time>
      </trkpt>
      <trkpt lat="43.5283" lon="6.6931">
        <ele>270.4</ele>
        <time>2024-01-24T14:31:05+01:00</time>
      </trkpt>
      <trkpt lat="43.52833" lon="6.69303">
        <ele>270.1</ele>
        <time>2024-01-24T13:31:12.116Z</time>
      </trkpt>
      <trkpt lat="43.52836" lon="6.69295">
        <ele>269.7</ele>
        <time>2024-01-24T14:31:20+01:00</time>
      </trkpt>
      <trkpt lat="43.52837" lon="6.69289">
        <ele>269.5</ele>
        <time>2024-01-24T13:31:24.824Z</time>
      </trkpt>
      <trkpt lat="43.52839" lon="6.69283">
        <ele>269.3</ele>
        <time>2024-01-24T14:31:30+01:00</time>
      </trkpt>
      <trkpt lat="43.52841" lon="6.69277">
        <ele>269.2</ele>
        <time>2024-01-24T13:31:34.753Z</time>
      </trkpt>
      <trkpt lat="43.52844" lon="6.69271">
        <ele>269.3</ele>
        <time>2024-01-24T14:31:40+01:00</time>
      </trkpt>
      <trkpt lat="43.52845" lon="6.69264">
        <ele>269.5</ele>
        <time>2024-01-24T13:31:45.193Z</time>
      </trkpt>
      <trkpt lat="43.52847" lon="6.69258">
        <ele>269.6</ele>
        <time>2024-01-24T14:31:50+01:00</time>
      </trkpt>
      <trkpt lat="43.5285" lon="6.69251">
        <ele>269.6</ele>
        <time>2024-01-24T13:31:55.518Z</time>
      </trkpt>
      <trkpt lat="43.52852" lon="6.69245">
        <ele>269.5</ele>
        <time>2024-01-24T14:32:00+01:00</time>
      </trkpt>
      <trkpt lat="43.52854" lon="6.69238">
        <ele>269.5</ele>
        <time>2024-01-24T13:32:05.325Z</time>
      </trkpt>
      <trkpt lat="43.52856" lon="6.69232">
        <ele>269.4</ele>
        <time>2024-01-24T14:32:10+01:00</time>
      </trkpt>
      <trkpt lat="43.52858" lon="6.69226">
        <ele>269.3</ele>
        <time>2024-01-24T13:32:14.753Z</time>
      </trkpt>
      <trkpt lat="43.52861" lon="6.6922">
        <ele>268.9</ele>
        <time>2024-01-24T14:32:20+01:00</time>
      </trkpt>
      <trkpt lat="43.52863" lon="6.69214">
        <ele>268.5</ele>
        <time>2024-01-24T13:32:25.175Z</time>
      </trkpt>
      <trkpt lat="43.52864" lon="6.69208">
        <ele>268.2</ele>
        <time>2024-01-24T14:32:30+01:00</time>
      </trkpt>
      <trkpt lat="43.52867" lon="6.69199">
        <ele>267.6</ele>
        <time>2024-01-24T13:32:37.500Z</time>
      </trkpt>
      <trkpt lat="43.5287" lon="6.6919">
        <ele>267.5</ele>
        <time>2024-01-24T14:32:45+01:00</time>
      </trkpt>
      <trkpt lat="43.52872" lon="6.69184">
        <ele>267.6</ele>
        <time>2024-01-24T13:32:49.806Z</time>
      </trkpt>
      <trkpt lat="43.52873" lon="6.69177">
        <ele>267.7</ele>
        <time>2024-01-24T14:32:55+01:00</time>
      </trkpt>
      <trkpt lat="43.52877" lon="6.69173">
        <ele>267.6</ele>
        <time>2024-01-24T13:32:59.778Z</time>
      </trkpt>
      <trkpt lat="43.52881" lon="6.69168">
        <ele>267.5</ele>
        <time>2024-01-24T14:33:05+01:00</time>
      </trkpt>
      <trkpt lat="43.52886" lon="6.69164">
        <ele>267.1</ele>
        <time>2024-01-24T13:33:10.593Z</time>
      </trkpt>
      <trkpt lat="43.5289" lon="6.69161">
        <ele>266.7</ele>
        <time>2024-01-24T14:33:15+01:00</time>
      </trkpt>
      <trkpt lat="43.52895" lon="6.69156">
        <ele>266.2</ele>
        <time>2024-01-24T13:33:22.025Z</time>
      </trkpt>
      <trkpt lat="43.52901" lon="6.69151">
        <ele>265.8</ele>
        <time>2024-01-24T14:33:30+01:00</time>
      </trkpt>
      <trkpt lat="43.52905" lon="6.69148">
        <ele>265.6</ele>
        <time>2024-01-24T13:33:35.000Z</time>
      </trkpt>
      <trkpt lat="43.52909" lon="6.69145">
        <ele>265.3</ele>
        <time>2024-01-24T14:33:40+01:00</time>
      </trkpt>
      <trkpt lat="43.52914" lon="6.69139">
        <ele>265.1</ele>
        <time>2024-01-24T13:33:47.929Z</time>
      </trkpt>
      <trkpt lat="43.52918" lon="6.69133">
        <ele>264.6</ele>
        <time>2024-01-24T14:33:55+01:00</time>
      </trkpt>
      <trkpt lat="43.52923" lon="6.69128">
        <ele>264.1</ele>
        <time>2024-01-24T13:34:00.335Z</time>
      </trkpt>
      <trkpt lat="43.52927" lon="6.69123">
        <ele>263.7</ele>
        <time>2024-01-24T14:34:05+01:00</time>
      </trkpt>
      <trkpt lat="43.52929" lon="6.69117">
        <ele>263.6</ele>
        <time>2024-01-24T13:34:10.043Z</time>
      </trkpt>
      <trkpt lat="43.52932" lon="6.69112">
        <ele>263.5</ele>
        <time>2024-01-24T14:34:15+01:00</time>
      </trkpt>
      <trkpt lat="43.52935" lon="6.69106">
        <ele>263.2</ele>
        <time>2024-01-24T13:34:20.606Z</time>
      </trkpt>
      <trkpt lat="43.52937" lon="6.69101">
        <ele>263</ele>
        <time>2024-01-24T14:34:25+01:00</time>
      </trkpt>
      <trkpt lat="43.52941" lon="6.69096">
        <ele>262.6</ele>
        <time>2024-01-24T13:34:32.831Z</time>
      </trkpt>
      <trkpt lat="43.52945" lon="6.69092">
        <ele>262.3</ele>
        <time>2024-01-24T14:34:40+01:00</time>
      </trkpt>
      <trkpt lat="43.52951" lon="6.69087">
        <ele>261.9</ele>
        <time>2024-01-24T13:34:47.689Z</time>
      </trkpt>
      <trkpt lat="43.52957" lon="6.69083">
        <ele>261.6</ele>
        <time>2024-01-24T14:34:55+01:00</time>
      </trkpt>
      <trkpt lat="43.52963" lon="6.69081">
        <ele>261.4</ele>
        <time>2024-01-24T13:35:01.950Z</time>
      </trkpt>
      <trkpt lat="43.5297" lon="6.69079">
        <ele>261.2</ele>
        <time>2024-01-24T14:35:10+01:00</time>
      </trkpt>
      <trkpt lat="43.52976" lon="6.69079">
        <ele>260.9</ele>
        <time>2024-01-24T13:35:18.143Z</time>
      </trkpt>
      <trkpt lat="43.52981" lon="6.69078">
        <ele>260.6</ele>
        <time>2024-01-24T14:35:25+01:00</time>
      </trkpt>
      <trkpt lat="43.52987" lon="6.69082">
        <ele>260</ele>
        <time>2024-01-24T13:35:34.746Z</time>
      </trkpt>
      <trkpt lat="43.52993" lon="6.69087">
        <ele>259.6</ele>
        <time>2024-01-24T14:35:45+01:00</time>
      </trkpt>
      <trkpt lat="43.52998" lon="6.69089">
        <ele>259.3</ele>
        <time>2024-01-24T13:35:50.000Z</time>
      </trkpt>
      <trkpt lat="43.53003" lon="6.69091">
        <ele>259.2</ele>
        <time>2024-01-24T14:35:55+01:00</time>
      </trkpt>
      <trkpt lat="43.53007" lon="6.69094">
        <ele>259.1</ele>
        <time>2024-01-24T13:35:59.665Z</time>
      </trkpt>
      <trkpt lat="43.53012" lon="6.69096">
        <ele>259.1</ele>
        <time>2024-01-24T14:36:05+01:00</time>
      </trkpt>
      <trkpt lat="43.53017" lon="6.69096">
        <ele>258.8</ele>
        <time>2024-01-24T13:36:38.956Z</time>
      </trkpt>
      <trkpt lat="43.53023" lon="6.69095">
        <ele>258.6</ele>
        <time>2024-01-24T14:37:20+01:00</time>
      </trkpt>
      <trkpt lat="43.53029" lon="6.69097">
        <ele>258.5</ele>
        <time>2024-01-24T13:37:25.000Z</time>
      </trkpt>
      <trkpt lat="43.53035" lon="6.69099">
        <ele>258.4</ele>
        <time>2024-01-24T14:37:30+01:00</time>
      </trkpt>
      <trkpt lat="43.5304" lon="6.691">
        <ele>258.3</ele>
        <time>2024-01-24T13:37:35.000Z</time>
      </trkpt>
      <trkpt lat="43.53045" lon="6.69101">
        <ele>258.1</ele>
        <time>2024-01-24T14:37:40+01:00</time>
      </trkpt>
      <trkpt lat="43.53049" lon="6.69098">
        <ele>258.1</ele>
        <time>2024-01-24T13:37:46.609Z</time>
      </trkpt>
      <trkpt lat="43.53054" lon="6.69094">
        <ele>258.2</ele>
        <time>2024-01-24T14:37:55+01:00</time>
      </trkpt>
      <trkpt lat="43.53055" lon="6.69087">
        <ele>258.7</ele>
        <time>2024-01-24T13:38:20.000Z</time>
      </trkpt>
      <trkpt lat="43.53056" lon="6.6908">
        <ele>259.1</ele>
        <time>2024-01-24T14:38:45+01:00</time>
      </trkpt>
      <trkpt lat="43.53056" lon="6.69074">
        <ele>259.3</ele>
        <time>2024-01-24T13:38:51.852Z</time>
      </trkpt>
      <trkpt lat="43.53057" lon="6.69067">
        <ele>259.5</ele>
        <time>2024-01-24T14:39:00+01:00</time>
      </trkpt>
      <trkpt lat="43.53053" lon="6.69061">
        <ele>259.9</ele>
        <time>2024-01-24T13:39:12.499Z</time>
      </trkpt>
      <trkpt lat="43.53049" lon="6.69055">
        <ele>260.3</ele>
        <time>2024-01-24T14:39:25+01:00</time>
      </trkpt>
      <trkpt lat="43.53044" lon="6.6905">
        <ele>260.5</ele>
        <time>2024-01-24T13:39:35.671Z</time>
      </trkpt>
      <trkpt lat="43.5304" lon="6.69045">
        <ele>260.7</ele>
        <time>2024-01-24T14:39:45+01:00</time>
      </trkpt>
      <trkpt lat="43.53036" lon="6.69039">
        <ele>260.9</ele>
        <time>2024-01-24T13:39:52.165Z</time>
      </trkpt>
      <trkpt lat="43.53032" lon="6.69032">
        <ele>261</ele>
        <time>2024-01-24T14:40:00+01:00</time>
      </trkpt>
      <trkpt lat="43.53027" lon="6.69026">
        <ele>261.1</ele>
        <time>2024-01-24T13:40:07.499Z</time>
      </trkpt>
      <trkpt lat="43.53022" lon="6.6902">
        <ele>261.5</ele>
        <time>2024-01-24T14:40:15+01:00</time>
      </trkpt>
      <trkpt lat="43.53019" lon="6.69014">
        <ele>261.8</ele>
        <time>2024-01-24T13:40:20.289Z</time>
      </trkpt>
      <trkpt lat="43.53016" lon="6.69009">
        <ele>262.1</ele>
        <time>2024-01-24T14:40:25+01:00</time>
      </trkpt>
      <trkpt lat="43.53013" lon="6.69003">
        <ele>262.4</ele>
        <time>2024-01-24T13:40:30.246Z</time>
      </trkpt>
      <trkpt lat="43.53011" lon="6.68997">
        <ele>262.8</ele>
        <time>2024-01-24T14:40:35+01:00</time>
      </trkpt>
      <trkpt lat="43.53009" lon="6.68991">
        <ele>263.2</ele>
        <time>2024-01-24T13:40:39.999Z</time>
      </trkpt>
      <trkpt lat="43.53007" lon="6.68985">
        <ele>263.7</ele>
        <time>2024-01-24T14:40:45+01:00</time>
      </trkpt>
      <trkpt lat="43.53006" lon="6.68976">
        <ele>264.3</ele>
        <time>2024-01-24T13:40:50.323Z</time>
      </trkpt>
      <trkpt lat="43.53006" lon="6.68968">
        <ele>264.6</ele>
        <time>2024-01-24T14:40:55+01:00</time>
      </trkpt>
      <trkpt lat="43.53009" lon="6.6896">
        <ele>264.5</ele>
        <time>2024-01-24T13:41:00.026Z</time>
      </trkpt>
      <trkpt lat="43.53013" lon="6.68953">
        <ele>264.4</ele>
        <time>2024-01-24T14:41:05+01:00</time>
      </trkpt>
      <trkpt lat="43.53017" lon="6.68947">
        <ele>264.3</ele>
        <time>2024-01-24T13:41:10.226Z</time>
      </trkpt>
      <trkpt lat="43.53021" lon="6.68942">
        <ele>264.6</ele>
        <time>2024-01-24T14:41:15+01:00</time>
      </trkpt>
      <trkpt lat="43.53026" lon="6.68936">
        <ele>265</ele>
        <time>2024-01-24T13:41:22.228Z</time>
      </trkpt>
      <trkpt lat="43.53031" lon="6.68929">
        <ele>265.4</ele>
        <time>2024-01-24T14:41:30+01:00</time>
      </trkpt>
      <trkpt lat="43.53035" lon="6.68926">
        <ele>265.4</ele>
        <time>2024-01-24T13:41:34.795Z</time>
      </trkpt>
      <trkpt lat="43.53039" lon="6.68922">
        <ele>265.3</ele>
        <time>2024-01-24T14:41:40+01:00</time>
      </trkpt>
      <trkpt lat="43.53042" lon="6.68917">
        <ele>265.4</ele>
        <time>2024-01-24T13:41:45.000Z</time>
      </trkpt>
      <trkpt lat="43.53045" lon="6.68912">
        <ele>265.3</ele>
        <time>2024-01-24T14:41:50+01:00</time>
      </trkpt>
      <trkpt lat="43.5305" lon="6.68907">
        <ele>265.1</ele>
        <time>2024-01-24T13:42:00.220Z</time>
      </trkpt>
      <trkpt lat="43.53054" lon="6.68901">
        <ele>264.8</ele>
        <time>2024-01-24T14:42:10+01:00</time>
      </trkpt>
      <trkpt lat="43.53058" lon="6.68898">
        <ele>264.6</ele>
        <time>2024-01-24T13:42:16.825Z</time>
      </trkpt>
      <trkpt lat="43.53063" lon="6.68895">
        <ele>264.5</ele>
        <time>2024-01-24T14:42:25+01:00</time>
      </trkpt>
      <trkpt lat="43.53065" lon="6.68886">
        <ele>264.7</ele>
        <time>2024-01-24T13:42:32.899Z</time>
      </trkpt>
      <trkpt lat="43.53067" lon="6.68878">
        <ele>264.8</ele>
        <time>2024-01-24T14:42:40+01:00</time>
      </trkpt>
      <trkpt lat="43.5307" lon="6.68869">
        <ele>264.8</ele>
        <time>2024-01-24T13:42:47.500Z</time>
      </trkpt>
      <trkpt lat="43.53073" lon="6.6886">
        <ele>264.8</ele>
        <time>2024-01-24T14:42:55+01:00</time>
      </trkpt>
      <trkpt lat="43.53074" lon="6.68852">
        <ele>265.1</ele>
        <time>2024-01-24T13:43:00.322Z</time>
      </trkpt>
      <trkpt lat="43.53075" lon="6.68845">
        <ele>265.4</ele>
        <time>2024-01-24T14:43:05+01:00</time>
      </trkpt>
      <trkpt lat="43.53076" lon="6.68837">
        <ele>265.7</ele>
        <time>2024-01-24T13:43:10.000Z</time>
      </trkpt>
      <trkpt lat="43.53077" lon="6.68829">
        <ele>265.7</ele>
        <time>2024-01-24T14:43:15+01:00</time>
      </trkpt>
      <trkpt lat="43.53077" lon="6.6882">
        <ele>265.6</ele>
        <time>2024-01-24T13:43:22.105Z</time>
      </trkpt>
      <trkpt lat="43.53077" lon="6.6881">
        <ele>265.5</ele>
        <time>2024-01-24T14:43:30+01:00</time>
      </trkpt>
      <trkpt lat="43.53078" lon="6.68804">
        <ele>265.5</ele>
        <time>2024-01-24T13:43:34.679Z</time>
      </trkpt>
      <trkpt lat="43.53078" lon="6.68797">
        <ele>266</ele>
        <time>2024-01-24T14:43:40+01:00</time>
      </trkpt>
      <trkpt lat="43.53077" lon="6.68791">
        <ele>266.5</ele>
        <time>2024-01-24T13:43:44.632Z</time>
      </trkpt>
      <trkpt lat="43.53076" lon="6.68784">
        <ele>267.1</ele>
        <time>2024-01-24T14:43:50+01:00</time>
      </trkpt>
      <trkpt lat="43.53078" lon="6.68777">
        <ele>267.4</ele>
        <time>2024-01-24T13:43:55.325Z</time>
      </trkpt>
      <trkpt lat="43.5308" lon="6.68771">
        <ele>267.6</ele>
        <time>2024-01-24T14:44:00+01:00</time>
      </trkpt>
      <trkpt lat="43.53083" lon="6.68763">
        <ele>267.6</ele>
        <time>2024-01-24T13:44:05.448Z</time>
      </trkpt>
      <trkpt lat="43.53085" lon="6.68756">
        <ele>267.7</ele>
        <time>2024-01-24T14:44:10+01:00</time>
      </trkpt>
      <trkpt lat="43.53087" lon="6.6875">
        <ele>267.9</ele>
        <time>2024-01-24T13:44:17.500Z</time>
      </trkpt>
      <trkpt lat="43.53089" lon="6.68744">
        <ele>267.9</ele>
        <time>2024-01-24T14:44:25+01:00</time>
      </trkpt>
      <trkpt lat="43.5309" lon="6.68735">
        <ele>268</ele>
        <time>2024-01-24T13:44:46.146Z</time>
      </trkpt>
      <trkpt lat="43.53091" lon="6.68727">
        <ele>268.1</ele>
        <time>2024-01-24T14:45:05+01:00</time>
      </trkpt>
      <trkpt lat="43.53095" lon="6.68719">
        <ele>267.8</ele>
        <time>2024-01-24T13:45:15.888Z</time>
      </trkpt>
      <trkpt lat="43.53098" lon="6.68712">
        <ele>267.8</ele>
        <time>2024-01-24T14:45:25+01:00</time>
      </trkpt>
      <trkpt lat="43.53103" lon="6.68707">
        <ele>267.7</ele>
        <time>2024-01-24T13:45:30.555Z</time>
      </trkpt>
      <trkpt lat="43.53107" lon="6.68703">
        <ele>267.6</ele>
        <time>2024-01-24T14:45:35+01:00</time>
      </trkpt>
      <trkpt lat="43.53113" lon="6.68701">
        <ele>267.3</ele>
        <time>2024-01-24T13:45:39.571Z</time>
      </trkpt>
      <trkpt lat="43.5312" lon="6.68698">
        <ele>266.5</ele>
        <time>2024-01-24T14:45:45+01:00</time>
      </trkpt>
      <trkpt lat="43.53126" lon="6.68697">
        <ele>265.7</ele>
        <time>2024-01-24T13:45:50.000Z</time>
      </trkpt>
      <trkpt lat="43.53132" lon="6.68696">
        <ele>265</ele>
        <time>2024-01-24T14:45:55+01:00</time>
      </trkpt>
      <trkpt lat="43.53137" lon="6.68694">
        <ele>264.3</ele>
        <time>2024-01-24T13:46:00.074Z</time>
      </trkpt>
      <trkpt lat="43.53142" lon="6.68693">
        <ele>263.7</ele>
        <time>2024-01-24T14:46:05+01:00</time>
      </trkpt>
      <trkpt lat="43.53147" lon="6.68691">
        <ele>263.2</ele>
        <time>2024-01-24T13:46:09.492Z</time>
      </trkpt>
      <trkpt lat="43.53153" lon="6.68688">
        <ele>262.6</ele>
        <time>2024-01-24T14:46:15+01:00</time>
      </trkpt>
      <trkpt lat="43.53158" lon="6.68681">
        <ele>262.1</ele>
        <time>2024-01-24T13:46:23.199Z</time>
      </trkpt>
      <trkpt lat="43.53162" lon="6.68675">
        <ele>261.6</ele>
        <time>2024-01-24T14:46:30+01:00</time>
      </trkpt>
      <trkpt lat="43.53162" lon="6.68665">
        <ele>261.6</ele>
        <time>2024-01-24T13:46:37.464Z</time>
      </trkpt>
      <trkpt lat="43.53163" lon="6.68655">
        <ele>261.7</ele>
        <time>2024-01-24T14:46:45+01:00</time>
      </trkpt>
      <trkpt lat="43.53163" lon="6.68648">
        <ele>261.7</ele>
        <time>2024-01-24T13:46:49.666Z</time>
      </trkpt>
      <trkpt lat="43.53163" lon="6.6864">
        <ele>261.7</ele>
        <time>2024-01-24T14:46:55+01:00</time>
      </trkpt>
      <trkpt lat="43.53164" lon="6.68633">
        <ele>261.5</ele>
        <time>2024-01-24T13:47:00.047Z</time>
      </trkpt>
      <trkpt lat="43.53164" lon="6.68626">
        <ele>261.4</ele>
        <time>2024-01-24T14:47:05+01:00</time>
      </trkpt>
      <trkpt lat="43.53167" lon="6.68619">
        <ele>261</ele>
        <time>2024-01-24T13:47:10.000Z</time>
      </trkpt>
      <trkpt lat="43.5317" lon="6.68612">
        <ele>261</ele>
        <time>2024-01-24T14:47:15+01:00</time>
      </trkpt>
      <trkpt lat="43.53175" lon="6.68608">
        <ele>261.3</ele>
        <time>2024-01-24T13:47:20.000Z</time>
      </trkpt>
      <trkpt lat="43.5318" lon="6.68604">
        <ele>261.6</ele>
        <time>2024-01-24T14:47:25+01:00</time>
      </trkpt>
      <trkpt lat="43.53182" lon="6.68598">
        <ele>261.8</ele>
        <time>2024-01-24T13:47:30.043Z</time>
      </trkpt>
      <trkpt lat="43.53185" lon="6.68593">
        <ele>261.9</ele>
        <time>2024-01-24T14:47:35+01:00</time>
      </trkpt>
      <trkpt lat="43.53183" lon="6.68584">
        <ele>262.6</ele>
        <time>2024-01-24T13:47:42.624Z</time>
      </trkpt>
      <trkpt lat="43.53182" lon="6.68575">
        <ele>263</ele>
        <time>2024-01-24T14:47:50+01:00</time>
      </trkpt>
      <trkpt lat="43.53179" lon="6.68567">
        <ele>263.6</ele>
        <time>2024-01-24T13:47:56.905Z</time>
      </trkpt>
      <trkpt lat="43.53175" lon="6.68558">
        <ele>264</ele>
        <time>2024-01-24T14:48:05+01:00</time>
      </trkpt>
      <trkpt lat="43.53174" lon="6.68551">
        <ele>264.4</ele>
        <time>2024-01-24T13:48:10.367Z</time>
      </trkpt>
      <trkpt lat="43.53173" lon="6.68545">
        <ele>264.9</ele>
        <time>2024-01-24T14:48:15+01:00</time>
      </trkpt>
      <trkpt lat="43.53173" lon="6.68538">
        <ele>265.3</ele>
        <time>2024-01-24T13:48:20.384Z</time>
      </trkpt>
      <trkpt lat="43.53173" lon="6.68532">
        <ele>265.7</ele>
        <time>2024-01-24T14:48:25+01:00</time>
      </trkpt>
      <trkpt lat="43.53171" lon="6.68526">
        <ele>266.3</ele>
        <time>2024-01-24T13:48:29.999Z</time>
      </trkpt>
      <trkpt lat="43.53169" lon="6.6852">
        <ele>266.9</ele>
        <time>2024-01-24T14:48:35+01:00</time>
      </trkpt>
      <trkpt lat="43.5317" lon="6.68511">
        <ele>267.1</ele>
        <time>2024-01-24T13:48:40.029Z</time>
      </trkpt>
      <trkpt lat="43.5317" lon="6.68502">
        <ele>267.3</ele>
        <time>2024-01-24T14:48:45+01:00</time>
      </trkpt>
      <trkpt lat="43.53171" lon="6.68495">
        <ele>267.4</ele>
        <time>2024-01-24T13:48:50.367Z</time>
      </trkpt>
      <trkpt lat="43.53172" lon="6.68489">
        <ele>267.6</ele>
        <time>2024-01-24T14:48:55+01:00</time>
      </trkpt>
      <trkpt lat="43.53174" lon="6.68477">
        <ele>268</ele>
        <time>2024-01-24T14:49:05+01:00</time>
      </trkpt>
      <trkpt lat="43.53174" lon="6.6847">
        <ele>268.3</ele>
        <time>2024-01-24T13:49:10.320Z</time>
      </trkpt>
      <trkpt lat="43.53175" lon="6.68464">
        <ele>268.6</ele>
        <time>2024-01-24T14:49:15+01:00</time>
      </trkpt>
      <trkpt lat="43.53177" lon="6.68456">
        <ele>268.8</ele>
        <time>2024-01-24T13:49:20.293Z</time>
      </trkpt>
      <trkpt lat="43.53179" lon="6.68449">
        <ele>269</ele>
        <time>2024-01-24T14:49:25+01:00</time>
      </trkpt>
      <trkpt lat="43.53181" lon="6.68442">
        <ele>269</ele>
        <time>2024-01-24T13:49:30.499Z</time>
      </trkpt>
      <trkpt lat="43.53182" lon="6.68436">
        <ele>268.8</ele>
        <time>2024-01-24T14:49:35+01:00</time>
      </trkpt>
      <trkpt lat="43.53183" lon="6.68428">
        <ele>268.6</ele>
        <time>2024-01-24T13:49:40.322Z</time>
      </trkpt>
      <trkpt lat="43.53184" lon="6.68421">
        <ele>268.5</ele>
        <time>2024-01-24T14:49:45+01:00</time>
      </trkpt>
      <trkpt lat="43.53184" lon="6.68412">
        <ele>268.4</ele>
        <time>2024-01-24T13:49:50.294Z</time>
      </trkpt>
      <trkpt lat="43.53184" lon="6.68404">
        <ele>268.1</ele>
        <time>2024-01-24T14:49:55+01:00</time>
      </trkpt>
      <trkpt lat="43.53185" lon="6.68398">
        <ele>267.7</ele>
        <time>2024-01-24T13:49:59.632Z</time>
      </trkpt>
      <trkpt lat="43.53186" lon="6.68391">
        <ele>267.2</ele>
        <time>2024-01-24T14:50:05+01:00</time>
      </trkpt>
      <trkpt lat="43.53193" lon="6.68388">
        <ele>266.2</ele>
        <time>2024-01-24T13:50:10.000Z</time>
      </trkpt>
      <trkpt lat="43.532" lon="6.68385">
        <ele>265.9</ele>
        <time>2024-01-24T14:50:15+01:00</time>
      </trkpt>
      <trkpt lat="43.53205" lon="6.68384">
        <ele>265.7</ele>
        <time>2024-01-24T13:50:20.000Z</time>
      </trkpt>
      <trkpt lat="43.5321" lon="6.68383">
        <ele>265.5</ele>
        <time>2024-01-24T14:50:25+01:00</time>
      </trkpt>
      <trkpt lat="43.53215" lon="6.68381">
        <ele>265.3</ele>
        <time>2024-01-24T13:50:32.500Z</time>
      </trkpt>
      <trkpt lat="43.5322" lon="6.68379">
        <ele>265.1</ele>
        <time>2024-01-24T14:50:40+01:00</time>
      </trkpt>
      <trkpt lat="43.53222" lon="6.68371">
        <ele>265</ele>
        <time>2024-01-24T13:51:10.622Z</time>
      </trkpt>
      <trkpt lat="43.53223" lon="6.68363">
        <ele>264.9</ele>
        <time>2024-01-24T14:51:40+01:00</time>
      </trkpt>
      <trkpt lat="43.53222" lon="6.68354">
        <ele>265.3</ele>
        <time>2024-01-24T13:51:47.375Z</time>
      </trkpt>
      <trkpt lat="43.5322" lon="6.68345">
        <ele>265.8</ele>
        <time>2024-01-24T14:51:55+01:00</time>
      </trkpt>
      <trkpt lat="43.5322" lon="6.68338">
        <ele>266.2</ele>
        <time>2024-01-24T13:51:59.952Z</time>
      </trkpt>
      <trkpt lat="43.53219" lon="6.68331">
        <ele>266.6</ele>
        <time>2024-01-24T14:52:05+01:00</time>
      </trkpt>
      <trkpt lat="43.53217" lon="6.68323">
        <ele>267.1</ele>
        <time>2024-01-24T13:52:11.910Z</time>
      </trkpt>
      <trkpt lat="43.53214" lon="6.68314">
        <ele>267.6</ele>
        <time>2024-01-24T14:52:20+01:00</time>
      </trkpt>
      <trkpt lat="43.53213" lon="6.68307">
        <ele>267.9</ele>
        <time>2024-01-24T13:52:24.677Z</time>
      </trkpt>
      <trkpt lat="43.53212" lon="6.68299">
        <ele>268.3</ele>
        <time>2024-01-24T14:52:30+01:00</time>
      </trkpt>
      <trkpt lat="43.5321" lon="6.68292">
        <ele>268.8</ele>
        <time>2024-01-24T13:52:34.999Z</time>
      </trkpt>
      <trkpt lat="43.53208" lon="6.68285">
        <ele>269.3</ele>
        <time>2024-01-24T14:52:40+01:00</time>
      </trkpt>
      <trkpt lat="43.53204" lon="6.68273">
        <ele>270.1</ele>
        <time>2024-01-24T14:52:50+01:00</time>
      </trkpt>
      <trkpt lat="43.53202" lon="6.68267">
        <ele>270.5</ele>
        <time>2024-01-24T13:52:54.753Z</time>
      </trkpt>
      <trkpt lat="43.53199" lon="6.68261">
        <ele>271</ele>
        <time>2024-01-24T14:53:00+01:00</time>
      </trkpt>
      <trkpt lat="43.53197" lon="6.68254">
        <ele>271.5</ele>
        <time>2024-01-24T13:53:04.999Z</time>
      </trkpt>
      <trkpt lat="43.53195" lon="6.68247">
        <ele>271.9</ele>
        <time>2024-01-24T14:53:10+01:00</time>
      </trkpt>
      <trkpt lat="43.53193" lon="6.68242">
        <ele>272.2</ele>
        <time>2024-01-24T13:53:14.637Z</time>
      </trkpt>
      <trkpt lat="43.53191" lon="6.68236">
        <ele>272.5</ele>
        <time>2024-01-24T14:53:20+01:00</time>
      </trkpt>
      <trkpt lat="43.53189" lon="6.68229">
        <ele>272.8</ele>
        <time>2024-01-24T13:53:25.079Z</time>
      </trkpt>
      <trkpt lat="43.53186" lon="6.68223">
        <ele>273.2</ele>
        <time>2024-01-24T14:53:30+01:00</time>
      </trkpt>
      <trkpt lat="43.53184" lon="6.68217">
        <ele>273.5</ele>
        <time>2024-01-24T13:53:34.753Z</time>
      </trkpt>
      <trkpt lat="43.53181" lon="6.68211">
        <ele>273.9</ele>
        <time>2024-01-24T14:53:40+01:00</time>
      </trkpt>
      <trkpt lat="43.53179" lon="6.68204">
        <ele>274.3</ele>
        <time>2024-01-24T13:53:45.325Z</time>
      </trkpt>
      <trkpt lat="43.53177" lon="6.68198">
        <ele>274.6</ele>
        <time>2024-01-24T14:53:50+01:00</time>
      </trkpt>
      <trkpt lat="43.53175" lon="6.68191">
        <ele>274.9</ele>
        <time>2024-01-24T13:53:54.999Z</time>
      </trkpt>
      <trkpt lat="43.53173" lon="6.68184">
        <ele>275.1</ele>
        <time>2024-01-24T14:54:00+01:00</time>
      </trkpt>
      <trkpt lat="43.5317" lon="6.68178">
        <ele>275.5</ele>
        <time>2024-01-24T13:54:04.999Z</time>
      </trkpt>
      <trkpt lat="43.53167" lon="6.68172">
        <ele>275.9</ele>
        <time>2024-01-24T14:54:10+01:00</time>
      </trkpt>
      <trkpt lat="43.53165" lon="6.68166">
        <ele>276.5</ele>
        <time>2024-01-24T13:54:14.753Z</time>
      </trkpt>
      <trkpt lat="43.53162" lon="6.6816">
        <ele>277</ele>
        <time>2024-01-24T14:54:20+01:00</time>
      </trkpt>
      <trkpt lat="43.5316" lon="6.68153">
        <ele>277.3</ele>
        <time>2024-01-24T13:54:24.999Z</time>
      </trkpt>
      <trkpt lat="43.53158" lon="6.68146">
        <ele>277.5</ele>
        <time>2024-01-24T14:54:30+01:00</time>
      </trkpt>
      <trkpt lat="43.53157" lon="6.68138">
        <ele>277.4</ele>
        <time>2024-01-24T13:54:34.999Z</time>
      </trkpt>
      <trkpt lat="43.53156" lon="6.6813">
        <ele>278</ele>
        <time>2024-01-24T14:54:40+01:00</time>
      </trkpt>
      <trkpt lat="43.53155" lon="6.68122">
        <ele>278.6</ele>
        <time>2024-01-24T13:54:45.322Z</time>
      </trkpt>
      <trkpt lat="43.53154" lon="6.68115">
        <ele>279.1</ele>
        <time>2024-01-24T14:54:50+01:00</time>
      </trkpt>
      <trkpt lat="43.53153" lon="6.68109">
        <ele>279.5</ele>
        <time>2024-01-24T13:54:54.824Z</time>
      </trkpt>
      <trkpt lat="43.53151" lon="6.68103">
        <ele>279.7</ele>
        <time>2024-01-24T14:55:00+01:00</time>
      </trkpt>
      <trkpt lat="43.5315" lon="6.68096">
        <ele>279.9</ele>
        <time>2024-01-24T13:55:04.677Z</time>
      </trkpt>
      <trkpt lat="43.53149" lon="6.68088">
        <ele>280</ele>
        <time>2024-01-24T14:55:10+01:00</time>
      </trkpt>
      <trkpt lat="43.53147" lon="6.6808">
        <ele>280.1</ele>
        <time>2024-01-24T13:55:15.103Z</time>
      </trkpt>
      <trkpt lat="43.53146" lon="6.68072">
        <ele>280.1</ele>
        <time>2024-01-24T14:55:20+01:00</time>
      </trkpt>
      <trkpt lat="43.53144" lon="6.68065">
        <ele>280.3</ele>
        <time>2024-01-24T13:55:25.132Z</time>
      </trkpt>
      <trkpt lat="43.53143" lon="6.68058">
        <ele>280.4</ele>
        <time>2024-01-24T14:55:30+01:00</time>
      </trkpt>
      <trkpt lat="43.53141" lon="6.68052">
        <ele>280.7</ele>
        <time>2024-01-24T13:55:34.674Z</time>
      </trkpt>
      <trkpt lat="43.53139" lon="6.68045">
        <ele>281.3</ele>
        <time>2024-01-24T14:55:40+01:00</time>
      </trkpt>
      <trkpt lat="43.53138" lon="6.68039">
        <ele>282</ele>
        <time>2024-01-24T13:55:44.500Z</time>
      </trkpt>
      <trkpt lat="43.53136" lon="6.68032">
        <ele>282.7</ele>
        <time>2024-01-24T14:55:50+01:00</time>
      </trkpt>
      <trkpt lat="43.53135" lon="6.68026">
        <ele>283.3</ele>
        <time>2024-01-24T13:55:54.500Z</time>
      </trkpt>
      <trkpt lat="43.53133" lon="6.68019">
        <ele>283.9</ele>
        <time>2024-01-24T14:56:00+01:00</time>
      </trkpt>
      <trkpt lat="43.53131" lon="6.68013">
        <ele>284.5</ele>
        <time>2024-01-24T13:56:04.674Z</time>
      </trkpt>
      <trkpt lat="43.53129" lon="6.68006">
        <ele>285</ele>
        <time>2024-01-24T14:56:10+01:00</time>
      </trkpt>
      <trkpt lat="43.53127" lon="6.68">
        <ele>285.5</ele>
        <time>2024-01-24T13:56:14.999Z</time>
      </trkpt>
      <trkpt lat="43.53125" lon="6.67994">
        <ele>285.9</ele>
        <time>2024-01-24T14:56:20+01:00</time>
      </trkpt>
      <trkpt lat="43.53123" lon="6.67987">
        <ele>286.5</ele>
        <time>2024-01-24T13:56:27.208Z</time>
      </trkpt>
      <trkpt lat="43.5312" lon="6.6798">
        <ele>287</ele>
        <time>2024-01-24T14:56:35+01:00</time>
      </trkpt>
      <trkpt lat="43.53118" lon="6.67974">
        <ele>287.5</ele>
        <time>2024-01-24T13:56:39.674Z</time>
      </trkpt>
      <trkpt lat="43.53116" lon="6.67967">
        <ele>288</ele>
        <time>2024-01-24T14:56:45+01:00</time>
      </trkpt>
      <trkpt lat="43.53114" lon="6.67961">
        <ele>288.3</ele>
        <time>2024-01-24T13:56:49.806Z</time>
      </trkpt>
      <trkpt lat="43.53113" lon="6.67954">
        <ele>288.7</ele>
        <time>2024-01-24T14:56:55+01:00</time>
      </trkpt>
      <trkpt lat="43.53112" lon="6.67946">
        <ele>288.9</ele>
        <time>2024-01-24T13:57:00.322Z</time>
      </trkpt>
      <trkpt lat="43.53111" lon="6.67939">
        <ele>289.1</ele>
        <time>2024-01-24T14:57:05+01:00</time>
      </trkpt>
      <trkpt lat="43.53108" lon="6.67931">
        <ele>290</ele>
        <time>2024-01-24T13:57:12.883Z</time>
      </trkpt>
      <trkpt lat="43.53105" lon="6.67924">
        <ele>290.8</ele>
        <time>2024-01-24T14:57:20+01:00</time>
      </trkpt>
      <trkpt lat="43.53103" lon="6.67917">
        <ele>291.4</ele>
        <time>2024-01-24T13:57:25.325Z</time>
      </trkpt>
      <trkpt lat="43.53101" lon="6.67911">
        <ele>291.3</ele>
        <time>2024-01-24T14:57:30+01:00</time>
      </trkpt>
      <trkpt lat="43.53097" lon="6.67904">
        <ele>291.6</ele>
        <time>2024-01-24T13:57:35.229Z</time>
      </trkpt>
      <trkpt lat="43.53094" lon="6.67897">
        <ele>291.7</ele>
        <time>2024-01-24T14:57:40+01:00</time>
      </trkpt>
      <trkpt lat="43.5309" lon="6.67892">
        <ele>291.9</ele>
        <time>2024-01-24T13:57:44.773Z</time>
      </trkpt>
      <trkpt lat="43.53086" lon="6.67886">
        <ele>292.1</ele>
        <time>2024-01-24T14:57:50+01:00</time>
      </trkpt>
      <trkpt lat="43.53083" lon="6.67881">
        <ele>292.6</ele>
        <time>2024-01-24T13:57:54.710Z</time>
      </trkpt>
      <trkpt lat="43.5308" lon="6.67875">
        <ele>293.5</ele>
        <time>2024-01-24T14:58:00+01:00</time>
      </trkpt>
      <trkpt lat="43.53077" lon="6.67869">
        <ele>294.2</ele>
        <time>2024-01-24T13:58:04.726Z</time>
      </trkpt>
      <trkpt lat="43.53074" lon="6.67862">
        <ele>294.9</ele>
        <time>2024-01-24T14:58:10+01:00</time>
      </trkpt>
      <trkpt lat="43.53072" lon="6.67855">
        <ele>295.3</ele>
        <time>2024-01-24T13:58:14.999Z</time>
      </trkpt>
      <trkpt lat="43.5307" lon="6.67848">
        <ele>295.6</ele>
        <time>2024-01-24T14:58:20+01:00</time>
      </trkpt>
      <trkpt lat="43.53068" lon="6.67841">
        <ele>295.4</ele>
        <time>2024-01-24T13:58:24.706Z</time>
      </trkpt>
      <trkpt lat="43.53066" lon="6.67833">
        <ele>295.2</ele>
        <time>2024-01-24T14:58:30+01:00</time>
      </trkpt>
      <trkpt lat="43.53066" lon="6.67826">
        <ele>294.8</ele>
        <time>2024-01-24T13:58:37.428Z</time>
      </trkpt>
      <trkpt lat="43.53065" lon="6.67819">
        <ele>294.5</ele>
        <time>2024-01-24T14:58:45+01:00</time>
      </trkpt>
      <trkpt lat="43.53061" lon="6.67815">
        <ele>295.1</ele>
        <time>2024-01-24T14:01:46.617Z</time>
      </trkpt>
      <trkpt lat="43.53058" lon="6.67811">
        <ele>295.8</ele>
        <time>2024-01-24T15:04:20+01:00</time>
      </trkpt>
      <trkpt lat="43.53054" lon="6.67804">
        <ele>296.1</ele>
        <time>2024-01-24T14:04:27.843Z</time>
      </trkpt>
      <trkpt lat="43.53051" lon="6.67797">
        <ele>295.7</ele>
        <time>2024-01-24T15:04:35+01:00</time>
      </trkpt>
      <trkpt lat="43.53048" lon="6.67792">
        <ele>295.3</ele>
        <time>2024-01-24T14:04:39.956Z</time>
      </trkpt>
      <trkpt lat="43.53046" lon="6.67786">
        <ele>294.9</ele>
        <time>2024-01-24T15:04:45+01:00</time>
      </trkpt>
      <trkpt lat="43.53043" lon="6.67781">
        <ele>294.7</ele>
        <time>2024-01-24T14:04:49.710Z</time>
      </trkpt>
      <trkpt lat="43.5304" lon="6.67775">
        <ele>294.9</ele>
        <time>2024-01-24T15:04:55+01:00</time>
      </trkpt>
      <trkpt lat="43.53039" lon="6.67768">
        <ele>294.6</ele>
        <time>2024-01-24T14:04:59.999Z</time>
      </trkpt>
      <trkpt lat="43.53038" lon="6.67761">
        <ele>294.4</ele>
        <time>2024-01-24T15:05:05+01:00</time>
      </trkpt>
      <trkpt lat="43.53036" lon="6.67754">
        <ele>294.4</ele>
        <time>2024-01-24T14:05:09.999Z</time>
      </trkpt>
      <trkpt lat="43.53034" lon="6.67747">
        <ele>294.6</ele>
        <time>2024-01-24T15:05:15+01:00</time>
      </trkpt>
      <trkpt lat="43.53032" lon="6.67738">
        <ele>295</ele>
        <time>2024-01-24T14:05:22.624Z</time>
      </trkpt>
      <trkpt lat="43.53031" lon="6.67729">
        <ele>295.2</ele>
        <time>2024-01-24T15:05:30+01:00</time>
      </trkpt>
      <trkpt lat="43.53029" lon="6.67722">
        <ele>295.7</ele>
        <time>2024-01-24T14:05:35.079Z</time>
      </trkpt>
      <trkpt lat="43.53026" lon="6.67716">
        <ele>296.2</ele>
        <time>2024-01-24T15:05:40+01:00</time>
      </trkpt>
      <trkpt lat="43.53025" lon="6.6771">
        <ele>296.5</ele>
        <time>2024-01-24T14:05:44.500Z</time>
      </trkpt>
      <trkpt lat="43.53023" lon="6.67703">
        <ele>296.7</ele>
        <time>2024-01-24T15:05:50+01:00</time>
      </trkpt>
      <trkpt lat="43.5302" lon="6.67696">
        <ele>297</ele>
        <time>2024-01-24T14:05:54.900Z</time>
      </trkpt>
      <trkpt lat="43.53018" lon="6.67688">
        <ele>296.8</ele>
        <time>2024-01-24T15:06:00+01:00</time>
      </trkpt>
      <trkpt lat="43.53014" lon="6.67683">
        <ele>297.1</ele>
        <time>2024-01-24T14:06:04.999Z</time>
      </trkpt>
      <trkpt lat="43.5301" lon="6.67678">
        <ele>297.4</ele>
        <time>2024-01-24T15:06:10+01:00</time>
      </trkpt>
      <trkpt lat="43.53007" lon="6.67673">
        <ele>297.4</ele>
        <time>2024-01-24T14:06:14.710Z</time>
      </trkpt>
      <trkpt lat="43.53004" lon="6.67667">
        <ele>297.3</ele>
        <time>2024-01-24T15:06:20+01:00</time>
      </trkpt>
      <trkpt lat="43.53" lon="6.67663">
        <ele>297.3</ele>
        <time>2024-01-24T14:06:25.204Z</time>
      </trkpt>
      <trkpt lat="43.52996" lon="6.6766">
        <ele>297.3</ele>
        <time>2024-01-24T15:06:30+01:00</time>
      </trkpt>
      <trkpt lat="43.52991" lon="6.67655">
        <ele>297.5</ele>
        <time>2024-01-24T14:06:35.165Z</time>
      </trkpt>
      <trkpt lat="43.52986" lon="6.67651">
        <ele>297.8</ele>
        <time>2024-01-24T15:06:40+01:00</time>
      </trkpt>
      <trkpt lat="43.52983" lon="6.67647">
        <ele>297.9</ele>
        <time>2024-01-24T14:06:44.578Z</time>
      </trkpt>
      <trkpt lat="43.52979" lon="6.67643">
        <ele>298</ele>
        <time>2024-01-24T15:06:50+01:00</time>
      </trkpt>
      <trkpt lat="43.52976" lon="6.67637">
        <ele>297.8</ele>
        <time>2024-01-24T14:06:55.289Z</time>
      </trkpt>
      <trkpt lat="43.52973" lon="6.67632">
        <ele>298</ele>
        <time>2024-01-24T15:07:00+01:00</time>
      </trkpt>
      <trkpt lat="43.5297" lon="6.67625">
        <ele>298.5</ele>
        <time>2024-01-24T14:07:07.491Z</time>
      </trkpt>
      <trkpt lat="43.52966" lon="6.67619">
        <ele>299.3</ele>
        <time>2024-01-24T15:07:15+01:00</time>
      </trkpt>
      <trkpt lat="43.52962" lon="6.67613">
        <ele>300.4</ele>
        <time>2024-01-24T14:07:24.427Z</time>
      </trkpt>
      <trkpt lat="43.52957" lon="6.67607">
        <ele>301.7</ele>
        <time>2024-01-24T15:07:35+01:00</time>
      </trkpt>
      <trkpt lat="43.52954" lon="6.67603">
        <ele>302.7</ele>
        <time>2024-01-24T14:07:43.719Z</time>
      </trkpt>
      <trkpt lat="43.5295" lon="6.67598">
        <ele>303.5</ele>
        <time>2024-01-24T15:07:55+01:00</time>
      </trkpt>
      <trkpt lat="43.52946" lon="6.67594">
        <ele>304.6</ele>
        <time>2024-01-24T14:08:02.806Z</time>
      </trkpt>
      <trkpt lat="43.52942" lon="6.67591">
        <ele>305.8</ele>
        <time>2024-01-24T15:08:10+01:00</time>
      </trkpt>
      <trkpt lat="43.52938" lon="6.67586">
        <ele>306.7</ele>
        <time>2024-01-24T14:08:16.996Z</time>
      </trkpt>
      <trkpt lat="43.52933" lon="6.67581">
        <ele>307.7</ele>
        <time>2024-01-24T15:08:25+01:00</time>
      </trkpt>
      <trkpt lat="43.52929" lon="6.67577">
        <ele>308.7</ele>
        <time>2024-01-24T14:08:32.499Z</time>
      </trkpt>
      <trkpt lat="43.52925" lon="6.67573">
        <ele>309.6</ele>
        <time>2024-01-24T15:08:40+01:00</time>
      </trkpt>
      <trkpt lat="43.52921" lon="6.6757">
        <ele>310.8</ele>
        <time>2024-01-24T14:08:49.101Z</time>
      </trkpt>
      <trkpt lat="43.52916" lon="6.67567">
        <ele>311.9</ele>
        <time>2024-01-24T15:09:00+01:00</time>
      </trkpt>
      <trkpt lat="43.52912" lon="6.67562">
        <ele>313</ele>
        <time>2024-01-24T14:09:09.999Z</time>
      </trkpt>
      <trkpt lat="43.52908" lon="6.67557">
        <ele>314.1</ele>
        <time>2024-01-24T15:09:20+01:00</time>
      </trkpt>
      <trkpt lat="43.52902" lon="6.6755">
        <ele>315.7</ele>
        <time>2024-01-24T14:09:27.142Z</time>
      </trkpt>
      <trkpt lat="43.52895" lon="6.67543">
        <ele>317.1</ele>
        <time>2024-01-24T15:09:35+01:00</time>
      </trkpt>
      <trkpt lat="43.5289" lon="6.67539">
        <ele>318.5</ele>
        <time>2024-01-24T14:09:44.669Z</time>
      </trkpt>
      <trkpt lat="43.52885" lon="6.67534">
        <ele>320.1</ele>
        <time>2024-01-24T15:09:55+01:00</time>
      </trkpt>
      <trkpt lat="43.52882" lon="6.67528">
        <ele>320.4</ele>
        <time>2024-01-24T14:10:02.934Z</time>
      </trkpt>
      <trkpt lat="43.52879" lon="6.67523">
        <ele>321.1</ele>
        <time>2024-01-24T15:10:10+01:00</time>
      </trkpt>
      <trkpt lat="43.52874" lon="6.67517">
        <ele>322.8</ele>
        <time>2024-01-24T14:10:20.352Z</time>
      </trkpt>
      <trkpt lat="43.52869" lon="6.67512">
        <ele>324.4</ele>
        <time>2024-01-24T15:10:30+01:00</time>
      </trkpt>
      <trkpt lat="43.52865" lon="6.67508">
        <ele>325.7</ele>
        <time>2024-01-24T14:10:39.216Z</time>
      </trkpt>
      <trkpt lat="43.5286" lon="6.67504">
        <ele>326.9</ele>
        <time>2024-01-24T15:10:50+01:00</time>
      </trkpt>
      <trkpt lat="43.52858" lon="6.67496">
        <ele>327</ele>
        <time>2024-01-24T14:11:00.199Z</time>
      </trkpt>
      <trkpt lat="43.52855" lon="6.67489">
        <ele>327.1</ele>
        <time>2024-01-24T15:11:10+01:00</time>
      </trkpt>
      <trkpt lat="43.52851" lon="6.67483">
        <ele>328.5</ele>
        <time>2024-01-24T14:11:17.070Z</time>
      </trkpt>
      <trkpt lat="43.52846" lon="6.67477">
        <ele>329.8</ele>
        <time>2024-01-24T15:11:25+01:00</time>
      </trkpt>
      <trkpt lat="43.52844" lon="6.67471">
        <ele>330</ele>
        <time>2024-01-24T14:11:31.722Z</time>
      </trkpt>
      <trkpt lat="43.52841" lon="6.67464">
        <ele>330.2</ele>
        <time>2024-01-24T15:11:40+01:00</time>
      </trkpt>
      <trkpt lat="43.52838" lon="6.67458">
        <ele>330.7</ele>
        <time>2024-01-24T14:11:47.089Z</time>
      </trkpt>
      <trkpt lat="43.52835" lon="6.67451">
        <ele>331.2</ele>
        <time>2024-01-24T15:11:55+01:00</time>
      </trkpt>
      <trkpt lat="43.52833" lon="6.67446">
        <ele>331.5</ele>
        <time>2024-01-24T14:12:01.955Z</time>
      </trkpt>
      <trkpt lat="43.52831" lon="6.6744">
        <ele>332</ele>
        <time>2024-01-24T15:12:10+01:00</time>
      </trkpt>
      <trkpt lat="43.52826" lon="6.67436">
        <ele>333.8</ele>
        <time>2024-01-24T14:12:15.593Z</time>
      </trkpt>
      <trkpt lat="43.52822" lon="6.67433">
        <ele>335.5</ele>
        <time>2024-01-24T15:12:20+01:00</time>
      </trkpt>
      <trkpt lat="43.52819" lon="6.67427">
        <ele>336</ele>
        <time>2024-01-24T14:12:27.089Z</time>
      </trkpt>
      <trkpt lat="43.52816" lon="6.6742">
        <ele>336.3</ele>
        <time>2024-01-24T15:12:35+01:00</time>
      </trkpt>
      <trkpt lat="43.52813" lon="6.67416">
        <ele>337.4</ele>
        <time>2024-01-24T14:12:41.867Z</time>
      </trkpt>
      <trkpt lat="43.52809" lon="6.67412">
        <ele>338.5</ele>
        <time>2024-01-24T15:12:50+01:00</time>
      </trkpt>
      <trkpt lat="43.52805" lon="6.67407">
        <ele>339.5</ele>
        <time>2024-01-24T14:13:01.280Z</time>
      </trkpt>
      <trkpt lat="43.52802" lon="6.67403">
        <ele>340.3</ele>
        <time>2024-01-24T15:13:10+01:00</time>
      </trkpt>
      <trkpt lat="43.52797" lon="6.674">
        <ele>341.9</ele>
        <time>2024-01-24T14:13:19.214Z</time>
      </trkpt>
      <trkpt lat="43.52791" lon="6.67397">
        <ele>343.4</ele>
        <time>2024-01-24T15:13:30+01:00</time>
      </trkpt>
      <trkpt lat="43.52787" lon="6.67394">
        <ele>344.5</ele>
        <time>2024-01-24T14:13:34.999Z</time>
      </trkpt>
      <trkpt lat="43.52783" lon="6.67391">
        <ele>345.5</ele>
        <time>2024-01-24T15:13:40+01:00</time>
      </trkpt>
      <trkpt lat="43.52779" lon="6.67385">
        <ele>345.8</ele>
        <time>2024-01-24T14:13:47.334Z</time>
      </trkpt>
      <trkpt lat="43.52774" lon="6.6738">
        <ele>346</ele>
        <time>2024-01-24T15:13:55+01:00</time>
      </trkpt>
      <trkpt lat="43.52769" lon="6.67376">
        <ele>346.7</ele>
        <time>2024-01-24T14:14:01.967Z</time>
      </trkpt>
      <trkpt lat="43.52763" lon="6.67372">
        <ele>347.3</ele>
        <time>2024-01-24T15:14:10+01:00</time>
      </trkpt>
      <trkpt lat="43.52759" lon="6.67367">
        <ele>347.2</ele>
        <time>2024-01-24T14:14:19.328Z</time>
      </trkpt>
      <trkpt lat="43.52754" lon="6.67362">
        <ele>347</ele>
        <time>2024-01-24T15:14:30+01:00</time>
      </trkpt>
      <trkpt lat="43.5275" lon="6.67357">
        <ele>346.8</ele>
        <time>2024-01-24T14:14:39.999Z</time>
      </trkpt>
      <trkpt lat="43.52746" lon="6.67352">
        <ele>347</ele>
        <time>2024-01-24T15:14:50+01:00</time>
      </trkpt>
      <trkpt lat="43.52741" lon="6.6735">
        <ele>348</ele>
        <time>2024-01-24T14:14:57.326Z</time>
      </trkpt>
      <trkpt lat="43.52736" lon="6.67347">
        <ele>349.1</ele>
        <time>2024-01-24T15:15:05+01:00</time>
      </trkpt>
      <trkpt lat="43.52732" lon="6.67343">
        <ele>349.2</ele>
        <time>2024-01-24T14:15:09.999Z</time>
      </trkpt>
      <trkpt lat="43.52728" lon="6.67339">
        <ele>349.4</ele>
        <time>2024-01-24T15:15:15+01:00</time>
      </trkpt>
      <trkpt lat="43.52723" lon="6.67333">
        <ele>349.6</ele>
        <time>2024-01-24T14:15:22.499Z</time>
      </trkpt>
      <trkpt lat="43.52718" lon="6.67327">
        <ele>350.7</ele>
        <time>2024-01-24T15:15:30+01:00</time>
      </trkpt>
      <trkpt lat="43.52712" lon="6.67322">
        <ele>352.4</ele>
        <time>2024-01-24T14:15:37.974Z</time>
      </trkpt>
      <trkpt lat="43.52707" lon="6.67317">
        <ele>354</ele>
        <time>2024-01-24T15:15:45+01:00</time>
      </trkpt>
      <trkpt lat="43.52703" lon="6.67312">
        <ele>354.3</ele>
        <time>2024-01-24T14:15:52.580Z</time>
      </trkpt>
      <trkpt lat="43.527" lon="6.67306">
        <ele>354.7</ele>
        <time>2024-01-24T15:16:00+01:00</time>
      </trkpt>
      <trkpt lat="43.52695" lon="6.67301">
        <ele>355.9</ele>
        <time>2024-01-24T14:16:07.214Z</time>
      </trkpt>
      <trkpt lat="43.52689" lon="6.67297">
        <ele>357</ele>
        <time>2024-01-24T15:16:15+01:00</time>
      </trkpt>
      <trkpt lat="43.52685" lon="6.67292">
        <ele>357.5</ele>
        <time>2024-01-24T14:16:22.499Z</time>
      </trkpt>
      <trkpt lat="43.52681" lon="6.67287">
        <ele>357.8</ele>
        <time>2024-01-24T15:16:30+01:00</time>
      </trkpt>
      <trkpt lat="43.52677" lon="6.67282">
        <ele>358.1</ele>
        <time>2024-01-24T14:16:37.499Z</time>
      </trkpt>
      <trkpt lat="43.52673" lon="6.67277">
        <ele>358.3</ele>
        <time>2024-01-24T15:16:45+01:00</time>
      </trkpt>
      <trkpt lat="43.52668" lon="6.67274">
        <ele>359.3</ele>
        <time>2024-01-24T14:16:50.449Z</time>
      </trkpt>
      <trkpt lat="43.52664" lon="6.67271">
        <ele>359.9</ele>
        <time>2024-01-24T15:16:55+01:00</time>
      </trkpt>
      <trkpt lat="43.52659" lon="6.67268">
        <ele>360.3</ele>
        <time>2024-01-24T14:17:04.999Z</time>
      </trkpt>
      <trkpt lat="43.52654" lon="6.67265">
        <ele>360.6</ele>
        <time>2024-01-24T15:17:15+01:00</time>
      </trkpt>
      <trkpt lat="43.52648" lon="6.67266">
        <ele>362.3</ele>
        <time>2024-01-24T14:17:25.036Z</time>
      </trkpt>
      <trkpt lat="43.52642" lon="6.67266">
        <ele>363.9</ele>
        <time>2024-01-24T15:17:35+01:00</time>
      </trkpt>
      <trkpt lat="43.52636" lon="6.67266">
        <ele>364.9</ele>
        <time>2024-01-24T14:17:43.143Z</time>
      </trkpt>
      <trkpt lat="43.52631" lon="6.67267">
        <ele>365.4</ele>
        <time>2024-01-24T15:17:50+01:00</time>
      </trkpt>
      <trkpt lat="43.52625" lon="6.67267">
        <ele>365.8</ele>
        <time>2024-01-24T14:17:57.500Z</time>
      </trkpt>
      <trkpt lat="43.52619" lon="6.67267">
        <ele>366.3</ele>
        <time>2024-01-24T15:18:05+01:00</time>
      </trkpt>
      <trkpt lat="43.52614" lon="6.67267">
        <ele>366.7</ele>
        <time>2024-01-24T14:18:10.000Z</time>
      </trkpt>
      <trkpt lat="43.52609" lon="6.67267">
        <ele>367.2</ele>
        <time>2024-01-24T15:18:15+01:00</time>
      </trkpt>
      <trkpt lat="43.52603" lon="6.67267">
        <ele>367.7</ele>
        <time>2024-01-24T14:18:22.500Z</time>
      </trkpt>
      <trkpt lat="43.52597" lon="6.67267">
        <ele>368.2</ele>
        <time>2024-01-24T15:18:30+01:00</time>
      </trkpt>
      <trkpt lat="43.52593" lon="6.67265">
        <ele>368.3</ele>
        <time>2024-01-24T14:18:35.113Z</time>
      </trkpt>
      <trkpt lat="43.52589" lon="6.67264">
        <ele>368.4</ele>
        <time>2024-01-24T15:18:40+01:00</time>
      </trkpt>
      <trkpt lat="43.52583" lon="6.67265">
        <ele>369.3</ele>
        <time>2024-01-24T14:18:47.420Z</time>
      </trkpt>
      <trkpt lat="43.52577" lon="6.67267">
        <ele>370</ele>
        <time>2024-01-24T15:18:55+01:00</time>
      </trkpt>
      <trkpt lat="43.52571" lon="6.67271">
        <ele>370.7</ele>
        <time>2024-01-24T14:19:02.662Z</time>
      </trkpt>
      <trkpt lat="43.52565" lon="6.67274">
        <ele>371</ele>
        <time>2024-01-24T15:19:10+01:00</time>
      </trkpt>
      <trkpt lat="43.5256" lon="6.67272">
        <ele>371</ele>
        <time>2024-01-24T14:20:43.546Z</time>
      </trkpt>
      <trkpt lat="43.52556" lon="6.6727">
        <ele>371</ele>
        <time>2024-01-24T15:22:00+01:00</time>
      </trkpt>
      <trkpt lat="43.52554" lon="6.67262">
        <ele>370.9</ele>
        <time>2024-01-24T14:22:13.233Z</time>
      </trkpt>
      <trkpt lat="43.52552" lon="6.67255">
        <ele>371</ele>
        <time>2024-01-24T15:22:25+01:00</time>
      </trkpt>
      <trkpt lat="43.5255" lon="6.67247">
        <ele>371.6</ele>
        <time>2024-01-24T14:22:32.499Z</time>
      </trkpt>
      <trkpt lat="43.52548" lon="6.67239">
        <ele>372.6</ele>
        <time>2024-01-24T15:22:40+01:00</time>
      </trkpt>
      <trkpt lat="43.52549" lon="6.67231">
        <ele>373.5</ele>
        <time>2024-01-24T14:22:47.500Z</time>
      </trkpt>
      <trkpt lat="43.5255" lon="6.67223">
        <ele>374.4</ele>
        <time>2024-01-24T15:22:55+01:00</time>
      </trkpt>
      <trkpt lat="43.52552" lon="6.67215">
        <ele>375.6</ele>
        <time>2024-01-24T14:23:02.266Z</time>
      </trkpt>
      <trkpt lat="43.52555" lon="6.67207">
        <ele>376.8</ele>
        <time>2024-01-24T15:23:10+01:00</time>
      </trkpt>
      <trkpt lat="43.52557" lon="6.67201">
        <ele>377.6</ele>
        <time>2024-01-24T14:23:15.000Z</time>
      </trkpt>
      <trkpt lat="43.52559" lon="6.67195">
        <ele>378.2</ele>
        <time>2024-01-24T15:23:20+01:00</time>
      </trkpt>
      <trkpt lat="43.52561" lon="6.67188">
        <ele>378.9</ele>
        <time>2024-01-24T14:23:27.208Z</time>
      </trkpt>
      <trkpt lat="43.52564" lon="6.67181">
        <ele>379.5</ele>
        <time>2024-01-24T15:23:35+01:00</time>
      </trkpt>
      <trkpt lat="43.52567" lon="6.67174">
        <ele>380</ele>
        <time>2024-01-24T14:23:42.500Z</time>
      </trkpt>
      <trkpt lat="43.5257" lon="6.67167">
        <ele>380.4</ele>
        <time>2024-01-24T15:23:50+01:00</time>
      </trkpt>
      <trkpt lat="43.5257" lon="6.6716">
        <ele>380.9</ele>
        <time>2024-01-24T14:23:57.428Z</time>
      </trkpt>
      <trkpt lat="43.52571" lon="6.67153">
        <ele>381.4</ele>
        <time>2024-01-24T15:24:05+01:00</time>
      </trkpt>
      <trkpt lat="43.52573" lon="6.67147">
        <ele>381.4</ele>
        <time>2024-01-24T14:24:14.507Z</time>
      </trkpt>
      <trkpt lat="43.52576" lon="6.67141">
        <ele>381.4</ele>
        <time>2024-01-24T15:24:25+01:00</time>
      </trkpt>
      <trkpt lat="43.52577" lon="6.67128">
        <ele>381.5</ele>
        <time>2024-01-24T15:24:35+01:00</time>
      </trkpt>
      <trkpt lat="43.52578" lon="6.67122">
        <ele>381.4</ele>
        <time>2024-01-24T14:24:40.000Z</time>
      </trkpt>
      <trkpt lat="43.52579" lon="6.67116">
        <ele>381.4</ele>
        <time>2024-01-24T15:24:45+01:00</time>
      </trkpt>
      <trkpt lat="43.5258" lon="6.6711">
        <ele>381.2</ele>
        <time>2024-01-24T14:24:49.632Z</time>
      </trkpt>
      <trkpt lat="43.52581" lon="6.67103">
        <ele>380.6</ele>
        <time>2024-01-24T15:24:55+01:00</time>
      </trkpt>
      <trkpt lat="43.52582" lon="6.67096">
        <ele>380</ele>
        <time>2024-01-24T14:25:02.571Z</time>
      </trkpt>
      <trkpt lat="43.52582" lon="6.67089">
        <ele>379.4</ele>
        <time>2024-01-24T15:25:10+01:00</time>
      </trkpt>
      <trkpt lat="43.52582" lon="6.67082">
        <ele>378.7</ele>
        <time>2024-01-24T14:25:22.380Z</time>
      </trkpt>
      <trkpt lat="43.52581" lon="6.67075">
        <ele>377.7</ele>
        <time>2024-01-24T15:25:35+01:00</time>
      </trkpt>
      <trkpt lat="43.5258" lon="6.67068">
        <ele>376.7</ele>
        <time>2024-01-24T14:25:50.579Z</time>
      </trkpt>
      <trkpt lat="43.52578" lon="6.67062">
        <ele>375.6</ele>
        <time>2024-01-24T15:26:05+01:00</time>
      </trkpt>
      <trkpt lat="43.52577" lon="6.67055">
        <ele>374.4</ele>
        <time>2024-01-24T14:26:37.998Z</time>
      </trkpt>
      <trkpt lat="43.52577" lon="6.67047">
        <ele>372.7</ele>
        <time>2024-01-24T15:27:15+01:00</time>
      </trkpt>
      <trkpt lat="43.52576" lon="6.6704">
        <ele>370.9</ele>
        <time>2024-01-24T14:27:24.734Z</time>
      </trkpt>
      <trkpt lat="43.52574" lon="6.67033">
        <ele>369.1</ele>
        <time>2024-01-24T15:27:35+01:00</time>
      </trkpt>
      <trkpt lat="43.52576" lon="6.67026">
        <ele>367.5</ele>
        <time>2024-01-24T14:27:42.699Z</time>
      </trkpt>
      <trkpt lat="43.52577" lon="6.67019">
        <ele>365.7</ele>
        <time>2024-01-24T15:27:50+01:00</time>
      </trkpt>
      <trkpt lat="43.5258" lon="6.67013">
        <ele>364.1</ele>
        <time>2024-01-24T14:27:57.380Z</time>
      </trkpt>
      <trkpt lat="43.52582" lon="6.67006">
        <ele>362.5</ele>
        <time>2024-01-24T15:28:05+01:00</time>
      </trkpt>
      <trkpt lat="43.52584" lon="6.66999">
        <ele>360.9</ele>
        <time>2024-01-24T14:28:14.611Z</time>
      </trkpt>
      <trkpt lat="43.52587" lon="6.66992">
        <ele>359.8</ele>
        <time>2024-01-24T15:28:25+01:00</time>
      </trkpt>
      <trkpt lat="43.5259" lon="6.66986">
        <ele>359.1</ele>
        <time>2024-01-24T14:28:32.934Z</time>
      </trkpt>
      <trkpt lat="43.52593" lon="6.66981">
        <ele>358.3</ele>
        <time>2024-01-24T15:28:40+01:00</time>
      </trkpt>
      <trkpt lat="43.52595" lon="6.66974">
        <ele>356.9</ele>
        <time>2024-01-24T14:29:02.500Z</time>
      </trkpt>
      <trkpt lat="43.52597" lon="6.66967">
        <ele>355.5</ele>
        <time>2024-01-24T15:29:25+01:00</time>
      </trkpt>
      <trkpt lat="43.52601" lon="6.6696">
        <ele>354.6</ele>
        <time>2024-01-24T14:29:43.281Z</time>
      </trkpt>
      <trkpt lat="43.52605" lon="6.66954">
        <ele>353.5</ele>
        <time>2024-01-24T15:30:00+01:00</time>
      </trkpt>
      <trkpt lat="43.52606" lon="6.66948">
        <ele>352</ele>
        <time>2024-01-24T14:30:07.500Z</time>
      </trkpt>
      <trkpt lat="43.52607" lon="6.66942">
        <ele>350.7</ele>
        <time>2024-01-24T15:30:15+01:00</time>
      </trkpt>
      <trkpt lat="43.52609" lon="6.66936">
        <ele>349.7</ele>
        <time>2024-01-24T14:30:25.000Z</time>
      </trkpt>
      <trkpt lat="43.52611" lon="6.6693">
        <ele>348.8</ele>
        <time>2024-01-24T15:30:35+01:00</time>
      </trkpt>
      <trkpt lat="43.52614" lon="6.66925">
        <ele>347.6</ele>
        <time>2024-01-24T14:30:42.500Z</time>
      </trkpt>
      <trkpt lat="43.52617" lon="6.6692">
        <ele>346.4</ele>
        <time>2024-01-24T15:30:50+01:00</time>
      </trkpt>
      <trkpt lat="43.5262" lon="6.66913">
        <ele>345</ele>
        <time>2024-01-24T14:30:58.277Z</time>
      </trkpt>
      <trkpt lat="43.52622" lon="6.66907">
        <ele>343.8</ele>
        <time>2024-01-24T15:31:05+01:00</time>
      </trkpt>
      <trkpt lat="43.52621" lon="6.66899">
        <ele>342.4</ele>
        <time>2024-01-24T14:31:12.554Z</time>
      </trkpt>
      <trkpt lat="43.52621" lon="6.66891">
        <ele>341</ele>
        <time>2024-01-24T15:31:20+01:00</time>
      </trkpt>
      <trkpt lat="43.52621" lon="6.66883">
        <ele>340.1</ele>
        <time>2024-01-24T14:31:28.000Z</time>
      </trkpt>
      <trkpt lat="43.52621" lon="6.66876">
        <ele>339.3</ele>
        <time>2024-01-24T15:31:35+01:00</time>
      </trkpt>
      <trkpt lat="43.52621" lon="6.66869">
        <ele>338.5</ele>
        <time>2024-01-24T14:31:42.000Z</time>
      </trkpt>
      <trkpt lat="43.52621" lon="6.66861">
        <ele>337.6</ele>
        <time>2024-01-24T15:31:50+01:00</time>
      </trkpt>
      <trkpt lat="43.5262" lon="6.66854">
        <ele>337.5</ele>
        <time>2024-01-24T14:31:54.867Z</time>
      </trkpt>
      <trkpt lat="43.52618" lon="6.66847">
        <ele>337.5</ele>
        <time>2024-01-24T15:32:00+01:00</time>
      </trkpt>
      <trkpt lat="43.52618" lon="6.6684">
        <ele>337.4</ele>
        <time>2024-01-24T14:32:05.320Z</time>
      </trkpt>
      <trkpt lat="43.52617" lon="6.66834">
        <ele>337.4</ele>
        <time>2024-01-24T15:32:10+01:00</time>
      </trkpt>
      <trkpt lat="43.52617" lon="6.66827">
        <ele>337.4</ele>
        <time>2024-01-24T14:32:14.952Z</time>
      </trkpt>
      <trkpt lat="43.52616" lon="6.6682">
        <ele>337.4</ele>
        <time>2024-01-24T15:32:20+01:00</time>
      </trkpt>
      <trkpt lat="43.52617" lon="6.66812">
        <ele>337.2</ele>
        <time>2024-01-24T14:32:25.000Z</time>
      </trkpt>
      <trkpt lat="43.52618" lon="6.66804">
        <ele>336.9</ele>
        <time>2024-01-24T15:32:30+01:00</time>
      </trkpt>
      <trkpt lat="43.52619" lon="6.66797">
        <ele>336.2</ele>
        <time>2024-01-24T14:32:34.574Z</time>
      </trkpt>
      <trkpt lat="43.52621" lon="6.66789">
        <ele>335.5</ele>
        <time>2024-01-24T15:32:40+01:00</time>
      </trkpt>
      <trkpt lat="43.5262" lon="6.66782">
        <ele>335.1</ele>
        <time>2024-01-24T14:32:47.499Z</time>
      </trkpt>
      <trkpt lat="43.52619" lon="6.66775">
        <ele>334.4</ele>
        <time>2024-01-24T15:32:55+01:00</time>
      </trkpt>
      <trkpt lat="43.52618" lon="6.66769">
        <ele>333.4</ele>
        <time>2024-01-24T14:33:00.064Z</time>
      </trkpt>
      <trkpt lat="43.52618" lon="6.66763">
        <ele>332.3</ele>
        <time>2024-01-24T15:33:05+01:00</time>
      </trkpt>
      <trkpt lat="43.52621" lon="6.66757">
        <ele>330.6</ele>
        <time>2024-01-24T14:34:43.409Z</time>
      </trkpt>
      <trkpt lat="43.52623" lon="6.6675">
        <ele>328.8</ele>
        <time>2024-01-24T15:36:25+01:00</time>
      </trkpt>
      <trkpt lat="43.52619" lon="6.66748">
        <ele>329.5</ele>
        <time>2024-01-24T14:37:08.475Z</time>
      </trkpt>
      <trkpt lat="43.52615" lon="6.66745">
        <ele>330.1</ele>
        <time>2024-01-24T15:37:55+01:00</time>
      </trkpt>
      <trkpt lat="43.52615" lon="6.66739">
        <ele>329.7</ele>
        <time>2024-01-24T14:38:02.500Z</time>
      </trkpt>
      <trkpt lat="43.52615" lon="6.66733">
        <ele>329.2</ele>
        <time>2024-01-24T15:38:10+01:00</time>
      </trkpt>
      <trkpt lat="43.52617" lon="6.66727">
        <ele>328.6</ele>
        <time>2024-01-24T14:38:16.722Z</time>
      </trkpt>
      <trkpt lat="43.5262" lon="6.6672">
        <ele>328.2</ele>
        <time>2024-01-24T15:38:25+01:00</time>
      </trkpt>
      <trkpt lat="43.52625" lon="6.66723">
        <ele>327.6</ele>
        <time>2024-01-24T14:38:33.174Z</time>
      </trkpt>
      <trkpt lat="43.52629" lon="6.66726">
        <ele>327.1</ele>
        <time>2024-01-24T15:38:40+01:00</time>
      </trkpt>
      <trkpt lat="43.52634" lon="6.6673">
        <ele>326.7</ele>
        <time>2024-01-24T14:38:48.087Z</time>
      </trkpt>
      <trkpt lat="43.52638" lon="6.66734">
        <ele>326.1</ele>
        <time>2024-01-24T15:38:55+01:00</time>
      </trkpt>
      <trkpt lat="43.52643" lon="6.66739">
        <ele>325.1</ele>
        <time>2024-01-24T14:39:00.335Z</time>
      </trkpt>
      <trkpt lat="43.52647" lon="6.66744">
        <ele>324</ele>
        <time>2024-01-24T15:39:05+01:00</time>
      </trkpt>
      <trkpt lat="43.52651" lon="6.66749">
        <ele>322.9</ele>
        <time>2024-01-24T14:39:10.000Z</time>
      </trkpt>
      <trkpt lat="43.52655" lon="6.66754">
        <ele>322.5</ele>
        <time>2024-01-24T15:39:15+01:00</time>
      </trkpt>
      <trkpt lat="43.52659" lon="6.66759">
        <ele>322.2</ele>
        <time>2024-01-24T14:39:20.342Z</time>
      </trkpt>
      <trkpt lat="43.52662" lon="6.66764">
        <ele>321.9</ele>
        <time>2024-01-24T15:39:25+01:00</time>
      </trkpt>
      <trkpt lat="43.52664" lon="6.66756">
        <ele>320.5</ele>
        <time>2024-01-24T14:39:40.880Z</time>
      </trkpt>
      <trkpt lat="43.52666" lon="6.66749">
        <ele>319.3</ele>
        <time>2024-01-24T15:39:55+01:00</time>
      </trkpt>
      <trkpt lat="43.52667" lon="6.66741">
        <ele>319.3</ele>
        <time>2024-01-24T14:40:00.000Z</time>
      </trkpt>
      <trkpt lat="43.52668" lon="6.66733">
        <ele>319.2</ele>
        <time>2024-01-24T15:40:05+01:00</time>
      </trkpt>
      <trkpt lat="43.52671" lon="6.66726">
        <ele>318.7</ele>
        <time>2024-01-24T14:40:10.518Z</time>
      </trkpt>
      <trkpt lat="43.52673" lon="6.6672">
        <ele>318.4</ele>
        <time>2024-01-24T15:40:15+01:00</time>
      </trkpt>
      <trkpt lat="43.52677" lon="6.66716">
        <ele>318.2</ele>
        <time>2024-01-24T14:40:19.778Z</time>
      </trkpt>
      <trkpt lat="43.52681" lon="6.66711">
        <ele>317.9</ele>
        <time>2024-01-24T15:40:25+01:00</time>
      </trkpt>
      <trkpt lat="43.52686" lon="6.66704">
        <ele>317.8</ele>
        <time>2024-01-24T14:40:32.500Z</time>
      </trkpt>
      <trkpt lat="43.52691" lon="6.66697">
        <ele>317.6</ele>
        <time>2024-01-24T15:40:40+01:00</time>
      </trkpt>
      <trkpt lat="43.52696" lon="6.66691">
        <ele>317.4</ele>
        <time>2024-01-24T14:40:45.286Z</time>
      </trkpt>
      <trkpt lat="43.527" lon="6.66685">
        <ele>317.6</ele>
        <time>2024-01-24T15:40:50+01:00</time>
      </trkpt>
      <trkpt lat="43.52705" lon="6.6668">
        <ele>317.6</ele>
        <time>2024-01-24T14:40:55.335Z</time>
      </trkpt>
      <trkpt lat="43.52709" lon="6.66675">
        <ele>317.7</ele>
        <time>2024-01-24T15:41:00+01:00</time>
      </trkpt>
      <trkpt lat="43.52713" lon="6.66672">
        <ele>317.5</ele>
        <time>2024-01-24T14:41:05.000Z</time>
      </trkpt>
      <trkpt lat="43.52717" lon="6.66669">
        <ele>317.4</ele>
        <time>2024-01-24T15:41:10+01:00</time>
      </trkpt>
      <trkpt lat="43.52722" lon="6.66665">
        <ele>317.6</ele>
        <time>2024-01-24T14:41:15.391Z</time>
      </trkpt>
      <trkpt lat="43.52726" lon="6.66661">
        <ele>317.8</ele>
        <time>2024-01-24T15:41:20+01:00</time>
      </trkpt>
      <trkpt lat="43.5273" lon="6.66657">
        <ele>318.1</ele>
        <time>2024-01-24T14:41:24.608Z</time>
      </trkpt>
      <trkpt lat="43.52735" lon="6.66653">
        <ele>318.4</ele>
        <time>2024-01-24T15:41:30+01:00</time>
      </trkpt>
      <trkpt lat="43.5274" lon="6.66649">
        <ele>318.6</ele>
        <time>2024-01-24T14:41:35.145Z</time>
      </trkpt>
      <trkpt lat="43.52745" lon="6.66646">
        <ele>318.8</ele>
        <time>2024-01-24T15:41:40+01:00</time>
      </trkpt>
      <trkpt lat="43.5275" lon="6.66645">
        <ele>318.4</ele>
        <time>2024-01-24T14:41:45.026Z</time>
      </trkpt>
      <trkpt lat="43.52755" lon="6.66645">
        <ele>318.4</ele>
        <time>2024-01-24T15:41:50+01:00</time>
      </trkpt>
      <trkpt lat="43.5276" lon="6.66642">
        <ele>318.7</ele>
        <time>2024-01-24T14:42:10.000Z</time>
      </trkpt>
      <trkpt lat="43.52765" lon="6.66639">
        <ele>318.9</ele>
        <time>2024-01-24T15:42:30+01:00</time>
      </trkpt>
      <trkpt lat="43.52769" lon="6.66635">
        <ele>319.5</ele>
        <time>2024-01-24T14:42:35.000Z</time>
      </trkpt>
      <trkpt lat="43.52773" lon="6.66631">
        <ele>320.1</ele>
        <time>2024-01-24T15:42:40+01:00</time>
      </trkpt>
      <trkpt lat="43.52778" lon="6.66631">
        <ele>319.6</ele>
        <time>2024-01-24T14:42:51.031Z</time>
      </trkpt>
      <trkpt lat="43.52782" lon="6.66632">
        <ele>319</ele>
        <time>2024-01-24T15:43:00+01:00</time>
      </trkpt>
      <trkpt lat="43.52785" lon="6.66627">
        <ele>319.7</ele>
        <time>2024-01-24T14:43:04.657Z</time>
      </trkpt>
      <trkpt lat="43.52789" lon="6.66622">
        <ele>320.5</ele>
        <time>2024-01-24T15:43:10+01:00</time>
      </trkpt>
      <trkpt lat="43.52793" lon="6.66623">
        <ele>320</ele>
        <time>2024-01-24T14:43:14.484Z</time>
      </trkpt>
      <trkpt lat="43.52798" lon="6.66623">
        <ele>319.4</ele>
        <time>2024-01-24T15:43:20+01:00</time>
      </trkpt>
      <trkpt lat="43.52803" lon="6.66623">
        <ele>319</ele>
        <time>2024-01-24T14:43:25.515Z</time>
      </trkpt>
      <trkpt lat="43.52807" lon="6.66622">
        <ele>318.4</ele>
        <time>2024-01-24T15:43:30+01:00</time>
      </trkpt>
      <trkpt lat="43.5281" lon="6.66617">
        <ele>319</ele>
        <time>2024-01-24T14:43:37.065Z</time>
      </trkpt>
      <trkpt lat="43.52813" lon="6.66611">
        <ele>319.6</ele>
        <time>2024-01-24T15:43:45+01:00</time>
      </trkpt>
      <trkpt lat="43.52815" lon="6.66605">
        <ele>320.3</ele>
        <time>2024-01-24T14:43:50.000Z</time>
      </trkpt>
      <trkpt lat="43.52817" lon="6.66599">
        <ele>320.9</ele>
        <time>2024-01-24T15:43:55+01:00</time>
      </trkpt>
      <trkpt lat="43.5282" lon="6.66592">
        <ele>321.3</ele>
        <time>2024-01-24T14:44:02.791Z</time>
      </trkpt>
      <trkpt lat="43.52822" lon="6.66585">
        <ele>321.5</ele>
        <time>2024-01-24T15:44:10+01:00</time>
      </trkpt>
      <trkpt lat="43.52826" lon="6.66581">
        <ele>320.9</ele>
        <time>2024-01-24T14:44:15.421Z</time>
      </trkpt>
      <trkpt lat="43.52829" lon="6.66577">
        <ele>319.9</ele>
        <time>2024-01-24T15:44:20+01:00</time>
      </trkpt>
      <trkpt lat="43.52834" lon="6.66572">
        <ele>318.5</ele>
        <time>2024-01-24T14:44:27.748Z</time>
      </trkpt>
      <trkpt lat="43.52839" lon="6.66568">
        <ele>317.3</ele>
        <time>2024-01-24T15:44:35+01:00</time>
      </trkpt>
      <trkpt lat="43.52844" lon="6.66565">
        <ele>315.9</ele>
        <time>2024-01-24T14:44:41.910Z</time>
      </trkpt>
      <trkpt lat="43.5285" lon="6.66562">
        <ele>314.5</ele>
        <time>2024-01-24T15:44:50+01:00</time>
      </trkpt>
      <trkpt lat="43.52854" lon="6.6656">
        <ele>313.5</ele>
        <time>2024-01-24T14:44:54.382Z</time>
      </trkpt>
      <trkpt lat="43.52859" lon="6.66557">
        <ele>312.5</ele>
        <time>2024-01-24T15:45:00+01:00</time>
      </trkpt>
      <trkpt lat="43.52864" lon="6.66555">
        <ele>311.7</ele>
        <time>2024-01-24T14:45:05.502Z</time>
      </trkpt>
      <trkpt lat="43.52868" lon="6.66553">
        <ele>311.1</ele>
        <time>2024-01-24T15:45:10+01:00</time>
      </trkpt>
      <trkpt lat="43.52873" lon="6.66553">
        <ele>309.9</ele>
        <time>2024-01-24T14:45:14.973Z</time>
      </trkpt>
      <trkpt lat="43.52878" lon="6.66554">
        <ele>308.7</ele>
        <time>2024-01-24T15:45:20+01:00</time>
      </trkpt>
      <trkpt lat="43.52883" lon="6.66554">
        <ele>307.7</ele>
        <time>2024-01-24T14:45:27.460Z</time>
      </trkpt>
      <trkpt lat="43.52888" lon="6.66553">
        <ele>306.8</ele>
        <time>2024-01-24T15:45:35+01:00</time>
      </trkpt>
      <trkpt lat="43.52893" lon="6.66553">
        <ele>305.5</ele>
        <time>2024-01-24T14:45:41.818Z</time>
      </trkpt>
      <trkpt lat="43.52899" lon="6.66553">
        <ele>304.1</ele>
        <time>2024-01-24T15:45:50+01:00</time>
      </trkpt>
      <trkpt lat="43.52904" lon="6.66553">
        <ele>302.7</ele>
        <time>2024-01-24T14:45:57.500Z</time>
      </trkpt>
      <trkpt lat="43.52909" lon="6.66553">
        <ele>301.4</ele>
        <time>2024-01-24T15:46:05+01:00</time>
      </trkpt>
      <trkpt lat="43.52914" lon="6.6655">
        <ele>300.7</ele>
        <time>2024-01-24T14:46:21.851Z</time>
      </trkpt>
      <trkpt lat="43.52918" lon="6.66548">
        <ele>300.1</ele>
        <time>2024-01-24T15:46:35+01:00</time>
      </trkpt>
      <trkpt lat="43.5292" lon="6.66541">
        <ele>300.8</ele>
        <time>2024-01-24T14:46:57.500Z</time>
      </trkpt>
      <trkpt lat="43.52922" lon="6.66534">
        <ele>301.5</ele>
        <time>2024-01-24T15:47:20+01:00</time>
      </trkpt>
      <trkpt lat="43.52922" lon="6.66525">
        <ele>302.7</ele>
        <time>2024-01-24T14:47:27.500Z</time>
      </trkpt>
      <trkpt lat="43.52922" lon="6.66516">
        <ele>303.7</ele>
        <time>2024-01-24T15:47:35+01:00</time>
      </trkpt>
      <trkpt lat="43.52923" lon="6.66508">
        <ele>304.2</ele>
        <time>2024-01-24T14:47:41.945Z</time>
      </trkpt>
      <trkpt lat="43.52925" lon="6.66499">
        <ele>304.8</ele>
        <time>2024-01-24T15:47:50+01:00</time>
      </trkpt>
      <trkpt lat="43.52926" lon="6.66493">
        <ele>305.3</ele>
        <time>2024-01-24T14:47:55.000Z</time>
      </trkpt>
      <trkpt lat="43.52927" lon="6.66487">
        <ele>305.8</ele>
        <time>2024-01-24T15:48:00+01:00</time>
      </trkpt>
      <trkpt lat="43.52928" lon="6.66479">
        <ele>306.6</ele>
        <time>2024-01-24T14:48:08.054Z</time>
      </trkpt>
      <trkpt lat="43.52928" lon="6.66472">
        <ele>307.3</ele>
        <time>2024-01-24T15:48:15+01:00</time>
      </trkpt>
      <trkpt lat="43.52928" lon="6.66466">
        <ele>308.5</ele>
        <time>2024-01-24T14:48:21.852Z</time>
      </trkpt>
      <trkpt lat="43.52927" lon="6.66459">
        <ele>309.8</ele>
        <time>2024-01-24T15:48:30+01:00</time>
      </trkpt>
      <trkpt lat="43.52926" lon="6.66452">
        <ele>311.4</ele>
        <time>2024-01-24T14:48:37.499Z</time>
      </trkpt>
      <trkpt lat="43.52925" lon="6.66445">
        <ele>313.1</ele>
        <time>2024-01-24T15:48:45+01:00</time>
      </trkpt>
      <trkpt lat="43.52925" lon="6.66437">
        <ele>314.3</ele>
        <time>2024-01-24T14:48:52.445Z</time>
      </trkpt>
      <trkpt lat="43.52926" lon="6.66429">
        <ele>315.6</ele>
        <time>2024-01-24T15:49:00+01:00</time>
      </trkpt>
      <trkpt lat="43.52926" lon="6.66421">
        <ele>317</ele>
        <time>2024-01-24T14:49:07.928Z</time>
      </trkpt>
      <trkpt lat="43.52925" lon="6.66414">
        <ele>318.3</ele>
        <time>2024-01-24T15:49:15+01:00</time>
      </trkpt>
      <trkpt lat="43.52926" lon="6.66408">
        <ele>318.7</ele>
        <time>2024-01-24T14:49:22.237Z</time>
      </trkpt>
      <trkpt lat="43.52928" lon="6.66402">
        <ele>319.1</ele>
        <time>2024-01-24T15:49:30+01:00</time>
      </trkpt>
      <trkpt lat="43.5293" lon="6.66395">
        <ele>319.3</ele>
        <time>2024-01-24T14:49:36.827Z</time>
      </trkpt>
      <trkpt lat="43.52933" lon="6.66387">
        <ele>319.5</ele>
        <time>2024-01-24T15:49:45+01:00</time>
      </trkpt>
      <trkpt lat="43.52935" lon="6.66379">
        <ele>320.5</ele>
        <time>2024-01-24T14:49:52.100Z</time>
      </trkpt>
      <trkpt lat="43.52937" lon="6.6637">
        <ele>321.5</ele>
        <time>2024-01-24T15:50:00+01:00</time>
      </trkpt>
      <trkpt lat="43.5294" lon="6.66362">
        <ele>322.1</ele>
        <time>2024-01-24T14:50:07.883Z</time>
      </trkpt>
      <trkpt lat="43.52943" lon="6.66355">
        <ele>322.7</ele>
        <time>2024-01-24T15:50:15+01:00</time>
      </trkpt>
      <trkpt lat="43.52947" lon="6.66347">
        <ele>323.2</ele>
        <time>2024-01-24T14:50:23.166Z</time>
      </trkpt>
      <trkpt lat="43.5295" lon="6.6634">
        <ele>323.6</ele>
        <time>2024-01-24T15:50:30+01:00</time>
      </trkpt>
      <trkpt lat="43.52953" lon="6.66335">
        <ele>323.6</ele>
        <time>2024-01-24T14:51:37.500Z</time>
      </trkpt>
      <trkpt lat="43.52956" lon="6.6633">
        <ele>323.2</ele>
        <time>2024-01-24T15:52:45+01:00</time>
      </trkpt>
      <trkpt lat="43.52954" lon="6.66323">
        <ele>324.7</ele>
        <time>2024-01-24T14:52:52.988Z</time>
      </trkpt>
      <trkpt lat="43.52952" lon="6.66317">
        <ele>326.1</ele>
        <time>2024-01-24T15:53:00+01:00</time>
      </trkpt>
      <trkpt lat="43.52956" lon="6.66311">
        <ele>325.3</ele>
        <time>2024-01-24T14:53:05.279Z</time>
      </trkpt>
      <trkpt lat="43.52959" lon="6.66305">
        <ele>324.2</ele>
        <time>2024-01-24T15:53:10+01:00</time>
      </trkpt>
      <trkpt lat="43.52963" lon="6.66299">
        <ele>322.4</ele>
        <time>2024-01-24T14:53:20.452Z</time>
      </trkpt>
      <trkpt lat="43.52967" lon="6.66294">
        <ele>320.7</ele>
        <time>2024-01-24T15:53:30+01:00</time>
      </trkpt>
      <trkpt lat="43.52971" lon="6.66288">
        <ele>319.3</ele>
        <time>2024-01-24T14:53:38.350Z</time>
      </trkpt>
      <trkpt lat="43.52974" lon="6.66283">
        <ele>318.1</ele>
        <time>2024-01-24T15:53:45+01:00</time>
      </trkpt>
      <trkpt lat="43.52975" lon="6.66274">
        <ele>317.7</ele>
        <time>2024-01-24T14:53:52.774Z</time>
      </trkpt>
      <trkpt lat="43.52977" lon="6.66266">
        <ele>317.2</ele>
        <time>2024-01-24T15:54:00+01:00</time>
      </trkpt>
      <trkpt lat="43.5298" lon="6.66259">
        <ele>315.8</ele>
        <time>2024-01-24T14:54:07.500Z</time>
      </trkpt>
      <trkpt lat="43.52983" lon="6.66252">
        <ele>314.4</ele>
        <time>2024-01-24T15:54:15+01:00</time>
      </trkpt>
      <trkpt lat="43.52987" lon="6.66251">
        <ele>312.4</ele>
        <time>2024-01-24T14:54:21.726Z</time>
      </trkpt>
      <trkpt lat="43.52992" lon="6.66251">
        <ele>310.5</ele>
        <time>2024-01-24T15:54:30+01:00</time>
      </trkpt>
      <trkpt lat="43.52997" lon="6.66251">
        <ele>308.2</ele>
        <time>2024-01-24T14:54:37.460Z</time>
      </trkpt>
      <trkpt lat="43.53002" lon="6.6625">
        <ele>305.9</ele>
        <time>2024-01-24T15:54:45+01:00</time>
      </trkpt>
      <trkpt lat="43.53007" lon="6.66247">
        <ele>304</ele>
        <time>2024-01-24T14:54:55.898Z</time>
      </trkpt>
      <trkpt lat="43.53011" lon="6.66244">
        <ele>302.2</ele>
        <time>2024-01-24T15:55:05+01:00</time>
      </trkpt>
      <trkpt lat="43.53015" lon="6.66241">
        <ele>300.5</ele>
        <time>2024-01-24T14:55:10.169Z</time>
      </trkpt>
      <trkpt lat="43.53019" lon="6.66239">
        <ele>298.7</ele>
        <time>2024-01-24T15:55:15+01:00</time>
      </trkpt>
      <trkpt lat="43.53019" lon="6.66232">
        <ele>299.1</ele>
        <time>2024-01-24T14:57:35.000Z</time>
      </trkpt>
      <trkpt lat="43.53019" lon="6.66225">
        <ele>299.5</ele>
        <time>2024-01-24T15:59:55+01:00</time>
      </trkpt>
      <trkpt lat="43.53019" lon="6.66219">
        <ele>299.6</ele>
        <time>2024-01-24T15:00:01.923Z</time>
      </trkpt>
      <trkpt lat="43.53019" lon="6.66212">
        <ele>299.7</ele>
        <time>2024-01-24T16:00:10+01:00</time>
      </trkpt>
      <trkpt lat="43.53019" lon="6.66203">
        <ele>299.9</ele>
        <time>2024-01-24T15:00:17.456Z</time>
      </trkpt>
      <trkpt lat="43.53018" lon="6.66194">
        <ele>300.1</ele>
        <time>2024-01-24T16:00:25+01:00</time>
      </trkpt>
      <trkpt lat="43.53018" lon="6.66186">
        <ele>299.5</ele>
        <time>2024-01-24T15:00:30.000Z</time>
      </trkpt>
      <trkpt lat="43.53018" lon="6.66178">
        <ele>298.9</ele>
        <time>2024-01-24T16:00:35+01:00</time>
      </trkpt>
      <trkpt lat="43.53016" lon="6.66172">
        <ele>299</ele>
        <time>2024-01-24T15:00:39.999Z</time>
      </trkpt>
      <trkpt lat="43.53014" lon="6.66166">
        <ele>299.2</ele>
        <time>2024-01-24T16:00:45+01:00</time>
      </trkpt>
      <trkpt lat="43.53012" lon="6.66157">
        <ele>299.8</ele>
        <time>2024-01-24T15:00:52.899Z</time>
      </trkpt>
      <trkpt lat="43.5301" lon="6.66149">
        <ele>300.3</ele>
        <time>2024-01-24T16:01:00+01:00</time>
      </trkpt>
      <trkpt lat="43.53007" lon="6.66142">
        <ele>301.2</ele>
        <time>2024-01-24T15:01:07.499Z</time>
      </trkpt>
      <trkpt lat="43.53004" lon="6.66135">
        <ele>302</ele>
        <time>2024-01-24T16:01:15+01:00</time>
      </trkpt>
      <trkpt lat="43.53002" lon="6.66129">
        <ele>302.3</ele>
        <time>2024-01-24T15:01:19.753Z</time>
      </trkpt>
      <trkpt lat="43.52999" lon="6.66123">
        <ele>302.6</ele>
        <time>2024-01-24T16:01:25+01:00</time>
      </trkpt>
      <trkpt lat="43.52995" lon="6.66116">
        <ele>303.3</ele>
        <time>2024-01-24T15:01:32.499Z</time>
      </trkpt>
      <trkpt lat="43.52991" lon="6.66109">
        <ele>304.3</ele>
        <time>2024-01-24T16:01:40+01:00</time>
      </trkpt>
      <trkpt lat="43.52989" lon="6.66102">
        <ele>304.8</ele>
        <time>2024-01-24T15:01:45.325Z</time>
      </trkpt>
      <trkpt lat="43.52987" lon="6.66096">
        <ele>305.3</ele>
        <time>2024-01-24T16:01:50+01:00</time>
      </trkpt>
      <trkpt lat="43.52986" lon="6.66087">
        <ele>305.6</ele>
        <time>2024-01-24T15:01:57.113Z</time>
      </trkpt>
      <trkpt lat="43.52985" lon="6.66077">
        <ele>305.5</ele>
        <time>2024-01-24T16:02:05+01:00</time>
      </trkpt>
      <trkpt lat="43.52983" lon="6.66069">
        <ele>305.7</ele>
        <time>2024-01-24T15:02:09.999Z</time>
      </trkpt>
      <trkpt lat="43.52981" lon="6.66061">
        <ele>306</ele>
        <time>2024-01-24T16:02:15+01:00</time>
      </trkpt>
      <trkpt lat="43.52976" lon="6.66055">
        <ele>307.2</ele>
        <time>2024-01-24T15:02:22.594Z</time>
      </trkpt>
      <trkpt lat="43.52972" lon="6.66048">
        <ele>307.8</ele>
        <time>2024-01-24T16:02:30+01:00</time>
      </trkpt>
      <trkpt lat="43.52968" lon="6.66044">
        <ele>308.6</ele>
        <time>2024-01-24T15:02:34.753Z</time>
      </trkpt>
      <trkpt lat="43.52963" lon="6.66041">
        <ele>309.3</ele>
        <time>2024-01-24T16:02:40+01:00</time>
      </trkpt>
      <trkpt lat="43.5296" lon="6.66036">
        <ele>309.6</ele>
        <time>2024-01-24T15:02:44.657Z</time>
      </trkpt>
      <trkpt lat="43.52956" lon="6.66031">
        <ele>309.8</ele>
        <time>2024-01-24T16:02:50+01:00</time>
      </trkpt>
      <trkpt lat="43.52952" lon="6.66029">
        <ele>310.9</ele>
        <time>2024-01-24T15:02:54.497Z</time>
      </trkpt>
      <trkpt lat="43.52947" lon="6.66027">
        <ele>312</ele>
        <time>2024-01-24T16:03:00+01:00</time>
      </trkpt>
      <trkpt lat="43.52944" lon="6.66022">
        <ele>312.4</ele>
        <time>2024-01-24T15:03:04.878Z</time>
      </trkpt>
      <trkpt lat="43.5294" lon="6.66018">
        <ele>313.2</ele>
        <time>2024-01-24T16:03:10+01:00</time>
      </trkpt>
      <trkpt lat="43.52937" lon="6.66013">
        <ele>314.2</ele>
        <time>2024-01-24T15:03:17.317Z</time>
      </trkpt>
      <trkpt lat="43.52933" lon="6.66009">
        <ele>315.1</ele>
        <time>2024-01-24T16:03:25+01:00</time>
      </trkpt>
      <trkpt lat="43.52929" lon="6.66003">
        <ele>315.6</ele>
        <time>2024-01-24T15:03:33.350Z</time>
      </trkpt>
      <trkpt lat="43.52926" lon="6.65998">
        <ele>315.9</ele>
        <time>2024-01-24T16:03:40+01:00</time>
      </trkpt>
      <trkpt lat="43.52921" lon="6.65993">
        <ele>316.5</ele>
        <time>2024-01-24T15:03:45.335Z</time>
      </trkpt>
      <trkpt lat="43.52917" lon="6.65988">
        <ele>316.9</ele>
        <time>2024-01-24T16:03:50+01:00</time>
      </trkpt>
      <trkpt lat="43.52911" lon="6.65984">
        <ele>317.6</ele>
        <time>2024-01-24T15:03:57.310Z</time>
      </trkpt>
      <trkpt lat="43.52905" lon="6.65979">
        <ele>318.1</ele>
        <time>2024-01-24T16:04:05+01:00</time>
      </trkpt>
      <trkpt lat="43.52901" lon="6.65975">
        <ele>318.2</ele>
        <time>2024-01-24T15:04:09.999Z</time>
      </trkpt>
      <trkpt lat="43.52897" lon="6.65971">
        <ele>318.2</ele>
        <time>2024-01-24T16:04:15+01:00</time>
      </trkpt>
      <trkpt lat="43.52893" lon="6.65966">
        <ele>318.1</ele>
        <time>2024-01-24T15:04:19.664Z</time>
      </trkpt>
      <trkpt lat="43.52888" lon="6.65961">
        <ele>318</ele>
        <time>2024-01-24T16:04:25+01:00</time>
      </trkpt>
      <trkpt lat="43.52884" lon="6.65957">
        <ele>318.3</ele>
        <time>2024-01-24T15:04:29.753Z</time>
      </trkpt>
      <trkpt lat="43.52879" lon="6.65954">
        <ele>318.6</ele>
        <time>2024-01-24T16:04:35+01:00</time>
      </trkpt>
      <trkpt lat="43.52874" lon="6.65952">
        <ele>319.4</ele>
        <time>2024-01-24T15:04:40.502Z</time>
      </trkpt>
      <trkpt lat="43.5287" lon="6.6595">
        <ele>320.3</ele>
        <time>2024-01-24T16:04:45+01:00</time>
      </trkpt>
      <trkpt lat="43.52865" lon="6.65945">
        <ele>320.1</ele>
        <time>2024-01-24T15:04:50.335Z</time>
      </trkpt>
      <trkpt lat="43.52861" lon="6.6594">
        <ele>319.7</ele>
        <time>2024-01-24T16:04:55+01:00</time>
      </trkpt>
      <trkpt lat="43.52855" lon="6.65934">
        <ele>319</ele>
        <time>2024-01-24T15:05:01.923Z</time>
      </trkpt>
      <trkpt lat="43.52848" lon="6.65927">
        <ele>318.5</ele>
        <time>2024-01-24T16:05:10+01:00</time>
      </trkpt>
      <trkpt lat="43.52843" lon="6.65924">
        <ele>318.8</ele>
        <time>2024-01-24T15:05:15.617Z</time>
      </trkpt>
      <trkpt lat="43.52839" lon="6.65922">
        <ele>319.2</ele>
        <time>2024-01-24T16:05:20+01:00</time>
      </trkpt>
      <trkpt lat="43.52833" lon="6.65918">
        <ele>319.5</ele>
        <time>2024-01-24T15:05:25.499Z</time>
      </trkpt>
      <trkpt lat="43.52828" lon="6.65915">
        <ele>318.8</ele>
        <time>2024-01-24T16:05:30+01:00</time>
      </trkpt>
      <trkpt lat="43.52823" lon="6.65913">
        <ele>318.6</ele>
        <time>2024-01-24T15:05:34.575Z</time>
      </trkpt>
      <trkpt lat="43.52817" lon="6.65911">
        <ele>318.5</ele>
        <time>2024-01-24T16:05:40+01:00</time>
      </trkpt>
      <trkpt lat="43.52811" lon="6.6591">
        <ele>318.8</ele>
        <time>2024-01-24T15:05:44.581Z</time>
      </trkpt>
      <trkpt lat="43.52804" lon="6.65908">
        <ele>318.9</ele>
        <time>2024-01-24T16:05:50+01:00</time>
      </trkpt>
      <trkpt lat="43.52798" lon="6.65908">
        <ele>318.5</ele>
        <time>2024-01-24T15:05:54.981Z</time>
      </trkpt>
      <trkpt lat="43.52792" lon="6.65907">
        <ele>318.1</ele>
        <time>2024-01-24T16:06:00+01:00</time>
      </trkpt>
      <trkpt lat="43.52787" lon="6.65907">
        <ele>318.2</ele>
        <time>2024-01-24T15:06:04.973Z</time>
      </trkpt>
      <trkpt lat="43.52782" lon="6.65908">
        <ele>318.3</ele>
        <time>2024-01-24T16:06:10+01:00</time>
      </trkpt>
      <trkpt lat="43.52776" lon="6.65909">
        <ele>318.4</ele>
        <time>2024-01-24T15:06:15.000Z</time>
      </trkpt>
      <trkpt lat="43.5277" lon="6.6591">
        <ele>318.3</ele>
        <time>2024-01-24T16:06:20+01:00</time>
      </trkpt>
      <trkpt lat="43.52764" lon="6.65911">
        <ele>318.2</ele>
        <time>2024-01-24T15:06:25.000Z</time>
      </trkpt>
      <trkpt lat="43.52758" lon="6.65912">
        <ele>318.2</ele>
        <time>2024-01-24T16:06:30+01:00</time>
      </trkpt>
      <trkpt lat="43.52751" lon="6.65913">
        <ele>318</ele>
        <time>2024-01-24T15:06:37.004Z</time>
      </trkpt>
      <trkpt lat="43.52743" lon="6.65914">
        <ele>317.6</ele>
        <time>2024-01-24T16:06:45+01:00</time>
      </trkpt>
      <trkpt lat="43.52738" lon="6.65914">
        <ele>316.9</ele>
        <time>2024-01-24T15:06:49.527Z</time>
      </trkpt>
      <trkpt lat="43.52732" lon="6.65913">
        <ele>316.3</ele>
        <time>2024-01-24T16:06:55+01:00</time>
      </trkpt>
      <trkpt lat="43.52726" lon="6.65915">
        <ele>316.1</ele>
        <time>2024-01-24T15:06:59.999Z</time>
      </trkpt>
      <trkpt lat="43.5272" lon="6.65917">
        <ele>315.6</ele>
        <time>2024-01-24T16:07:05+01:00</time>
      </trkpt>
      <trkpt lat="43.52714" lon="6.65921">
        <ele>315.7</ele>
        <time>2024-01-24T15:07:12.499Z</time>
      </trkpt>
      <trkpt lat="43.52708" lon="6.65925">
        <ele>315.8</ele>
        <time>2024-01-24T16:07:20+01:00</time>
      </trkpt>
      <trkpt lat="43.52702" lon="6.65927">
        <ele>315.4</ele>
        <time>2024-01-24T15:07:25.499Z</time>
      </trkpt>
      <trkpt lat="43.52697" lon="6.65928">
        <ele>314.8</ele>
        <time>2024-01-24T16:07:30+01:00</time>
      </trkpt>
      <trkpt lat="43.5269" lon="6.6593">
        <ele>314.3</ele>
        <time>2024-01-24T15:07:38.128Z</time>
      </trkpt>
      <trkpt lat="43.52684" lon="6.65931">
        <ele>314.2</ele>
        <time>2024-01-24T16:07:45+01:00</time>
      </trkpt>
      <trkpt lat="43.52679" lon="6.65931">
        <ele>313.7</ele>
        <time>2024-01-24T15:07:50.000Z</time>
      </trkpt>
      <trkpt lat="43.52674" lon="6.65931">
        <ele>313.3</ele>
        <time>2024-01-24T16:07:55+01:00</time>
      </trkpt>
      <trkpt lat="43.52669" lon="6.65929">
        <ele>312.1</ele>
        <time>2024-01-24T15:07:59.999Z</time>
      </trkpt>
      <trkpt lat="43.52664" lon="6.65927">
        <ele>311.2</ele>
        <time>2024-01-24T16:08:05+01:00</time>
      </trkpt>
      <trkpt lat="43.52658" lon="6.65924">
        <ele>310.4</ele>
        <time>2024-01-24T15:08:10.507Z</time>
      </trkpt>
      <trkpt lat="43.52653" lon="6.65922">
        <ele>309.7</ele>
        <time>2024-01-24T16:08:15+01:00</time>
      </trkpt>
      <trkpt lat="43.52648" lon="6.65922">
        <ele>309.5</ele>
        <time>2024-01-24T15:08:19.973Z</time>
      </trkpt>
      <trkpt lat="43.52643" lon="6.65921">
        <ele>309.4</ele>
        <time>2024-01-24T16:08:25+01:00</time>
      </trkpt>
      <trkpt lat="43.52637" lon="6.6592">
        <ele>308.8</ele>
        <time>2024-01-24T15:08:32.420Z</time>
      </trkpt>
      <trkpt lat="43.52631" lon="6.65918">
        <ele>307.8</ele>
        <time>2024-01-24T16:08:40+01:00</time>
      </trkpt>
      <trkpt lat="43.52627" lon="6.65918">
        <ele>307.6</ele>
        <time>2024-01-24T15:08:46.628Z</time>
      </trkpt>
      <trkpt lat="43.52622" lon="6.65919">
        <ele>307.4</ele>
        <time>2024-01-24T16:08:55+01:00</time>
      </trkpt>
      <trkpt lat="43.52617" lon="6.65916">
        <ele>306.4</ele>
        <time>2024-01-24T15:09:00.617Z</time>
      </trkpt>
      <trkpt lat="43.52613" lon="6.65914">
        <ele>305.5</ele>
        <time>2024-01-24T16:09:05+01:00</time>
      </trkpt>
      <trkpt lat="43.52608" lon="6.65912">
        <ele>305</ele>
        <time>2024-01-24T15:09:10.074Z</time>
      </trkpt>
      <trkpt lat="43.52603" lon="6.65911">
        <ele>304.7</ele>
        <time>2024-01-24T16:09:15+01:00</time>
      </trkpt>
      <trkpt lat="43.52598" lon="6.65909">
        <ele>304.1</ele>
        <time>2024-01-24T15:09:19.999Z</time>
      </trkpt>
      <trkpt lat="43.52593" lon="6.65907">
        <ele>303.6</ele>
        <time>2024-01-24T16:09:25+01:00</time>
      </trkpt>
      <trkpt lat="43.52589" lon="6.65906">
        <ele>303.5</ele>
        <time>2024-01-24T15:09:29.484Z</time>
      </trkpt>
      <trkpt lat="43.52584" lon="6.65906">
        <ele>303.4</ele>
        <time>2024-01-24T16:09:35+01:00</time>
      </trkpt>
      <trkpt lat="43.52579" lon="6.65904">
        <ele>302.2</ele>
        <time>2024-01-24T15:09:40.502Z</time>
      </trkpt>
      <trkpt lat="43.52575" lon="6.65902">
        <ele>301</ele>
        <time>2024-01-24T16:09:45+01:00</time>
      </trkpt>
      <trkpt lat="43.5257" lon="6.65903">
        <ele>300.4</ele>
        <time>2024-01-24T15:09:50.541Z</time>
      </trkpt>
      <trkpt lat="43.52566" lon="6.65904">
        <ele>299.8</ele>
        <time>2024-01-24T16:09:55+01:00</time>
      </trkpt>
      <trkpt lat="43.52561" lon="6.6591">
        <ele>300.4</ele>
        <time>2024-01-24T15:10:02.764Z</time>
      </trkpt>
      <trkpt lat="43.52556" lon="6.65915">
        <ele>300.8</ele>
        <time>2024-01-24T16:10:10+01:00</time>
      </trkpt>
      <trkpt lat="43.52552" lon="6.65919">
        <ele>300.6</ele>
        <time>2024-01-24T15:10:16.912Z</time>
      </trkpt>
      <trkpt lat="43.52547" lon="6.65923">
        <ele>300.2</ele>
        <time>2024-01-24T16:10:25+01:00</time>
      </trkpt>
      <trkpt lat="43.52542" lon="6.65926">
        <ele>299.4</ele>
        <time>2024-01-24T15:10:29.999Z</time>
      </trkpt>
      <trkpt lat="43.52537" lon="6.65929">
        <ele>298.6</ele>
        <time>2024-01-24T16:10:35+01:00</time>
      </trkpt>
      <trkpt lat="43.52532" lon="6.65928">
        <ele>297.1</ele>
        <time>2024-01-24T15:10:40.428Z</time>
      </trkpt>
      <trkpt lat="43.52528" lon="6.65926">
        <ele>295.6</ele>
        <time>2024-01-24T16:10:45+01:00</time>
      </trkpt>
      <trkpt lat="43.52527" lon="6.65917">
        <ele>294.1</ele>
        <time>2024-01-24T15:10:52.984Z</time>
      </trkpt>
      <trkpt lat="43.52527" lon="6.65909">
        <ele>293.1</ele>
        <time>2024-01-24T16:11:00+01:00</time>
      </trkpt>
      <trkpt lat="43.5253" lon="6.65903">
        <ele>292.8</ele>
        <time>2024-01-24T15:11:04.920Z</time>
      </trkpt>
      <trkpt lat="43.52532" lon="6.65896">
        <ele>292.6</ele>
        <time>2024-01-24T16:11:10+01:00</time>
      </trkpt>
      <trkpt lat="43.52533" lon="6.65889">
        <ele>291.8</ele>
        <time>2024-01-24T15:11:17.500Z</time>
      </trkpt>
      <trkpt lat="43.52534" lon="6.65882">
        <ele>291.3</ele>
        <time>2024-01-24T16:11:25+01:00</time>
      </trkpt>
      <trkpt lat="43.52537" lon="6.65876">
        <ele>291.3</ele>
        <time>2024-01-24T15:11:30.289Z</time>
      </trkpt>
      <trkpt lat="43.5254" lon="6.65871">
        <ele>291.2</ele>
        <time>2024-01-24T16:11:35+01:00</time>
      </trkpt>
      <trkpt lat="43.52542" lon="6.65865">
        <ele>290.9</ele>
        <time>2024-01-24T15:11:40.000Z</time>
      </trkpt>
      <trkpt lat="43.52544" lon="6.65859">
        <ele>290.6</ele>
        <time>2024-01-24T16:11:45+01:00</time>
      </trkpt>
      <trkpt lat="43.52543" lon="6.65853">
        <ele>289.8</ele>
        <time>2024-01-24T15:11:51.948Z</time>
      </trkpt>
      <trkpt lat="43.52542" lon="6.65846">
        <ele>288.9</ele>
        <time>2024-01-24T16:12:00+01:00</time>
      </trkpt>
      <trkpt lat="43.52538" lon="6.65844">
        <ele>288.1</ele>
        <time>2024-01-24T15:12:06.745Z</time>
      </trkpt>
      <trkpt lat="43.52533" lon="6.65842">
        <ele>287.1</ele>
        <time>2024-01-24T16:12:15+01:00</time>
      </trkpt>
      <trkpt lat="43.52528" lon="6.65846">
        <ele>287</ele>
        <time>2024-01-24T15:12:23.087Z</time>
      </trkpt>
      <trkpt lat="43.52524" lon="6.6585">
        <ele>286.4</ele>
        <time>2024-01-24T16:12:30+01:00</time>
      </trkpt>
      <trkpt lat="43.52521" lon="6.65856">
        <ele>286.4</ele>
        <time>2024-01-24T15:12:35.289Z</time>
      </trkpt>
      <trkpt lat="43.52518" lon="6.65861">
        <ele>286.3</ele>
        <time>2024-01-24T16:12:40+01:00</time>
      </trkpt>
      <trkpt lat="43.52515" lon="6.65868">
        <ele>286.2</ele>
        <time>2024-01-24T15:12:47.910Z</time>
      </trkpt>
      <trkpt lat="43.52512" lon="6.65874">
        <ele>286.3</ele>
        <time>2024-01-24T16:12:55+01:00</time>
      </trkpt>
      <trkpt lat="43.52506" lon="6.65877">
        <ele>285.6</ele>
        <time>2024-01-24T15:13:02.625Z</time>
      </trkpt>
      <trkpt lat="43.525" lon="6.65879">
        <ele>284.9</ele>
        <time>2024-01-24T16:13:10+01:00</time>
      </trkpt>
      <trkpt lat="43.52495" lon="6.65881">
        <ele>284.6</ele>
        <time>2024-01-24T15:13:16.941Z</time>
      </trkpt>
      <trkpt lat="43.52489" lon="6.65882">
        <ele>284.3</ele>
        <time>2024-01-24T16:13:25+01:00</time>
      </trkpt>
      <trkpt lat="43.52484" lon="6.65881">
        <ele>283.5</ele>
        <time>2024-01-24T15:19:00.804Z</time>
      </trkpt>
      <trkpt lat="43.5248" lon="6.6588">
        <ele>282.7</ele>
        <time>2024-01-24T16:23:31+01:00</time>
      </trkpt>
      <trkpt lat="43.52474" lon="6.65882">
        <ele>282.5</ele>
        <time>2024-01-24T15:23:38.499Z</time>
      </trkpt>
      <trkpt lat="43.52468" lon="6.65884">
        <ele>282</ele>
        <time>2024-01-24T16:23:46+01:00</time>
      </trkpt>
      <trkpt lat="43.52463" lon="6.65886">
        <ele>281.5</ele>
        <time>2024-01-24T15:23:51.074Z</time>
      </trkpt>
      <trkpt lat="43.52458" lon="6.65887">
        <ele>281</ele>
        <time>2024-01-24T16:23:56+01:00</time>
      </trkpt>
      <trkpt lat="43.52449" lon="6.65891">
        <ele>280.3</ele>
        <time>2024-01-24T16:24:06+01:00</time>
      </trkpt>
      <trkpt lat="43.52444" lon="6.65892">
        <ele>279.7</ele>
        <time>2024-01-24T15:24:10.553Z</time>
      </trkpt>
      <trkpt lat="43.52438" lon="6.65893">
        <ele>280</ele>
        <time>2024-01-24T16:24:16+01:00</time>
      </trkpt>
      <trkpt lat="43.52432" lon="6.65891">
        <ele>279.5</ele>
        <time>2024-01-24T15:24:20.633Z</time>
      </trkpt>
      <trkpt lat="43.52425" lon="6.65889">
        <ele>278.9</ele>
        <time>2024-01-24T16:24:26+01:00</time>
      </trkpt>
      <trkpt lat="43.52421" lon="6.65883">
        <ele>278.2</ele>
        <time>2024-01-24T15:24:30.999Z</time>
      </trkpt>
      <trkpt lat="43.52417" lon="6.65877">
        <ele>277.7</ele>
        <time>2024-01-24T16:24:36+01:00</time>
      </trkpt>
      <trkpt lat="43.52416" lon="6.6587">
        <ele>277</ele>
        <time>2024-01-24T15:24:40.677Z</time>
      </trkpt>
      <trkpt lat="43.52415" lon="6.65862">
        <ele>276.1</ele>
        <time>2024-01-24T16:24:46+01:00</time>
      </trkpt>
      <trkpt lat="43.52413" lon="6.65855">
        <ele>275.1</ele>
        <time>2024-01-24T15:24:50.805Z</time>
      </trkpt>
      <trkpt lat="43.5241" lon="6.65848">
        <ele>274.1</ele>
        <time>2024-01-24T16:24:56+01:00</time>
      </trkpt>
      <trkpt lat="43.5241" lon="6.65841">
        <ele>273.1</ele>
        <time>2024-01-24T15:25:01.000Z</time>
      </trkpt>
      <trkpt lat="43.5241" lon="6.65834">
        <ele>272.1</ele>
        <time>2024-01-24T16:25:06+01:00</time>
      </trkpt>
      <trkpt lat="43.52406" lon="6.65828">
        <ele>270.8</ele>
        <time>2024-01-24T15:25:13.165Z</time>
      </trkpt>
      <trkpt lat="43.52402" lon="6.65821">
        <ele>269.7</ele>
        <time>2024-01-24T16:25:21+01:00</time>
      </trkpt>
      <trkpt lat="43.52396" lon="6.65818">
        <ele>269.4</ele>
        <time>2024-01-24T15:25:28.499Z</time>
      </trkpt>
      <trkpt lat="43.5239" lon="6.65815">
        <ele>269.3</ele>
        <time>2024-01-24T16:25:36+01:00</time>
      </trkpt>
      <trkpt lat="43.52384" lon="6.65816">
        <ele>269.1</ele>
        <time>2024-01-24T15:25:42.871Z</time>
      </trkpt>
      <trkpt lat="43.52377" lon="6.65818">
        <ele>268.8</ele>
        <time>2024-01-24T16:25:51+01:00</time>
      </trkpt>
      <trkpt lat="43.52371" lon="6.65817">
        <ele>268.2</ele>
        <time>2024-01-24T15:25:56.018Z</time>
      </trkpt>
      <trkpt lat="43.52365" lon="6.65817">
        <ele>267.6</ele>
        <time>2024-01-24T16:26:01+01:00</time>
      </trkpt>
      <trkpt lat="43.52361" lon="6.65814">
        <ele>266.5</ele>
        <time>2024-01-24T15:26:05.665Z</time>
      </trkpt>
      <trkpt lat="43.52356" lon="6.65812">
        <ele>265.3</ele>
        <time>2024-01-24T16:26:11+01:00</time>
      </trkpt>
      <trkpt lat="43.52349" lon="6.65811">
        <ele>264.3</ele>
        <time>2024-01-24T15:26:18.500Z</time>
      </trkpt>
      <trkpt lat="43.52342" lon="6.6581">
        <ele>263.1</ele>
        <time>2024-01-24T16:26:26+01:00</time>
      </trkpt>
      <trkpt lat="43.52336" lon="6.65809">
        <ele>262.1</ele>
        <time>2024-01-24T15:26:31.000Z</time>
      </trkpt>
      <trkpt lat="43.5233" lon="6.65808">
        <ele>261.3</ele>
        <time>2024-01-24T16:26:36+01:00</time>
      </trkpt>
      <trkpt lat="43.52326" lon="6.65807">
        <ele>260.7</ele>
        <time>2024-01-24T15:26:40.458Z</time>
      </trkpt>
      <trkpt lat="43.52321" lon="6.65806">
        <ele>260.1</ele>
        <time>2024-01-24T16:26:46+01:00</time>
      </trkpt>
      <trkpt lat="43.52316" lon="6.65803">
        <ele>259</ele>
        <time>2024-01-24T15:26:50.999Z</time>
      </trkpt>
      <trkpt lat="43.52311" lon="6.658">
        <ele>257.7</ele>
        <time>2024-01-24T16:26:56+01:00</time>
      </trkpt>
      <trkpt lat="43.52307" lon="6.658">
        <ele>257.4</ele>
        <time>2024-01-24T15:27:00.418Z</time>
      </trkpt>
      <trkpt lat="43.52302" lon="6.65799">
        <ele>257.3</ele>
        <time>2024-01-24T16:27:06+01:00</time>
      </trkpt>
      <trkpt lat="43.52297" lon="6.65799">
        <ele>257.2</ele>
        <time>2024-01-24T15:27:10.973Z</time>
      </trkpt>
      <trkpt lat="43.52292" lon="6.65798">
        <ele>257</ele>
        <time>2024-01-24T16:27:16+01:00</time>
      </trkpt>
      <trkpt lat="43.52288" lon="6.65797">
        <ele>256.6</ele>
        <time>2024-01-24T15:27:20.458Z</time>
      </trkpt>
      <trkpt lat="43.52283" lon="6.65796">
        <ele>256.1</ele>
        <time>2024-01-24T16:27:26+01:00</time>
      </trkpt>
      <trkpt lat="43.52276" lon="6.65795">
        <ele>255.5</ele>
        <time>2024-01-24T15:27:32.959Z</time>
      </trkpt>
      <trkpt lat="43.52268" lon="6.65793">
        <ele>254.3</ele>
        <time>2024-01-24T16:27:41+01:00</time>
      </trkpt>
      <trkpt lat="43.52263" lon="6.65793">
        <ele>253.8</ele>
        <time>2024-01-24T15:27:45.545Z</time>
      </trkpt>
      <trkpt lat="43.52257" lon="6.65793">
        <ele>253.4</ele>
        <time>2024-01-24T16:27:51+01:00</time>
      </trkpt>
      <trkpt lat="43.52252" lon="6.65793">
        <ele>253</ele>
        <time>2024-01-24T15:27:56.000Z</time>
      </trkpt>
      <trkpt lat="43.52247" lon="6.65793">
        <ele>252.8</ele>
        <time>2024-01-24T16:28:01+01:00</time>
      </trkpt>
      <trkpt lat="43.5224" lon="6.65793">
        <ele>252.5</ele>
        <time>2024-01-24T15:28:08.500Z</time>
      </trkpt>
      <trkpt lat="43.52233" lon="6.65793">
        <ele>252.2</ele>
        <time>2024-01-24T16:28:16+01:00</time>
      </trkpt>
      <trkpt lat="43.52227" lon="6.65792">
        <ele>251.7</ele>
        <time>2024-01-24T15:28:21.000Z</time>
      </trkpt>
      <trkpt lat="43.52221" lon="6.65791">
        <ele>251.2</ele>
        <time>2024-01-24T16:28:26+01:00</time>
      </trkpt>
      <trkpt lat="43.52215" lon="6.6579">
        <ele>250.7</ele>
        <time>2024-01-24T15:28:32.950Z</time>
      </trkpt>
      <trkpt lat="43.52208" lon="6.6579">
        <ele>250.2</ele>
        <time>2024-01-24T16:28:41+01:00</time>
      </trkpt>
      <trkpt lat="43.52203" lon="6.6579">
        <ele>250.1</ele>
        <time>2024-01-24T15:28:45.527Z</time>
      </trkpt>
      <trkpt lat="43.52197" lon="6.65791">
        <ele>250</ele>
        <time>2024-01-24T16:28:51+01:00</time>
      </trkpt>
      <trkpt lat="43.52193" lon="6.65791">
        <ele>249.7</ele>
        <time>2024-01-24T15:28:55.418Z</time>
      </trkpt>
      <trkpt lat="43.52188" lon="6.6579">
        <ele>249.6</ele>
        <time>2024-01-24T16:29:01+01:00</time>
      </trkpt>
      <trkpt lat="43.52183" lon="6.65789">
        <ele>249.4</ele>
        <time>2024-01-24T15:29:06.541Z</time>
      </trkpt>
      <trkpt lat="43.52179" lon="6.65788">
        <ele>249.2</ele>
        <time>2024-01-24T16:29:11+01:00</time>
      </trkpt>
      <trkpt lat="43.52182" lon="6.65782">
        <ele>248.1</ele>
        <time>2024-01-24T15:30:21.899Z</time>
      </trkpt>
      <trkpt lat="43.52185" lon="6.65775">
        <ele>247.5</ele>
        <time>2024-01-24T16:31:41+01:00</time>
      </trkpt>
      <trkpt lat="43.52189" lon="6.6577">
        <ele>247.5</ele>
        <time>2024-01-24T15:31:50.328Z</time>
      </trkpt>
      <trkpt lat="43.52194" lon="6.65765">
        <ele>247.1</ele>
        <time>2024-01-24T16:32:01+01:00</time>
      </trkpt>
      <trkpt lat="43.52199" lon="6.6576">
        <ele>246.5</ele>
        <time>2024-01-24T15:32:06.000Z</time>
      </trkpt>
      <trkpt lat="43.52204" lon="6.65755">
        <ele>245.5</ele>
        <time>2024-01-24T16:32:11+01:00</time>
      </trkpt>
      <trkpt lat="43.5221" lon="6.65751">
        <ele>244.4</ele>
        <time>2024-01-24T15:32:16.499Z</time>
      </trkpt>
      <trkpt lat="43.52215" lon="6.65748">
        <ele>243.5</ele>
        <time>2024-01-24T16:32:21+01:00</time>
      </trkpt>
      <trkpt lat="43.5222" lon="6.65743">
        <ele>242.9</ele>
        <time>2024-01-24T15:32:27.818Z</time>
      </trkpt>
      <trkpt lat="43.52226" lon="6.65737">
        <ele>242.5</ele>
        <time>2024-01-24T16:32:36+01:00</time>
      </trkpt>
      <trkpt lat="43.5223" lon="6.65732">
        <ele>242</ele>
        <time>2024-01-24T15:32:40.773Z</time>
      </trkpt>
      <trkpt lat="43.52234" lon="6.65726">
        <ele>241.3</ele>
        <time>2024-01-24T16:32:46+01:00</time>
      </trkpt>
      <trkpt lat="43.52238" lon="6.65722">
        <ele>240.7</ele>
        <time>2024-01-24T15:32:51.121Z</time>
      </trkpt>
      <trkpt lat="43.52241" lon="6.65717">
        <ele>240.4</ele>
        <time>2024-01-24T16:32:56+01:00</time>
      </trkpt>
      <trkpt lat="43.52246" lon="6.65711">
        <ele>240</ele>
        <time>2024-01-24T15:33:01.286Z</time>
      </trkpt>
      <trkpt lat="43.5225" lon="6.65705">
        <ele>239.3</ele>
        <time>2024-01-24T16:33:06+01:00</time>
      </trkpt>
      <trkpt lat="43.52255" lon="6.65701">
        <ele>238.9</ele>
        <time>2024-01-24T15:33:11.000Z</time>
      </trkpt>
      <trkpt lat="43.5226" lon="6.65697">
        <ele>238.4</ele>
        <time>2024-01-24T16:33:16+01:00</time>
      </trkpt>
      <trkpt lat="43.52265" lon="6.65691">
        <ele>238.1</ele>
        <time>2024-01-24T15:33:21.176Z</time>
      </trkpt>
      <trkpt lat="43.5227" lon="6.65686">
        <ele>237.6</ele>
        <time>2024-01-24T16:33:26+01:00</time>
      </trkpt>
      <trkpt lat="43.52276" lon="6.65682">
        <ele>236.8</ele>
        <time>2024-01-24T15:33:31.499Z</time>
      </trkpt>
      <trkpt lat="43.52281" lon="6.65679">
        <ele>236.5</ele>
        <time>2024-01-24T16:33:36+01:00</time>
      </trkpt>
      <trkpt lat="43.52285" lon="6.65672">
        <ele>236.4</ele>
        <time>2024-01-24T15:33:41.501Z</time>
      </trkpt>
      <trkpt lat="43.52288" lon="6.65666">
        <ele>236.2</ele>
        <time>2024-01-24T16:33:46+01:00</time>
      </trkpt>
      <trkpt lat="43.52291" lon="6.65661">
        <ele>235.6</ele>
        <time>2024-01-24T15:33:50.878Z</time>
      </trkpt>
      <trkpt lat="43.52295" lon="6.65657">
        <ele>235</ele>
        <time>2024-01-24T16:33:56+01:00</time>
      </trkpt>
      <trkpt lat="43.52298" lon="6.6565">
        <ele>234.1</ele>
        <time>2024-01-24T15:34:01.194Z</time>
      </trkpt>
      <trkpt lat="43.523" lon="6.65643">
        <ele>233.1</ele>
        <time>2024-01-24T16:34:06+01:00</time>
      </trkpt>
      <trkpt lat="43.52303" lon="6.65635">
        <ele>232.1</ele>
        <time>2024-01-24T15:34:11.255Z</time>
      </trkpt>
      <trkpt lat="43.52306" lon="6.65628">
        <ele>231.3</ele>
        <time>2024-01-24T16:34:16+01:00</time>
      </trkpt>
      <trkpt lat="43.5231" lon="6.6562">
        <ele>231.2</ele>
        <time>2024-01-24T15:34:21.444Z</time>
      </trkpt>
      <trkpt lat="43.52313" lon="6.65613">
        <ele>231</ele>
        <time>2024-01-24T16:34:26+01:00</time>
        <extensions>
          <visugpx:TrkExtension xmlns:visugpx="https://www.visugpx.com/editgpx/">
            <visugpx:node>1</visugpx:node>
            </visugpx:TrkExtension>
        </extensions>
      </trkpt>
      <trkpt lat="43.52317" lon="6.65607">
        <ele>230.8</ele>
        <time>2024-01-24T15:34:31.279Z</time>
      </trkpt>
      <trkpt lat="43.5232" lon="6.65601">
        <ele>230.6</ele>
        <time>2024-01-24T16:34:36+01:00</time>
      </trkpt>
      <trkpt lat="43.52323" lon="6.65594">
        <ele>230</ele>
        <time>2024-01-24T15:34:41.194Z</time>
      </trkpt>
      <trkpt lat="43.52325" lon="6.65587">
        <ele>229.4</ele>
        <time>2024-01-24T16:34:46+01:00</time>
      </trkpt>
      <trkpt lat="43.52329" lon="6.6558">
        <ele>228.8</ele>
        <time>2024-01-24T15:34:51.501Z</time>
      </trkpt>
      <trkpt lat="43.52332" lon="6.65574">
        <ele>228.3</ele>
        <time>2024-01-24T16:34:56+01:00</time>
      </trkpt>
      <trkpt lat="43.52336" lon="6.65567">
        <ele>228.1</ele>
        <time>2024-01-24T15:35:01.000Z</time>
      </trkpt>
      <trkpt lat="43.5234" lon="6.6556">
        <ele>228</ele>
        <time>2024-01-24T16:35:06+01:00</time>
      </trkpt>
      <trkpt lat="43.52344" lon="6.65554">
        <ele>228.1</ele>
        <time>2024-01-24T15:35:10.889Z</time>
      </trkpt>
      <trkpt lat="43.52349" lon="6.65549">
        <ele>228.1</ele>
        <time>2024-01-24T16:35:16+01:00</time>
      </trkpt>
      <trkpt lat="43.52353" lon="6.65544">
        <ele>228.1</ele>
        <time>2024-01-24T15:35:21.342Z</time>
      </trkpt>
      <trkpt lat="43.52356" lon="6.65539">
        <ele>227.9</ele>
        <time>2024-01-24T16:35:26+01:00</time>
      </trkpt>
      <trkpt lat="43.52361" lon="6.65534">
        <ele>227.6</ele>
        <time>2024-01-24T15:35:31.110Z</time>
      </trkpt>
      <trkpt lat="43.52365" lon="6.65528">
        <ele>227.6</ele>
        <time>2024-01-24T16:35:36+01:00</time>
      </trkpt>
      <trkpt lat="43.52369" lon="6.65521">
        <ele>227.3</ele>
        <time>2024-01-24T15:35:40.783Z</time>
      </trkpt>
      <trkpt lat="43.52373" lon="6.65513">
        <ele>226.9</ele>
        <time>2024-01-24T16:35:46+01:00</time>
      </trkpt>
      <trkpt lat="43.52377" lon="6.65508">
        <ele>226.8</ele>
        <time>2024-01-24T15:35:50.488Z</time>
      </trkpt>
      <trkpt lat="43.52382" lon="6.65502">
        <ele>226.5</ele>
        <time>2024-01-24T16:35:56+01:00</time>
      </trkpt>
      <trkpt lat="43.52387" lon="6.655">
        <ele>226.8</ele>
        <time>2024-01-24T15:36:00.492Z</time>
      </trkpt>
      <trkpt lat="43.52393" lon="6.65497">
        <ele>226.7</ele>
        <time>2024-01-24T16:36:06+01:00</time>
      </trkpt>
      <trkpt lat="43.52399" lon="6.65496">
        <ele>226.4</ele>
        <time>2024-01-24T15:36:10.633Z</time>
      </trkpt>
      <trkpt lat="43.52406" lon="6.65496">
        <ele>226</ele>
        <time>2024-01-24T16:36:16+01:00</time>
      </trkpt>
      <trkpt lat="43.52412" lon="6.65495">
        <ele>225.6</ele>
        <time>2024-01-24T15:36:20.633Z</time>
      </trkpt>
      <trkpt lat="43.52419" lon="6.65495">
        <ele>225.2</ele>
        <time>2024-01-24T16:36:26+01:00</time>
      </trkpt>
      <trkpt lat="43.52425" lon="6.65494">
        <ele>224.9</ele>
        <time>2024-01-24T15:36:31.446Z</time>
      </trkpt>
      <trkpt lat="43.5243" lon="6.65493">
        <ele>224.7</ele>
        <time>2024-01-24T16:36:36+01:00</time>
      </trkpt>
      <trkpt lat="43.52435" lon="6.65491">
        <ele>224.4</ele>
        <time>2024-01-24T15:36:40.884Z</time>
      </trkpt>
      <trkpt lat="43.5244" lon="6.65488">
        <ele>224.2</ele>
        <time>2024-01-24T16:36:46+01:00</time>
      </trkpt>
      <trkpt lat="43.52444" lon="6.65482">
        <ele>223.7</ele>
        <time>2024-01-24T15:36:51.005Z</time>
      </trkpt>
      <trkpt lat="43.52447" lon="6.65475">
        <ele>223.4</ele>
        <time>2024-01-24T16:36:56+01:00</time>
      </trkpt>
      <trkpt lat="43.5245" lon="6.65469">
        <ele>223.1</ele>
        <time>2024-01-24T15:37:00.726Z</time>
      </trkpt>
      <trkpt lat="43.52453" lon="6.65462">
        <ele>222.8</ele>
        <time>2024-01-24T16:37:06+01:00</time>
      </trkpt>
      <trkpt lat="43.52456" lon="6.65454">
        <ele>222.3</ele>
        <time>2024-01-24T15:37:11.000Z</time>
      </trkpt>
      <trkpt lat="43.52459" lon="6.65446">
        <ele>221.7</ele>
        <time>2024-01-24T16:37:16+01:00</time>
      </trkpt>
      <trkpt lat="43.52461" lon="6.65439">
        <ele>221.4</ele>
        <time>2024-01-24T15:37:20.805Z</time>
      </trkpt>
      <trkpt lat="43.52464" lon="6.65432">
        <ele>221.2</ele>
        <time>2024-01-24T16:37:26+01:00</time>
      </trkpt>
      <trkpt lat="43.52466" lon="6.65425">
        <ele>221.1</ele>
        <time>2024-01-24T15:37:31.000Z</time>
      </trkpt>
      <trkpt lat="43.52468" lon="6.65418">
        <ele>220.9</ele>
        <time>2024-01-24T16:37:36+01:00</time>
      </trkpt>
      <trkpt lat="43.52469" lon="6.6541">
        <ele>220.7</ele>
        <time>2024-01-24T15:37:41.189Z</time>
      </trkpt>
      <trkpt lat="43.52471" lon="6.65403">
        <ele>220.4</ele>
        <time>2024-01-24T16:37:46+01:00</time>
      </trkpt>
      <trkpt lat="43.52473" lon="6.65396">
        <ele>220.2</ele>
        <time>2024-01-24T15:37:51.000Z</time>
      </trkpt>
      <trkpt lat="43.52475" lon="6.65389">
        <ele>219.8</ele>
        <time>2024-01-24T16:37:56+01:00</time>
      </trkpt>
      <trkpt lat="43.52477" lon="6.6538">
        <ele>219.6</ele>
        <time>2024-01-24T15:38:01.266Z</time>
      </trkpt>
      <trkpt lat="43.52479" lon="6.65372">
        <ele>219.4</ele>
        <time>2024-01-24T16:38:06+01:00</time>
      </trkpt>
      <trkpt lat="43.52481" lon="6.65365">
        <ele>219.1</ele>
        <time>2024-01-24T15:38:11.000Z</time>
      </trkpt>
      <trkpt lat="43.52483" lon="6.65358">
        <ele>218.7</ele>
        <time>2024-01-24T16:38:16+01:00</time>
      </trkpt>
      <trkpt lat="43.52487" lon="6.65353">
        <ele>218</ele>
        <time>2024-01-24T15:38:20.664Z</time>
      </trkpt>
      <trkpt lat="43.52492" lon="6.65348">
        <ele>217.4</ele>
        <time>2024-01-24T16:38:26+01:00</time>
      </trkpt>
      <trkpt lat="43.52499" lon="6.65347">
        <ele>217.1</ele>
        <time>2024-01-24T15:38:31.000Z</time>
      </trkpt>
      <trkpt lat="43.52506" lon="6.65346">
        <ele>216.5</ele>
        <time>2024-01-24T16:38:36+01:00</time>
      </trkpt>
      <trkpt lat="43.52511" lon="6.65345">
        <ele>215.9</ele>
        <time>2024-01-24T15:38:40.553Z</time>
      </trkpt>
      <trkpt lat="43.52517" lon="6.65344">
        <ele>215.4</ele>
        <time>2024-01-24T16:38:46+01:00</time>
      </trkpt>
      <trkpt lat="43.52522" lon="6.65339">
        <ele>214.8</ele>
        <time>2024-01-24T15:38:51.335Z</time>
      </trkpt>
      <trkpt lat="43.52526" lon="6.65334">
        <ele>214.2</ele>
        <time>2024-01-24T16:38:56+01:00</time>
      </trkpt>
      <trkpt lat="43.5253" lon="6.65328">
        <ele>213.8</ele>
        <time>2024-01-24T15:39:00.776Z</time>
      </trkpt>
      <trkpt lat="43.52534" lon="6.65321">
        <ele>213.7</ele>
        <time>2024-01-24T16:39:06+01:00</time>
      </trkpt>
      <trkpt lat="43.52538" lon="6.65314">
        <ele>213.4</ele>
        <time>2024-01-24T15:39:11.000Z</time>
      </trkpt>
      <trkpt lat="43.52542" lon="6.65307">
        <ele>213.1</ele>
        <time>2024-01-24T16:39:16+01:00</time>
      </trkpt>
      <trkpt lat="43.52546" lon="6.65302">
        <ele>212.4</ele>
        <time>2024-01-24T15:39:21.000Z</time>
      </trkpt>
      <trkpt lat="43.5255" lon="6.65297">
        <ele>211.5</ele>
        <time>2024-01-24T16:39:26+01:00</time>
      </trkpt>
      <trkpt lat="43.52557" lon="6.65299">
        <ele>211.5</ele>
        <time>2024-01-24T15:39:31.000Z</time>
      </trkpt>
      <trkpt lat="43.52564" lon="6.65301">
        <ele>210.4</ele>
        <time>2024-01-24T16:39:36+01:00</time>
      </trkpt>
      <trkpt lat="43.5257" lon="6.65306">
        <ele>209.9</ele>
        <time>2024-01-24T15:39:41.000Z</time>
      </trkpt>
      <trkpt lat="43.52576" lon="6.65311">
        <ele>209</ele>
        <time>2024-01-24T16:39:46+01:00</time>
      </trkpt>
      <trkpt lat="43.52582" lon="6.65317">
        <ele>208.5</ele>
        <time>2024-01-24T15:39:51.454Z</time>
      </trkpt>
      <trkpt lat="43.52587" lon="6.65322">
        <ele>208</ele>
        <time>2024-01-24T16:39:56+01:00</time>
      </trkpt>
      <trkpt lat="43.52591" lon="6.65326">
        <ele>207.5</ele>
        <time>2024-01-24T15:40:01.204Z</time>
      </trkpt>
      <trkpt lat="43.52595" lon="6.65329">
        <ele>206.8</ele>
        <time>2024-01-24T16:40:06+01:00</time>
      </trkpt>
      <trkpt lat="43.52598" lon="6.65334">
        <ele>206.3</ele>
        <time>2024-01-24T15:40:10.657Z</time>
      </trkpt>
      <trkpt lat="43.52602" lon="6.65339">
        <ele>206</ele>
        <time>2024-01-24T16:40:16+01:00</time>
      </trkpt>
      <trkpt lat="43.52606" lon="6.65344">
        <ele>205.5</ele>
        <time>2024-01-24T15:40:23.500Z</time>
      </trkpt>
      <trkpt lat="43.5261" lon="6.65349">
        <ele>205.1</ele>
        <time>2024-01-24T16:40:31+01:00</time>
      </trkpt>
      <trkpt lat="43.52613" lon="6.65354">
        <ele>205.1</ele>
        <time>2024-01-24T15:40:35.710Z</time>
      </trkpt>
      <trkpt lat="43.52616" lon="6.6536">
        <ele>205.3</ele>
        <time>2024-01-24T16:40:41+01:00</time>
      </trkpt>
      <trkpt lat="43.5262" lon="6.65366">
        <ele>205.4</ele>
        <time>2024-01-24T15:40:46.279Z</time>
      </trkpt>
      <trkpt lat="43.52623" lon="6.65372">
        <ele>205.4</ele>
        <time>2024-01-24T16:40:51+01:00</time>
      </trkpt>
      <trkpt lat="43.52628" lon="6.65377">
        <ele>205.3</ele>
        <time>2024-01-24T15:40:56.335Z</time>
      </trkpt>
      <trkpt lat="43.52632" lon="6.65382">
        <ele>205.2</ele>
        <time>2024-01-24T16:41:01+01:00</time>
      </trkpt>
      <trkpt lat="43.52637" lon="6.65386">
        <ele>205</ele>
        <time>2024-01-24T15:41:05.519Z</time>
      </trkpt>
      <trkpt lat="43.52643" lon="6.65391">
        <ele>205</ele>
        <time>2024-01-24T16:41:11+01:00</time>
      </trkpt>
      <trkpt lat="43.52648" lon="6.65396">
        <ele>205.1</ele>
        <time>2024-01-24T15:41:16.000Z</time>
      </trkpt>
      <trkpt lat="43.52653" lon="6.65401">
        <ele>205.1</ele>
        <time>2024-01-24T16:41:21+01:00</time>
      </trkpt>
      <trkpt lat="43.52658" lon="6.65405">
        <ele>205.1</ele>
        <time>2024-01-24T15:41:25.834Z</time>
      </trkpt>
      <trkpt lat="43.52663" lon="6.6541">
        <ele>205</ele>
        <time>2024-01-24T16:41:31+01:00</time>
      </trkpt>
      <trkpt lat="43.52667" lon="6.65414">
        <ele>204.9</ele>
        <time>2024-01-24T15:41:35.608Z</time>
      </trkpt>
      <trkpt lat="43.52672" lon="6.65418">
        <ele>205.1</ele>
        <time>2024-01-24T16:41:41+01:00</time>
      </trkpt>
      <trkpt lat="43.52677" lon="6.65423">
        <ele>205.4</ele>
        <time>2024-01-24T15:41:45.809Z</time>
      </trkpt>
      <trkpt lat="43.52683" lon="6.65427">
        <ele>205.5</ele>
        <time>2024-01-24T16:41:51+01:00</time>
      </trkpt>
      <trkpt lat="43.52688" lon="6.65431">
        <ele>205.7</ele>
        <time>2024-01-24T15:41:55.519Z</time>
      </trkpt>
      <trkpt lat="43.52694" lon="6.65436">
        <ele>205.7</ele>
        <time>2024-01-24T16:42:01+01:00</time>
      </trkpt>
      <trkpt lat="43.52698" lon="6.65441">
        <ele>205.7</ele>
        <time>2024-01-24T15:42:05.829Z</time>
      </trkpt>
      <trkpt lat="43.52703" lon="6.65445">
        <ele>205.8</ele>
        <time>2024-01-24T16:42:11+01:00</time>
      </trkpt>
      <trkpt lat="43.52708" lon="6.6545">
        <ele>206</ele>
        <time>2024-01-24T15:42:16.555Z</time>
      </trkpt>
      <trkpt lat="43.52712" lon="6.65454">
        <ele>206.1</ele>
        <time>2024-01-24T16:42:21+01:00</time>
      </trkpt>
      <trkpt lat="43.52717" lon="6.65458">
        <ele>206</ele>
        <time>2024-01-24T15:42:25.834Z</time>
      </trkpt>
      <trkpt lat="43.52722" lon="6.65463">
        <ele>205.7</ele>
        <time>2024-01-24T16:42:31+01:00</time>
      </trkpt>
      <trkpt lat="43.52727" lon="6.65467">
        <ele>205.8</ele>
        <time>2024-01-24T15:42:35.834Z</time>
      </trkpt>
      <trkpt lat="43.52732" lon="6.65472">
        <ele>206</ele>
        <time>2024-01-24T16:42:41+01:00</time>
      </trkpt>
      <trkpt lat="43.52737" lon="6.65476">
        <ele>206.4</ele>
        <time>2024-01-24T15:42:45.752Z</time>
      </trkpt>
      <trkpt lat="43.52743" lon="6.65479">
        <ele>206.7</ele>
        <time>2024-01-24T16:42:51+01:00</time>
      </trkpt>
      <trkpt lat="43.52748" lon="6.65482">
        <ele>206.8</ele>
        <time>2024-01-24T15:42:56.000Z</time>
      </trkpt>
      <trkpt lat="43.52753" lon="6.65485">
        <ele>206.8</ele>
        <time>2024-01-24T16:43:01+01:00</time>
      </trkpt>
      <trkpt lat="43.52758" lon="6.65485">
        <ele>206.5</ele>
        <time>2024-01-24T15:43:05.973Z</time>
      </trkpt>
      <trkpt lat="43.52763" lon="6.65486">
        <ele>206.2</ele>
        <time>2024-01-24T16:43:11+01:00</time>
      </trkpt>
      <trkpt lat="43.52769" lon="6.65481">
        <ele>205.7</ele>
        <time>2024-01-24T15:43:18.500Z</time>
      </trkpt>
      <trkpt lat="43.52775" lon="6.65476">
        <ele>205.2</ele>
        <time>2024-01-24T16:43:26+01:00</time>
      </trkpt>
      <trkpt lat="43.5278" lon="6.65471">
        <ele>205.2</ele>
        <time>2024-01-24T15:43:34.003Z</time>
      </trkpt>
      <trkpt lat="43.52784" lon="6.65466">
        <ele>205.6</ele>
        <time>2024-01-24T16:43:41+01:00</time>
      </trkpt>
      <trkpt lat="43.52789" lon="6.65465">
        <ele>205.9</ele>
        <time>2024-01-24T15:43:48.539Z</time>
      </trkpt>
      <trkpt lat="43.52794" lon="6.65465">
        <ele>206.3</ele>
        <time>2024-01-24T16:43:56+01:00</time>
      </trkpt>
      <trkpt lat="43.52799" lon="6.65463">
        <ele>206.6</ele>
        <time>2024-01-24T15:46:31.557Z</time>
      </trkpt>
      <trkpt lat="43.52805" lon="6.65461">
        <ele>207</ele>
        <time>2024-01-24T16:49:36+01:00</time>
      </trkpt>
      <trkpt lat="43.52809" lon="6.65458">
        <ele>207.3</ele>
        <time>2024-01-24T15:49:40.550Z</time>
      </trkpt>
      <trkpt lat="43.52814" lon="6.65455">
        <ele>207.6</ele>
        <time>2024-01-24T16:49:46+01:00</time>
      </trkpt>
      <trkpt lat="43.52819" lon="6.65456">
        <ele>208</ele>
        <time>2024-01-24T15:49:51.000Z</time>
      </trkpt>
      <trkpt lat="43.52824" lon="6.65457">
        <ele>208.4</ele>
        <time>2024-01-24T16:49:56+01:00</time>
      </trkpt>
      <trkpt lat="43.52827" lon="6.65461">
        <ele>208.4</ele>
        <time>2024-01-24T15:50:00.359Z</time>
      </trkpt>
      <trkpt lat="43.52831" lon="6.65466">
        <ele>208.3</ele>
        <time>2024-01-24T16:50:06+01:00</time>
      </trkpt>
      <trkpt lat="43.52836" lon="6.65467">
        <ele>208.5</ele>
        <time>2024-01-24T15:50:11.000Z</time>
      </trkpt>
      <trkpt lat="43.52841" lon="6.65468">
        <ele>208.6</ele>
        <time>2024-01-24T16:50:16+01:00</time>
      </trkpt>
      <trkpt lat="43.52846" lon="6.65469">
        <ele>208.7</ele>
        <time>2024-01-24T15:50:21.428Z</time>
      </trkpt>
      <trkpt lat="43.5285" lon="6.65471">
        <ele>208.7</ele>
        <time>2024-01-24T16:50:26+01:00</time>
      </trkpt>
      <trkpt lat="43.52855" lon="6.65475">
        <ele>208.8</ele>
        <time>2024-01-24T15:50:36.000Z</time>
      </trkpt>
      <trkpt lat="43.5286" lon="6.65479">
        <ele>209</ele>
        <time>2024-01-24T16:50:46+01:00</time>
      </trkpt>
      <trkpt lat="43.52866" lon="6.65482">
        <ele>209.5</ele>
        <time>2024-01-24T15:50:53.500Z</time>
      </trkpt>
      <trkpt lat="43.52872" lon="6.65485">
        <ele>210</ele>
        <time>2024-01-24T16:51:01+01:00</time>
        <extensions>
          <visugpx:TrkExtension xmlns:visugpx="https://www.visugpx.com/editgpx/">
            <visugpx:node>2</visugpx:node>
            </visugpx:TrkExtension>
        </extensions>
      </trkpt>
    </trkseg>
  </trk>
</gpx>